[[{"header":{"parameterUnit":"m.s-1","parameterCategory":1,"la1":30.6,"la2":28.766,"lo1":-90.7593,"lo2":-88.6598,"dx":0.0162,"dy":0.0183,"nx":116,"ny":114,"refTime":"2023-02-02T06:00:00:Z","depth":0,"parameterNumber":2,"parameterNumberName":"U-component_of_WINDS"},"data":[0.0,0.0,0.0,0.0,0.0,0.0,0.0,0.0,0.0,0.0,0.0,0.0,0.0,0.0,0.0,0.0,0.0,0.0,0.0,0.0,0.0,0.0,0.0,0.0,0.0,0.0,0.0,0.0,0.0,0.0,0.0,0.0,0.0,0.0,0.0,0.0,0.0,0.0,0.0,0.0,0.0,0.0,0.0,0.0,0.0,0.0,0.0,0.0,0.0,0.0,0.0,0.0,0.0,0.0,0.0,0.0,0.0,0.0,0.0,0.0,0.0,0.0,0.0,0.0,0.0,0.0,0.0,0.0,0.0,0.0,0.0,0.0,0.0,0.0,0.0,0.0,0.0,0.0,0.0,0.0,0.0,0.0,0.0,0.0,0.0,0.0,0.0,0.0,0.0,0.0,0.0,0.0,0.0,0.0,0.0,0.0,0.0,0.0,0.0,0.0,0.0,0.0,0.0,0.0,0.0,0.0,0.0,0.0,0.0,0.0,0.0,0.0,0.0,0.0,0.0,0.0,0.0,0.0,0.0,0.0,0.0,0.0,0.0,0.0,0.0,0.0,0.0,0.0,0.0,0.0,0.0,0.0,0.0,0.0,0.0,0.0,0.0,0.0,0.0,0.0,0.0,0.0,0.0,0.0,0.0,0.0,0.0,0.0,0.0,0.0,0.0,0.0,0.0,0.0,0.0,0.0,0.0,0.0,0.0,0.0,0.0,0.0,0.0,0.0,0.0,0.0,0.0,0.0,0.0,0.0,0.0,0.0,0.0,0.0,0.0,0.0,0.0,0.0,0.0,0.0,0.0,0.0,0.0,0.0,0.0,0.0,0.0,0.0,0.0,0.0,0.0,0.0,0.0,0.0,0.0,0.0,0.0,0.0,0.0,0.0,0.0,0.0,0.0,0.0,0.0,0.0,0.0,0.0,0.0,0.0,0.0,0.0,0.0,0.0,0.0,0.0,0.0,0.0,0.0,0.0,0.0,0.0,0.0,0.0,0.0,0.0,0.0,0.0,0.0,0.0,0.0,0.0,0.0,0.0,0.0,0.0,0.0,0.0,0.0,0.0,0.0,0.0,0.0,0.0,0.0,0.0,0.0,0.0,0.0,0.0,0.0,0.0,0.0,0.0,0.0,0.0,0.0,0.0,0.0,0.0,0.0,0.0,0.0,0.0,0.0,0.0,0.0,0.0,0.0,0.0,0.0,0.0,0.0,0.0,0.0,0.0,0.0,0.0,0.0,0.0,0.0,0.0,0.0,0.0,0.0,0.0,0.0,0.0,0.0,0.0,0.0,0.0,0.0,0.0,0.0,0.0,0.0,0.0,0.0,0.0,0.0,0.0,0.0,0.0,0.0,0.0,0.0,0.0,0.0,0.0,0.0,0.0,0.0,0.0,0.0,0.0,0.0,0.0,0.0,0.0,0.0,0.0,0.0,0.0,0.0,0.0,0.0,0.0,0.0,0.0,0.0,0.0,0.0,0.0,0.0,0.0,0.0,0.0,0.0,0.0,0.0,0.0,0.0,0.0,0.0,0.0,0.0,0.0,0.0,0.0,0.0,0.0,0.0,0.0,0.0,0.0,0.0,0.0,0.0,0.0,0.0,0.0,0.0,0.0,0.0,0.0,0.0,0.0,0.0,0.0,0.0,0.0,0.0,0.0,0.0,0.0,0.0,0.0,0.0,0.0,0.0,0.0,0.0,0.0,0.0,0.0,0.0,0.0,0.0,0.0,0.0,0.0,0.0,0.0,0.0,0.0,0.0,0.0,0.0,0.0,0.0,0.0,0.0,0.0,0.0,0.0,0.0,0.0,0.0,0.0,0.0,0.0,0.0,0.0,0.0,0.0,0.0,0.0,0.0,0.0,0.0,0.0,0.0,0.0,0.0,0.0,0.0,0.0,0.0,0.0,0.0,0.0,0.0,0.0,0.0,0.0,0.0,0.0,0.0,0.0,0.0,0.0,0.0,0.0,0.0,0.0,0.0,0.0,0.0,0.0,0.0,0.0,0.0,0.0,0.0,0.0,0.0,0.0,0.0,0.0,0.0,0.0,0.0,0.0,0.0,0.0,0.0,0.0,0.0,0.0,0.0,0.0,0.0,0.0,0.0,0.0,0.0,0.0,0.0,0.0,0.0,0.0,0.0,0.0,0.0,0.0,0.0,0.0,0.0,0.0,0.0,0.0,0.0,0.0,0.0,0.0,0.0,0.0,0.0,0.0,0.0,0.0,0.0,0.0,0.0,0.0,0.0,0.0,0.0,0.0,0.0,0.0,0.0,0.0,0.0,0.0,0.0,0.0,0.0,0.0,0.0,0.0,0.0,0.0,0.0,0.0,0.0,0.0,0.0,0.0,0.0,0.0,0.0,0.0,0.0,0.0,0.0,0.0,0.0,0.0,0.0,0.0,0.0,0.0,0.0,0.0,0.0,0.0,0.0,0.0,0.0,0.0,0.0,0.0,0.0,0.0,0.0,0.0,0.0,0.0,0.0,0.0,0.0,0.0,0.0,0.0,0.0,0.0,0.0,0.0,0.0,0.0,0.0,0.0,0.0,0.0,0.0,0.0,0.0,0.0,0.0,0.0,0.0,0.0,0.0,0.0,0.0,0.0,0.0,0.0,0.0,0.0,0.0,0.0,0.0,0.0,0.0,0.0,0.0,0.0,0.0,0.0,0.0,0.0,0.0,0.0,0.0,0.0,0.0,0.0,0.0,0.0,0.0,0.0,0.0,0.0,0.0,0.0,0.0,0.0,0.0,0.0,0.0,0.0,0.0,0.0,0.0,0.0,0.0,0.0,0.0,0.0,0.0,0.0,0.0,0.0,0.0,0.0,0.0,0.0,0.0,0.0,0.0,0.0,0.0,0.0,0.0,0.0,0.0,0.0,0.0,0.0,0.0,0.0,0.0,0.0,0.0,0.0,0.0,0.0,0.0,0.0,0.0,0.0,0.0,0.0,0.0,0.0,0.0,0.0,0.0,0.0,0.0,0.0,0.0,0.0,0.0,0.0,0.0,0.0,0.0,0.0,0.0,0.0,0.0,0.0,0.0,0.0,0.0,0.0,0.0,0.0,0.0,0.0,0.0,0.0,0.0,0.0,0.0,0.0,0.0,0.0,0.0,0.0,0.0,0.0,0.0,0.0,0.0,0.0,0.0,0.0,0.0,0.0,0.0,0.0,0.0,0.0,0.0,0.0,0.0,0.0,0.0,0.0,0.0,0.0,0.0,0.0,0.0,0.0,0.0,0.0,0.0,0.0,0.0,0.0,0.0,0.0,0.0,0.0,0.0,0.0,0.0,0.0,0.0,0.0,0.0,0.0,0.0,0.0,0.0,0.0,0.0,0.0,0.0,0.0,0.0,0.0,0.0,0.0,0.0,0.0,0.0,0.0,0.0,0.0,0.0,0.0,0.0,0.0,0.0,0.0,0.0,0.0,0.0,0.0,0.0,0.0,0.0,0.0,0.0,0.0,0.0,0.0,0.0,0.0,0.0,0.0,0.0,0.0,0.0,0.0,0.0,0.0,0.0,0.0,0.0,0.0,0.0,0.0,0.0,0.0,0.0,0.0,0.0,0.0,0.0,0.0,0.0,0.0,0.0,0.0,0.0,0.0,0.0,0.0,0.0,0.0,0.0,0.0,0.0,0.0,0.0,0.0,0.0,0.0,0.0,0.0,0.0,0.0,0.0,0.0,0.0,0.0,0.0,0.0,0.0,0.0,0.0,0.0,0.0,0.0,0.0,0.0,0.0,0.0,0.0,0.0,0.0,0.0,0.0,0.0,0.0,0.0,0.0,0.0,0.0,0.0,0.0,0.0,0.0,0.0,0.0,0.0,0.0,0.0,0.0,0.0,0.0,0.0,0.0,0.0,0.0,0.0,0.0,0.0,0.0,0.0,0.0,0.0,0.0,0.0,0.0,0.0,0.0,0.0,0.0,0.0,0.0,0.0,0.0,0.0,0.0,0.0,0.0,0.0,0.0,0.0,0.0,0.0,0.0,0.0,0.0,0.0,0.0,0.0,0.0,0.0,0.0,0.0,0.0,0.0,0.0,0.0,0.0,0.0,0.0,0.0,0.0,0.0,0.0,0.0,0.0,0.0,0.0,0.0,0.0,0.0,0.0,0.0,0.0,0.0,0.0,0.0,0.0,0.0,0.0,0.0,0.0,0.0,0.0,0.0,0.0,0.0,0.0,0.0,0.0,0.0,0.0,0.0,0.0,0.0,0.0,0.0,0.0,0.0,0.0,0.0,0.0,0.0,0.0,0.0,0.0,0.0,0.0,0.0,0.0,0.0,0.0,0.0,0.0,0.0,0.0,0.0,0.0,0.0,0.0,0.0,0.0,0.0,0.0,0.0,0.0,0.0,0.0,0.0,0.0,0.0,0.0,0.0,0.0,0.0,0.0,0.0,0.0,0.0,0.0,0.0,0.0,0.0,0.0,0.0,0.0,0.0,0.0,0.0,0.0,0.0,0.0,0.0,0.0,0.0,0.0,0.0,0.0,0.0,0.0,0.0,0.0,0.0,0.0,0.0,0.0,0.0,0.0,0.0,0.0,0.0,0.0,0.0,0.0,0.0,0.0,0.0,0.0,0.0,0.0,0.0,0.0,0.0,0.0,0.0,0.0,0.0,0.0,0.0,0.0,0.0,0.0,0.0,0.0,0.0,0.0,0.0,0.0,0.0,0.0,0.0,0.0,0.0,0.0,0.0,0.0,0.0,0.0,0.0,0.0,0.0,0.0,0.0,0.0,0.0,0.0,0.0,0.0,0.0,0.0,0.0,0.0,0.0,0.0,0.0,0.0,0.0,0.0,0.0,0.0,0.0,0.0,0.0,0.0,0.0,0.0,0.0,0.0,0.0,0.0,0.0,0.0,0.0,0.0,0.0,0.0,0.0,0.0,0.0,0.0,0.0,0.0,0.0,0.0,0.0,0.0,0.0,0.0,0.0,0.0,0.0,0.0,0.0,0.0,0.0,0.0,0.0,0.0,0.0,0.0,0.0,0.0,0.0,0.0,0.0,0.0,0.0,0.0,0.0,0.0,0.0,0.0,0.0,0.0,0.0,0.0,0.0,0.0,0.0,0.0,0.0,0.0,0.0,0.0,0.0,0.0,0.0,0.0,0.0,0.0,0.0,0.0,0.0,0.0,0.0,0.0,0.0,0.0,0.0,0.0,0.0,0.0,0.0,0.0,0.0,0.0,0.0,0.0,0.0,0.0,0.0,0.0,0.0,0.0,0.0,0.0,0.0,0.0,0.0,0.0,0.0,0.0,0.0,0.0,0.0,0.0,0.0,0.0,0.0,0.0,0.0,0.0,0.0,0.0,0.0,0.0,0.0,0.0,0.0,0.0,0.0,0.0,0.0,0.0,0.0,0.0,0.0,0.0,0.0,0.0,0.0,0.0,0.0,0.0,0.0,0.0,0.0,0.0,0.0,0.0,0.0,0.0,0.0,0.0,0.0,0.0,0.0,0.0,0.0,0.0,0.0,0.0,0.0,0.0,0.0,0.0,0.0,0.0,0.0,0.0,0.0,0.0,0.0,0.0,0.0,0.0,0.0,0.0,0.0,0.0,0.0,0.0,0.0,0.0,0.0,0.0,0.0,0.0,0.0,0.0,0.0,0.0,0.0,0.0,0.0,0.0,0.0,0.0,0.0,0.0,0.0,0.0,0.0,0.0,0.0,0.0,0.0,0.0,0.0,0.0,0.0,0.0,0.0,0.0,0.0,0.0,0.0,0.0,0.0,0.0,0.0,0.0,0.0,0.0,0.0,0.0,0.0,0.0,0.0,0.0,0.0,0.0,0.0,0.0,0.0,0.0,0.0,0.0,0.0,0.0,0.0,0.0,0.0,0.0,0.0,0.0,0.0,0.0,0.0,0.0,0.0,0.0,0.0,0.0,0.0,0.0,0.0,0.0,0.0,0.0,0.0,0.0,0.0,0.0,0.0,0.0,0.0,0.0,0.0,0.0,0.0,0.0,0.0,0.0,0.0,0.0,0.0,0.0,0.0,0.0,0.0,0.0,0.0,0.0,0.0,0.0,0.0,0.0,0.0,0.0,0.0,0.0,0.0,0.0,0.0,0.0,0.0,0.0,0.0,0.0,0.0,0.0,0.0,1.745,0.0,0.0,0.0,0.0,0.0,0.0,0.0,0.0,0.0,0.0,0.0,0.0,0.0,0.0,0.0,0.0,0.0,0.0,0.0,0.0,0.0,0.0,0.0,0.0,0.0,0.0,0.0,0.0,0.0,0.0,0.0,0.0,0.0,0.0,0.0,0.0,0.0,0.0,0.0,0.0,0.0,0.0,0.0,0.0,0.0,0.0,0.0,0.0,0.0,0.0,0.0,0.0,0.0,0.0,0.0,0.0,0.0,0.0,0.0,0.0,0.0,0.0,0.0,0.0,0.0,0.0,0.0,0.0,0.0,0.0,0.0,0.0,0.0,0.0,0.0,0.0,0.0,0.0,0.0,0.0,0.0,0.0,0.0,0.0,0.0,0.0,0.0,0.0,0.0,0.0,0.0,0.0,0.0,0.0,0.0,0.0,0.0,0.0,0.0,0.0,0.0,0.0,0.0,0.0,0.0,0.0,0.0,0.0,0.0,0.0,0.0,0.0,0.0,0.0,0.0,0.0,1.78,0.0,0.0,0.0,0.0,0.0,0.0,0.0,0.0,0.0,0.0,0.0,0.0,0.0,0.0,0.0,0.0,0.0,0.0,0.0,0.0,0.0,0.0,0.0,0.0,0.0,0.0,0.0,0.0,0.0,0.0,0.0,0.0,0.0,0.0,0.0,0.0,0.0,0.0,0.0,0.0,0.0,0.0,0.0,0.0,0.0,0.0,0.0,0.0,0.0,0.0,0.0,0.0,0.0,0.0,0.0,0.0,0.0,0.0,0.0,0.0,0.0,0.0,0.0,0.0,0.0,0.0,0.0,0.0,0.0,0.0,0.0,0.0,0.0,0.0,0.0,0.0,0.0,0.0,0.0,0.0,0.0,0.0,0.0,0.0,0.0,0.0,0.0,0.0,0.0,0.0,0.0,0.0,0.0,0.0,0.0,0.0,0.0,0.0,0.0,0.0,0.0,0.0,0.0,0.0,0.0,0.0,0.0,0.0,1.78,1.78,1.78,1.78,1.78,1.78,1.78,1.78,1.78,0.0,0.0,0.0,0.0,0.0,0.0,0.0,0.0,0.0,0.0,0.0,0.0,0.0,0.0,0.0,0.0,0.0,0.0,0.0,0.0,0.0,0.0,0.0,0.0,0.0,0.0,0.0,0.0,0.0,0.0,0.0,0.0,0.0,0.0,0.0,0.0,0.0,0.0,0.0,0.0882,0.1285,0.1535,0.1702,0.2798,0.0,0.0,0.0,0.0,0.0,0.0,0.0,0.0,0.0,0.0,0.0,0.0,0.0,0.0,0.0,0.0,0.0,0.0,0.0,0.0,0.0,0.0,0.0,0.0,0.0,0.0,0.0,0.0,0.0,0.0,0.0,0.0,0.0,0.0,0.0,0.0,0.0,0.0,0.0,0.0,0.0,0.0,0.0,1.4351,1.4351,0.0,0.0,0.0,0.0,0.0,0.0,0.0,0.0,0.0,0.0,0.0,0.0,0.0,1.78,1.78,1.78,1.78,1.78,1.78,1.78,1.78,1.78,1.78,1.78,1.78,0.0,1.78,1.78,0.0,0.0,0.0,0.0,0.0,0.0,0.0,0.0,0.0,0.0,0.0,0.0,0.0,0.0,0.0,0.0,0.0,0.0,0.0,0.0,0.0,0.0,0.0,0.0,0.0,0.0,0.0,0.0,0.0,0.0,0.0,0.0,0.0,0.0,0.0,0.0,0.0203,0.0363,0.0215,0.0958,0.135,0.1465,0.231,0.2976,0.3505,0.4114,0.0,0.0,0.0,0.0,0.0,0.0,0.0,0.0,0.0,0.0,0.0,0.0,0.0,0.0,0.0,0.0,0.0,0.0,0.0,0.0,0.0,0.0,0.0,0.0,0.0,0.0,0.0,0.0,0.0,0.0,0.0,0.0,0.0,0.0,0.0,0.0,0.0,0.0,0.0,1.4648,1.5122,1.5122,1.5774,1.6214,0.0,0.0,0.0,0.0,0.0,0.0,0.0,0.0,0.0,1.78,1.78,1.78,1.78,1.78,1.78,1.78,1.78,1.78,1.78,1.78,1.78,1.78,1.78,1.78,1.78,1.78,1.78,1.78,0.0,0.0,0.0,0.0,1.78,1.78,0.0,0.0,0.0,0.0,0.0,0.0,0.0,0.0,0.0,0.0,0.0,0.0,0.0,0.0,0.0,-0.2238,0.0,0.0,0.0,0.0,0.0,0.0,0.0,0.0,0.0,0.0,0.0,-0.166,-0.0957,-0.06,-0.0587,0.0324,0.081,0.0992,0.1599,0.2384,0.3279,0.3859,0.4249,0.0,0.0,0.0,0.0,0.0,0.0,0.0,0.0,0.0,0.0,0.0,0.0,0.0,0.0,0.0,0.0,0.0,0.0,0.0,0.0,0.0,0.0,0.0,0.0,0.0,0.0,0.0,0.0,0.0,0.0,0.0,0.0,0.0,0.0,0.0,0.0,0.0,0.0,1.5426,1.5876,1.5876,1.6536,1.6976,0.0,0.0,0.0,0.0,0.0,0.0,1.78,1.78,1.78,1.78,1.78,1.78,1.78,1.78,1.78,1.78,1.7986,1.8082,1.8087,1.8273,1.8358,1.8358,1.8358,1.8358,1.8341,1.7952,1.78,1.78,1.78,1.78,1.7817,1.8003,1.8082,1.8104,0.0,0.0,0.0,0.0,0.0,0.0,0.0,0.0,0.0,0.0,0.0,0.0,0.0,0.0,-0.3984,-0.4651,-0.4709,-0.4404,0.0,0.0,0.0,0.0,0.0,0.0,0.0,0.0,0.0,-0.1786,-0.1748,-0.1723,-0.1707,-0.1088,-0.0488,0.0088,0.0688,0.1461,0.2333,0.3379,0.397,0.4257,0.0,0.0,0.0,0.0,0.0,0.0,0.0,0.0,0.0,0.0,0.0,0.0,0.0,0.0,0.0,0.0,0.0,0.0,0.0,0.0,0.0,0.0,0.0,0.0,0.0,0.0,0.0,0.0,0.0,0.0,0.0,0.0,0.0,0.0,0.0,0.0,0.0,0.0,0.0,1.6648,1.7304,0.0,0.0,0.0,0.0,1.78,1.78,1.78,1.78,1.78,1.78,1.78,1.78,1.78,1.78,1.78,1.78,1.78,1.8504,1.8843,1.8872,1.9575,1.9883,1.9883,1.9883,1.9883,1.9782,1.8374,1.78,1.78,1.78,1.78,1.7884,1.8589,1.8843,1.8944,0.0,0.0,0.0,0.0,0.0,0.0,0.0,0.0,0.0,0.0,0.0,0.0,0.0,-0.4117,-0.4187,-0.4853,-0.4902,-0.4784,-0.4487,0.0,0.0,0.0,0.0,0.0,0.0,0.0,-0.3931,-0.3935,-0.3225,-0.2887,-0.2863,-0.1916,-0.1361,-0.1114,-0.0111,0.0504,0.0891,0.2611,0.3769,0.4514,0.5245,0.602,0.0,0.0,0.0,0.0,0.0,0.0,0.0,0.0,0.0,0.0,0.0,0.0,0.0,0.0,0.0,0.0,0.0,0.0,0.0,0.0,0.0,0.0,0.0,0.0,0.0,0.0,0.0,0.0,0.0,0.0,0.0,0.0,0.0,0.0,0.0,0.0,0.0,1.7405,1.7789,0.0,1.7822,1.796,1.7992,1.7811,1.78,1.78,1.78,1.78,1.78,1.78,1.78,1.78,1.78,1.8268,1.8504,1.8521,1.9253,1.9608,1.9625,1.9879,2.0002,2.0002,2.0002,2.0002,1.9951,1.9439,1.9208,1.9208,1.9208,1.9208,1.9253,1.9507,1.9608,1.9642,0.0,0.0,0.0,0.0,0.0,0.0,0.0,0.0,0.0,0.0,0.0,-0.4284,-0.4782,-0.4728,-0.4904,-0.5552,-0.5603,-0.564,-0.5737,0.0,0.0,0.0,0.0,0.0,0.0,-0.5191,-0.5163,-0.5163,-0.4448,-0.4113,-0.4091,-0.2929,-0.2379,-0.2313,-0.0913,-0.0201,0.0111,0.1896,0.3211,0.4175,0.5165,0.5958,0.6638,0.0,0.0,0.0,0.0,0.0,0.0,0.0,0.0,0.0,0.0,0.0,0.0,0.0,0.0,0.0,0.0,0.0,0.0,0.0,0.0,0.0,0.0,0.0,0.0,0.0,0.0,0.0,0.0,0.0,0.0,0.0,0.0,0.0,0.0,0.0,1.7816,1.7916,1.8082,1.8125,1.7949,1.811,1.8082,1.7822,1.78,1.78,1.78,1.78,1.78,1.78,1.8036,1.8166,1.8166,1.891,1.927,1.9283,2.0031,2.0403,2.0403,2.0673,2.0792,2.0792,2.0792,2.0792,2.0792,2.0792,2.0792,2.0711,2.0187,2.0002,2.0035,2.0302,2.0403,2.0437,0.0,0.0,0.0,0.0,0.0,0.0,0.0,0.0,0.0,0.0,-0.476,-0.5263,-0.5678,-0.5831,-0.6202,-0.6931,-0.7,-0.7121,-0.7397,-0.6501,0.0,0.0,0.0,0.0,-0.5986,-0.5607,-0.5389,-0.5373,-0.5367,-0.5351,-0.5303,-0.4113,-0.3544,-0.3456,-0.1738,-0.0647,0.0022,0.1225,0.226,0.3169,0.4409,0.5314,0.604,0.0,0.0,0.0,0.0,0.0,0.0,0.0,0.0,0.0,0.0,0.0,0.0,0.0,0.0,0.0,0.0,0.0,0.0,0.0,0.0,0.0,0.0,0.0,0.0,0.0,0.0,0.0,0.0,0.0,0.0,0.0,0.0,0.0,1.78,1.78,1.7894,1.8166,1.8198,1.8198,1.8198,1.8198,1.8082,1.7822,1.78,1.78,1.78,1.78,1.7817,1.7834,1.8538,1.891,1.8927,1.9676,2.0035,2.0052,2.0839,2.1224,2.1258,2.1972,2.2296,2.2296,2.2296,2.2296,2.2296,2.2296,2.2296,2.2144,2.0673,2.0069,2.017,2.0953,2.1241,2.1376,0.0,0.0,0.0,0.0,0.0,0.0,0.0,0.0,0.0,0.0,-0.527,-0.5521,-0.6271,-0.6208,-0.6349,-0.6951,-0.7,-0.7217,-0.7736,0.0,0.0,0.0,0.0,0.0,-0.7921,-0.7829,-0.7571,-0.7189,-0.6748,-0.6325,-0.5937,-0.5168,-0.4578,-0.4121,-0.3193,-0.2244,-0.1225,-0.0022,0.1127,0.234,0.4371,0.559,0.6324,0.0,0.0,0.0,0.0,0.0,0.0,0.0,0.0,0.0,0.0,0.0,0.0,0.0,0.0,0.0,0.0,0.0,0.0,0.0,0.0,0.0,0.0,0.0,0.0,0.0,0.0,0.0,0.0,0.0,0.0,0.0,0.0,1.78,1.78,1.78,1.7894,1.8166,1.8198,1.8198,1.8198,1.8198,1.8082,1.7822,1.78,1.78,1.78,1.78,1.8048,1.8589,1.8792,1.9164,1.9693,2.0483,2.0873,2.0873,2.1634,2.2006,2.2006,2.2212,2.2296,2.2296,2.2296,2.2296,2.2296,2.2296,2.2296,2.2262,2.184,2.1671,2.1688,2.1921,2.2344,2.2818,0.0,0.0,0.0,0.0,0.0,0.0,0.0,0.0,0.0,0.0,-0.5798,-0.6084,-0.652,-0.6538,-0.6852,-0.7641,-0.7502,-0.771,-0.8521,0.0,0.0,0.0,0.0,-0.8797,-0.9039,-0.8817,-0.8541,-0.8234,-0.7662,-0.7224,-0.6901,-0.606,-0.548,-0.5108,-0.4004,-0.3017,-0.2091,-0.0623,0.069,0.1962,0.3807,0.5084,0.6008,0.7143,0.8041,0.8779,0.9623,1.009,1.0389,1.0655,0.0,0.0,0.0,0.0,0.0,0.0,0.0,0.0,0.0,0.0,0.0,0.0,0.0,0.0,0.0,0.0,0.0,0.0,0.0,0.0,0.0,0.0,0.0,0.0,1.7523,1.78,1.78,1.7911,1.8078,1.8341,1.8469,1.8489,1.8381,1.8371,1.8208,1.7833,1.78,1.78,1.78,1.8087,1.8454,1.8888,1.9532,2.0061,2.05,2.1262,2.1651,2.1667,2.2107,2.2296,2.2296,2.2296,2.2296,0.0,2.2296,2.2194,2.2051,2.256,2.2632,0.0,0.0,0.0,0.0,0.0,2.3477,2.3864,0.0,0.0,0.0,0.0,0.0,0.0,0.0,0.0,0.0,0.0,0.0,-0.6771,-0.6688,-0.6943,-0.7542,-0.8614,-0.8255,-0.8419,0.0,0.0,0.0,-0.9597,-0.9179,-0.9191,-0.9648,-0.9211,-0.893,-0.8869,-0.8337,-0.8057,-0.7974,-0.6901,-0.6349,-0.6215,-0.4483,-0.3365,-0.2681,-0.0933,0.0534,0.1782,0.2885,0.4069,0.5324,0.6546,0.7624,0.8601,0.9263,1.0064,1.0825,1.0873,0.0,0.0,0.0,0.0,0.0,0.0,0.0,0.0,0.0,0.0,0.0,0.0,0.0,0.0,0.0,0.0,0.0,0.0,0.0,0.0,0.0,0.0,0.0,0.0,1.78,1.7811,1.7845,1.8089,1.833,1.8566,1.878,1.8825,1.8614,1.8547,1.831,1.7845,1.78,1.7834,1.7918,0.0,0.0,0.0,0.0,2.1241,2.1326,2.1972,2.2296,2.2296,2.2296,2.2296,2.2296,2.2296,2.2296,2.2296,2.2324,2.212,2.19,2.2981,2.3271,2.3072,2.3377,2.3511,2.3596,2.4254,2.4541,0.0,0.0,0.0,0.0,0.0,0.0,0.0,0.0,0.0,0.0,-0.6623,-0.6783,-0.7102,-0.765,-0.7764,-0.8039,-0.865,-0.8602,-0.8817,0.0,0.0,-1.0147,-1.0147,-1.0408,-1.061,-1.0715,-1.061,-1.035,-0.9904,-0.9421,-0.8958,-0.8533,-0.7884,-0.7308,-0.6784,-0.5524,-0.4356,-0.3256,-0.2001,-0.0467,0.1132,0.1847,0.3108,0.4757,0.6371,0.7396,0.8142,0.9531,1.0402,1.0951,1.1375,1.1672,1.1821,1.1641,0.0,0.0,0.0,0.0,0.0,0.0,0.0,0.0,0.0,0.0,0.0,0.0,0.0,0.0,0.0,0.0,0.0,0.0,0.0,0.0,1.7783,1.78,1.7889,1.8082,1.8351,1.8537,1.8585,1.845,1.842,1.8576,1.8208,1.7905,1.7811,1.78,1.8065,1.8657,1.8826,1.9481,2.0716,2.1038,2.1495,2.209,2.2243,2.2296,2.2296,0.0,0.0,2.2296,2.2296,2.2296,2.2316,2.247,2.2734,2.3074,2.3484,2.418,2.499,2.4477,2.4288,2.4305,2.444,2.488,2.5389,0.0,0.0,0.0,0.0,0.0,0.0,0.0,0.0,0.0,0.0,-0.7831,-0.8376,-0.8797,-0.8967,-0.9381,-1.0186,-1.0021,0.0,0.0,-1.0639,-1.0764,-1.1029,-1.1292,-1.1394,-1.1394,-1.1394,-1.114,-1.06,-1.0099,-0.9708,-0.9432,-0.8904,-0.8492,-0.8164,-0.7293,-0.5958,-0.4302,-0.3455,-0.172,0.0466,0.0779,0.1954,0.3748,0.5481,0.6666,0.7577,0.8947,0.9925,1.0677,1.1482,1.1934,1.2103,1.1865,1.2193,1.2583,0.0,0.0,0.0,0.0,0.0,0.0,0.0,0.0,0.0,0.0,0.0,0.0,0.0,0.0,1.6265,0.0,0.0,1.78,1.78,1.7905,1.8057,1.8177,1.8547,1.8798,1.8798,1.8771,1.8699,1.8604,1.8361,1.8082,1.7822,1.8138,1.8504,1.8877,1.9633,2.0395,2.1173,2.1563,2.1921,2.2296,2.2296,2.2296,2.2296,2.2296,2.2296,2.2313,2.2682,2.2852,2.2871,2.3338,2.3594,2.3677,2.4166,2.5063,2.6116,2.5743,2.5608,2.5608,2.5608,2.5828,2.615,0.0,0.0,0.0,0.0,0.0,0.0,0.0,0.0,0.0,0.0,0.0,-0.9745,-0.9949,-1.0319,-1.0946,0.0,0.0,0.0,0.0,-1.1627,-1.1546,-1.1898,-1.2006,-1.2018,-1.1938,-1.1938,-1.1682,-1.1169,-1.0608,-1.036,-1.033,-0.9798,-0.9553,-0.9514,-0.8603,-0.7148,-0.5317,-0.444,-0.257,-0.0156,0.0089,0.12,0.2893,0.4748,0.6095,0.7162,0.85,0.964,1.0666,1.1605,1.2182,1.2411,1.2103,1.2291,1.2594,1.2214,1.2154,0.0,0.0,0.0,0.0,0.0,0.0,0.0,0.0,1.4753,1.4984,1.5683,1.6333,1.6812,1.6902,1.7405,1.78,1.78,1.8035,1.8218,1.827,1.8679,1.9009,1.9052,1.9115,1.9014,1.8632,1.8508,1.827,1.7816,1.8488,1.8961,1.9113,2.0446,2.1258,2.141,2.1989,2.2296,2.2296,2.2296,2.2296,2.2296,2.2296,2.2381,2.2533,2.3122,2.3477,2.3646,2.4389,2.4558,2.4347,2.5045,2.5866,2.6691,2.6691,2.6691,2.6691,2.6691,2.6691,2.6691,0.0,0.0,0.0,0.0,0.0,0.0,0.0,0.0,0.0,0.0,0.0,0.0,0.0,0.0,0.0,0.0,0.0,0.0,-1.2866,-1.2815,-1.265,-1.2354,-1.2728,-1.2787,-1.2437,-1.2419,-1.2192,-1.1719,-1.1159,-1.0914,-1.0895,-1.036,-1.0108,-1.0012,-0.7977,-0.6679,-0.5854,-0.3774,-0.2085,-0.0709,0.0377,0.1554,0.2934,0.5177,0.6376,0.7189,0.929,1.0723,1.1708,1.2246,1.2719,1.2977,1.2232,1.2246,1.2465,1.2175,1.2154,1.2302,1.2822,1.2968,1.318,1.4136,1.4385,1.4571,0.0,1.566,1.5978,1.6479,1.6835,1.7183,1.7601,1.7732,1.78,1.78,1.8035,1.828,1.8518,1.8807,1.9069,1.9253,1.8912,1.866,1.8622,1.8166,1.785,1.78,1.8488,1.9198,1.9833,2.072,2.1512,2.2175,2.2245,2.2296,2.2296,2.2296,2.2296,2.2296,2.2296,2.2634,2.3274,2.3359,2.3763,2.4423,2.5152,2.5598,2.58,2.6302,2.6573,2.6691,2.6691,2.6691,2.6691,2.6691,2.6691,2.6691,0.0,0.0,0.0,0.0,0.0,0.0,0.0,0.0,0.0,0.0,0.0,0.0,0.0,0.0,0.0,0.0,0.0,0.0,-1.386,-1.3356,-1.3116,-1.3264,-1.3204,-1.3091,-1.2908,-1.2908,-1.2685,-1.221,-1.1982,-1.1872,-1.1872,-1.1353,-1.1129,-1.1092,-0.9829,-0.8274,-0.6489,-0.5174,-0.3373,-0.1313,-0.0111,0.1089,0.2381,0.4362,0.5847,0.7183,0.9399,1.0484,0.0,0.0,1.2589,1.262,1.2365,1.2429,1.259,1.2438,1.241,1.2632,1.3606,1.3875,1.4114,1.5112,1.5372,1.5532,1.6119,1.6332,1.6627,1.7411,1.7534,1.7616,1.7967,1.7922,1.78,0.0,1.8156,1.8469,1.8576,1.893,1.9214,1.9289,1.8886,1.8595,1.8595,1.84,1.8297,1.8426,1.9118,1.9879,2.0653,2.1414,2.1989,2.2279,2.2296,2.2296,2.2296,2.2296,2.2296,2.2296,2.2296,2.2699,2.341,2.3848,2.4677,2.5811,2.6099,2.6303,2.6419,2.6624,2.6691,2.6691,2.6691,2.6691,2.6691,2.6691,2.6691,2.6691,0.0,0.0,0.0,0.0,0.0,0.0,0.0,0.0,0.0,0.0,0.0,0.0,0.0,0.0,0.0,0.0,0.0,0.0,0.0,-1.4226,-1.3903,-1.4052,-1.3735,-1.3459,-1.3215,-1.3198,-1.2978,-1.2508,-1.2508,-1.2508,-1.249,-1.2156,-1.192,-1.1756,-1.0747,-0.9022,-0.6831,-0.5788,-0.3962,-0.1695,-0.0489,0.0734,0.2047,0.4238,0.577,0.7044,0.9355,1.0368,0.0,0.0,1.2585,1.2582,1.254,1.2623,1.2796,1.2957,1.3209,1.3624,1.4545,1.4862,1.5149,1.6078,1.636,1.6541,1.7011,1.7171,1.7418,1.8073,1.8093,1.8068,1.8177,1.8046,1.7905,1.7905,1.83,1.8641,1.8706,1.9058,1.9297,1.9297,1.8998,1.8753,1.8604,1.8469,1.852,1.8861,1.9575,2.0352,2.1156,2.1904,2.2296,2.2296,2.2296,2.2296,2.2296,2.2296,2.2296,2.2296,2.2513,2.2987,2.3746,2.4677,2.5692,2.6691,2.6691,2.6691,2.6691,2.6691,2.6691,2.6691,2.6691,2.6691,2.6691,2.6691,2.6691,2.6691,0.0,0.0,0.0,0.0,0.0,0.0,0.0,0.0,0.0,0.0,0.0,0.0,0.0,0.0,0.0,0.0,0.0,0.0,0.0,-1.5726,-1.5359,-1.4517,-1.447,-1.4052,-1.3215,-1.3198,-1.2978,-1.2508,-1.2508,-1.2508,-1.2508,-1.249,-1.2228,-1.1697,-0.9476,-0.7887,-0.6748,-0.4596,-0.2946,-0.1695,-0.0488,0.0732,0.2178,0.5535,0.6619,0.6644,0.9202,0.0,0.0,0.0,1.3059,1.3195,1.2731,1.2722,1.3054,1.3834,1.4744,1.5518,1.5561,1.5755,1.614,1.6877,1.7265,1.7586,1.8051,1.8356,1.8491,1.8249,1.84,1.8499,1.8249,1.8187,1.8187,1.8187,1.842,1.8697,1.8949,1.9174,1.9297,1.9297,1.9289,1.9097,0.0,1.8125,1.811,1.8843,1.9575,2.0352,2.1156,2.1904,2.2296,2.2296,2.2296,2.2296,2.2296,2.2296,2.2296,2.2296,2.3021,2.3763,2.4508,2.598,2.6674,2.6691,2.6691,2.6691,2.6691,2.6691,2.6691,2.6691,2.6691,2.6691,2.6691,2.6691,2.6691,2.6691,0.0,0.0,0.0,0.0,0.0,0.0,0.0,0.0,0.0,0.0,0.0,0.0,0.0,0.0,0.0,0.0,0.0,0.0,0.0,-1.5507,-1.5089,-1.4517,-1.4246,-1.3967,-1.3682,-1.3665,-1.3585,-1.3437,-1.3437,-1.3263,-1.2943,-1.2318,-1.1957,-1.1708,-0.951,-0.7916,-0.6741,-0.45,-0.2854,-0.1628,0.0378,0.1447,0.2063,0.4457,0.5901,0.6848,0.0,0.0,0.0,0.0,0.0,1.198,1.2453,1.2501,1.2665,1.4197,1.5217,1.6014,1.6674,1.6923,1.7179,1.7918,1.8168,1.8276,1.8436,1.84,1.841,1.8688,1.8381,1.8198,1.8659,1.829,1.8057,1.841,1.8537,1.8697,1.8958,1.9174,1.9297,1.9297,1.9182,0.0,0.0,0.0,0.0,1.9599,2.0348,2.1126,2.1887,2.2175,2.2296,2.2296,2.2296,2.2296,2.2296,2.2296,2.2547,2.3038,2.4272,2.4983,2.5253,2.6251,2.6691,2.6691,2.6691,2.6691,2.6691,2.6691,2.6691,2.6691,2.6691,2.6691,2.6691,2.6691,2.6691,2.6691,0.0,0.0,0.0,0.0,0.0,0.0,0.0,0.0,0.0,0.0,0.0,0.0,0.0,0.0,0.0,0.0,0.0,0.0,0.0,0.0,-1.5345,-1.4911,-1.4521,-1.4262,-1.4117,-1.41,-1.4035,-1.3901,-1.3901,-1.3665,-1.3181,-1.2407,-1.1957,-1.1689,-0.9343,-0.7769,-0.6741,-0.4255,-0.2673,-0.1582,0.082,0.185,0.221,0.4604,0.5951,0.0,0.0,0.0,0.0,0.0,0.0,1.2064,1.2667,1.3134,1.3749,1.5252,1.6201,1.6942,1.7692,1.7959,1.8146,1.8627,1.8798,1.8843,1.8761,1.8537,1.844,1.8789,1.8371,1.8125,1.8743,1.843,1.8229,1.8678,1.8743,1.8834,1.9067,1.923,1.9297,1.9297,1.919,1.9082,0.0,0.0,0.0,2.0001,2.0737,2.1529,2.2245,2.2296,2.2296,2.2296,2.2296,2.2296,2.2296,2.2564,2.3207,2.4205,2.5152,2.5728,2.6015,2.6471,2.6691,2.6691,2.6691,2.6691,2.6691,2.6691,2.6691,2.6691,2.6691,2.6691,2.6691,2.6691,2.686,2.7097,0.0,0.0,0.0,0.0,0.0,0.0,0.0,0.0,0.0,0.0,0.0,0.0,0.0,0.0,0.0,0.0,0.0,0.0,0.0,0.0,0.0,-1.5606,-1.5271,-1.4907,-1.4517,-1.4501,-1.431,-1.3934,-1.3917,-1.3665,-1.3168,-1.2685,-1.221,-1.1634,-0.8909,-0.7386,-0.6679,-0.3876,-0.2295,-0.147,0.0879,0.2017,0.2674,0.5915,0.0,0.0,0.0,0.0,0.0,1.157,1.2625,1.3313,1.3367,1.4546,1.6076,1.6896,1.7661,1.83,1.8547,1.8807,1.901,1.901,1.9142,1.9246,1.906,1.8807,1.8614,1.8614,1.84,1.829,1.8566,1.8595,1.8688,1.8966,1.9019,1.9077,1.9266,1.9297,1.9297,0.0,1.9297,0.0,0.0,0.0,0.0,2.0103,0.0,2.1563,2.2262,2.2296,2.2296,2.2296,2.2296,2.2313,2.2347,2.3122,2.4222,2.5592,2.5642,2.6031,2.6691,2.6691,2.6691,2.6691,2.6691,2.6691,2.6691,2.6691,2.6691,2.6691,2.6691,2.6691,2.6691,2.6742,2.7199,2.7824,0.0,0.0,0.0,0.0,0.0,0.0,0.0,0.0,0.0,0.0,0.0,0.0,0.0,0.0,0.0,0.0,0.0,0.0,0.0,0.0,0.0,0.0,0.0,0.0,0.0,0.0,0.0,0.0,0.0,-1.3626,-1.3115,-1.2348,-1.1689,-1.1102,-0.8808,-0.7189,-0.6079,-0.3709,-0.157,0.033,0.0,0.2859,0.4155,0.0,0.0,0.0,0.0,0.0,1.1222,1.1882,1.2633,1.3434,1.4178,1.5234,1.6394,1.7332,1.8189,1.8807,1.8887,1.8949,1.901,1.901,1.9035,1.9092,1.9206,1.9059,1.8905,1.8905,1.8528,1.8341,1.8807,1.8566,1.85,1.9123,1.9111,0.0,1.9266,1.9297,1.9297,1.9297,1.9297,1.9406,1.9676,2.0372,0.0,0.0,2.16,2.2107,2.2279,2.2296,2.2296,2.2296,2.2296,2.2564,2.3105,2.4408,2.5236,2.5609,2.6167,2.6522,2.6691,2.6691,2.6691,2.6691,2.6691,2.6691,2.6691,2.6691,2.6691,2.6691,2.6691,2.6691,2.6759,2.7334,2.7638,2.7959,0.0,0.0,0.0,0.0,0.0,0.0,0.0,0.0,0.0,0.0,0.0,0.0,0.0,0.0,0.0,0.0,0.0,0.0,0.0,0.0,0.0,0.0,0.0,0.0,0.0,0.0,0.0,0.0,0.0,0.0,0.0,-1.1984,-1.1159,-1.057,-0.8653,-0.7003,-0.5519,-0.3539,0.0,0.0,0.0,0.0,0.0,0.0,0.0,0.0,0.0,0.0,1.2509,1.2798,1.3252,1.3891,1.5098,1.5897,1.6645,1.7956,1.8648,1.9009,1.9119,1.9125,1.9125,1.9125,1.9125,1.9158,1.9266,1.9142,1.901,1.901,1.8566,1.8361,1.8905,1.8669,1.8577,1.9193,1.9214,1.9174,1.9282,1.9297,1.9297,1.9297,1.9601,1.9917,2.0162,2.0876,2.1429,0.0,2.2073,2.2296,2.2296,2.2296,2.2296,2.2296,2.2296,2.2818,2.3881,2.5017,2.5761,2.6099,2.6488,2.6691,2.6691,2.6691,2.6691,2.6691,0.0,2.6691,2.6691,2.6691,2.6691,2.6691,2.6691,2.6894,2.7232,2.7655,2.8229,2.8922,0.0,0.0,0.0,0.0,0.0,0.0,0.0,0.0,0.0,0.0,0.0,0.0,0.0,0.0,0.0,0.0,0.0,0.0,0.0,0.0,0.0,0.0,0.0,0.0,0.0,0.0,0.0,0.0,0.0,0.0,0.0,0.0,0.0,0.0,0.0,0.0,0.0,0.0,0.0,0.0,0.0,0.0,0.0,0.0,0.0,0.0,0.0,1.2275,1.3623,1.3824,1.4103,1.4607,1.5951,1.6524,1.7016,1.8575,1.9035,1.9086,1.9243,1.9297,1.9297,1.9297,1.9297,1.9297,1.9297,1.9166,1.9018,1.8958,1.8576,1.84,1.887,1.8761,1.8744,1.9227,1.9297,1.9297,1.9297,1.9297,1.9297,1.9297,1.9997,2.058,2.0778,2.1529,2.2075,2.2284,2.2296,2.2296,2.2296,2.2296,2.233,2.2431,2.2533,2.3241,2.4626,2.5372,2.6065,2.6691,2.6691,2.6691,2.6691,2.6691,2.6691,2.6691,0.0,0.0,2.6691,2.6691,2.6691,2.6708,2.681,2.7249,2.7824,2.8027,2.8939,3.0106,0.0,0.0,0.0,0.0,0.0,0.0,0.0,0.0,0.0,0.0,0.0,0.0,0.0,0.0,0.0,0.0,0.0,0.0,0.0,0.0,0.0,0.0,0.0,0.0,0.0,0.0,0.0,0.0,0.0,0.0,0.0,0.0,0.0,0.0,0.0,0.0,0.0,0.0,0.0,0.0,0.0,0.0,0.0,0.0,0.0,0.0,1.1691,1.2841,1.3623,1.3824,1.448,1.5379,1.6456,1.7278,1.8002,1.8961,1.9243,1.9269,1.9289,1.9297,1.9297,1.9297,1.9297,1.9297,1.9297,1.9266,1.914,1.8744,1.8612,1.8556,1.8642,1.8623,1.8744,1.9227,1.9297,1.9297,1.9297,1.9297,1.9297,1.9297,1.9997,2.0571,2.0781,2.1536,0.0,0.0,0.0,2.2296,2.2296,2.2296,2.2581,2.319,2.3814,2.4526,2.5406,2.6133,2.6573,2.6691,2.6691,2.6691,2.6691,2.6691,2.6691,2.6691,2.6691,0.0,2.6691,2.6691,2.6691,2.6759,2.7367,2.7689,2.7959,2.9227,2.9869,3.0192,0.0,0.0,0.0,0.0,0.0,0.0,0.0,0.0,0.0,0.0,0.0,0.0,0.0,0.0,0.0,0.0,0.0,0.0,0.0,0.0,0.0,0.0,0.0,0.0,0.0,0.0,0.0,0.0,0.0,0.0,0.0,0.0,0.0,0.0,0.0,0.0,0.0,0.0,0.0,0.0,0.0,0.0,0.0,0.0,0.0,0.0,0.0,1.3244,1.3623,1.3824,1.457,1.5574,1.6586,1.744,1.8262,1.9058,1.9297,1.9297,1.9297,1.9297,1.9297,1.9297,1.9297,1.9297,1.9297,1.9297,1.9243,1.9006,1.878,1.8679,1.8912,1.8753,1.8744,1.9227,1.9297,1.9297,1.9297,1.9297,1.9297,1.9297,2.0409,2.108,2.082,2.2067,2.2729,2.2332,2.244,2.2453,2.231,2.2651,2.3038,2.3376,2.4492,2.5236,2.5592,2.6336,2.6691,2.6691,2.6691,2.6691,2.6691,2.6691,2.6691,2.6691,2.6691,0.0,2.6691,2.6691,2.6928,2.73,2.7655,2.8297,2.9092,2.9818,3.0345,3.0717,0.0,0.0,0.0,0.0,0.0,0.0,0.0,0.0,0.0,0.0,0.0,0.0,0.0,0.0,0.0,0.0,0.0,0.0,0.0,0.0,0.0,0.0,0.0,0.0,0.0,0.0,0.0,0.0,0.0,0.0,0.0,0.0,0.0,0.0,0.0,0.0,0.0,0.0,0.0,0.0,0.0,0.0,0.0,0.0,0.0,0.0,0.0,1.3494,1.3623,1.3824,1.457,1.5574,1.6586,1.744,1.8262,1.9058,1.9327,1.935,1.9305,1.9327,1.935,1.9305,1.9297,1.9297,1.9297,1.9297,1.9282,1.9235,1.8904,1.8734,1.9156,1.8895,1.8744,1.9227,1.9297,1.9297,1.9297,1.9297,1.9297,1.9297,2.0784,2.1534,2.0877,2.2558,0.0,2.2363,0.0,0.0,2.2544,2.3088,2.3545,2.3849,2.5,2.5693,2.5845,2.6404,2.6691,2.6691,2.6691,2.6691,2.6691,2.6691,2.6691,2.6691,2.6691,0.0,0.0,2.686,2.7266,2.7841,2.8162,2.9024,3.0125,3.0294,3.07,3.119,0.0,0.0,0.0,0.0,0.0,0.0,0.0,0.0,0.0,0.0,0.0,0.0,0.0,0.0,0.0,0.0,0.0,0.0,0.0,0.0,0.0,0.0,0.0,0.0,0.0,0.0,0.0,0.0,0.0,0.0,0.0,0.0,0.0,0.0,0.0,0.0,0.0,0.0,0.0,0.0,0.0,0.0,0.0,0.0,0.0,0.0,0.0,1.3494,1.3623,1.3824,1.457,1.5574,1.6586,1.744,1.8262,1.9058,1.9435,1.9534,1.9342,1.9423,1.9527,1.9342,1.9297,1.9297,1.9297,1.9297,1.9243,1.9069,1.8798,1.8697,1.8975,1.8798,1.8744,1.9227,1.9297,1.9297,1.9297,1.9297,1.9297,1.9297,2.0784,2.1534,2.0877,2.2558,2.3306,2.2363,0.0,0.0,2.3257,2.3359,2.4002,2.5372,2.5525,2.593,2.659,2.6657,2.6691,2.6691,2.6691,2.6691,2.6691,2.6691,2.6691,2.6691,2.6691,0.0,0.0,2.7418,2.7739,2.7942,2.9328,2.9989,3.0192,3.0852,3.114,3.119,0.0,0.0,0.0,0.0,0.0,0.0,0.0,0.0,0.0,0.0,0.0,0.0,0.0,0.0,0.0,0.0,0.0,0.0,0.0,0.0,0.0,0.0,0.0,0.0,0.0,0.0,0.0,0.0,0.0,0.0,0.0,0.0,0.0,0.0,0.0,0.0,0.0,0.0,0.0,0.0,0.0,0.0,0.0,0.0,0.0,0.0,0.0,0.0,1.3623,1.3824,1.4252,1.4854,1.5861,1.6732,1.7631,1.893,1.9431,1.9555,1.935,1.9456,1.9548,1.9342,1.9297,1.9297,1.9297,1.9297,1.9274,1.9206,1.9,1.8905,1.9142,1.8991,1.8948,1.9251,1.9297,1.9297,1.9297,1.9297,1.9297,1.9297,2.0784,2.1616,0.0,0.0,2.3689,2.2895,0.0,0.0,2.4,2.4068,2.4526,2.5575,2.6031,2.6404,2.6691,2.6691,2.6691,2.6691,2.6691,2.6691,2.6691,2.6691,2.6691,2.6691,2.6691,0.0,0.0,2.7503,2.8077,2.8619,2.9702,3.0378,3.0801,3.1089,3.119,3.119,0.0,0.0,0.0,0.0,0.0,0.0,0.0,0.0,0.0,0.0,0.0,0.0,0.0,0.0,0.0,0.0,0.0,0.0,0.0,0.0,0.0,0.0,0.0,0.0,0.0,0.0,0.0,0.0,0.0,0.0,0.0,0.0,0.0,0.0,0.0,0.0,0.0,0.0,0.0,0.0,0.0,0.0,0.0,0.0,0.0,0.0,0.0,0.0,0.0,0.0,0.0,1.4453,1.5404,1.6096,1.686,1.8463,1.9288,1.9604,1.9365,1.9481,1.9597,1.9357,1.9297,1.9297,1.9297,1.9297,1.9282,1.9212,1.9111,1.9043,1.919,1.9102,1.9069,1.9259,1.9297,1.9297,1.9297,1.9297,1.9297,1.9297,2.0784,2.1679,2.1329,2.2793,2.3599,0.0,0.0,0.0,2.4423,2.4491,2.4948,2.5896,2.642,2.6691,2.6691,2.6691,2.6691,2.6691,2.6691,2.6691,2.6691,2.6691,2.6691,2.6691,0.0,0.0,0.0,2.7841,2.8619,2.9416,3.0142,3.0734,3.119,3.119,3.119,3.119,0.0,0.0,0.0,0.0,0.0,0.0,0.0,0.0,0.0,0.0,0.0,0.0,0.0,0.0,0.0,0.0,0.0,0.0,0.0,0.0,0.0,0.0,0.0,0.0,0.0,0.0,0.0,0.0,0.0,0.0,0.0,0.0,0.0,0.0,0.0,0.0,0.0,0.0,0.0,0.0,0.0,0.0,0.0,0.0,0.0,0.0,0.0,0.0,0.0,0.0,0.0,0.0,0.0,1.5717,1.6029,1.7638,1.8919,1.9719,1.9383,1.9533,1.9713,1.9376,1.9297,1.9297,1.9297,1.9297,1.9235,1.9043,1.8992,1.8992,1.8992,1.8992,1.9069,1.9259,1.9297,1.9297,1.9297,1.9297,1.9297,1.9297,2.0784,2.1679,2.1329,2.2171,2.286,0.0,0.0,0.0,2.4423,2.4491,2.5168,2.664,2.6691,2.6691,2.6691,2.6691,2.6691,2.6691,2.6691,2.6691,2.6691,2.6691,2.6691,0.0,0.0,0.0,0.0,2.8653,2.9414,3.0176,3.0903,3.119,3.119,3.119,3.119,3.119,0.0,0.0,0.0,0.0,0.0,0.0,0.0,0.0,0.0,0.0,0.0,0.0,0.0,0.0,0.0,0.0,0.0,0.0,0.0,0.0,0.0,0.0,0.0,0.0,0.0,0.0,0.0,0.0,0.0,0.0,0.0,0.0,0.0,0.0,0.0,0.0,0.0,0.0,0.0,0.0,0.0,0.0,0.0,0.0,0.0,0.0,0.0,0.0,0.0,0.0,0.0,0.0,0.0,0.0,0.0,1.6316,1.7584,1.879,1.8554,1.9054,1.9604,1.9365,1.9297,1.9297,1.9297,1.9297,1.9274,1.9222,1.9214,1.9214,1.9214,1.9214,1.9238,1.9289,1.9297,1.9297,1.9297,1.9297,1.9297,1.9297,2.0784,2.219,0.0,0.0,0.0,0.0,0.0,0.0,2.4423,2.4491,2.5185,2.664,2.6691,2.6691,2.6691,2.6691,2.6691,2.6691,2.6691,2.6691,2.6691,2.6691,0.0,0.0,0.0,0.0,0.0,2.8671,2.9431,3.0176,3.0903,3.119,3.119,3.119,3.119,3.119,0.0,0.0,0.0,0.0,0.0,0.0,0.0,0.0,0.0,0.0,0.0,0.0,0.0,0.0,0.0,0.0,0.0,0.0,0.0,0.0,0.0,0.0,0.0,0.0,0.0,0.0,0.0,0.0,0.0,0.0,0.0,0.0,0.0,0.0,0.0,0.0,0.0,0.0,0.0,0.0,0.0,0.0,1.0579,0.0,0.0,0.0,0.0,0.0,0.0,0.0,0.0,0.0,0.0,0.0,0.0,0.0,1.6263,1.7417,1.7592,1.8384,1.9097,1.8901,1.9077,1.9297,1.9297,1.9297,1.9274,1.9206,1.9261,1.9274,1.9206,1.9243,1.9297,1.9297,1.9297,1.9297,1.9297,1.9297,1.9536,2.016,2.1427,0.0,0.0,2.3522,0.0,0.0,0.0,0.0,2.4423,2.4491,2.5185,2.664,2.6691,2.6691,2.6691,2.6691,2.6691,2.6691,2.6691,2.6691,2.6691,2.6691,0.0,0.0,0.0,0.0,0.0,2.9093,2.9854,3.0565,3.1021,3.119,3.119,3.119,3.119,3.119,0.0,0.0,0.0,0.0,0.0,0.0,0.0,0.0,0.0,0.0,0.0,0.0,0.0,0.0,0.0,0.0,0.0,0.0,0.0,0.0,0.0,0.0,0.0,0.0,0.0,0.0,0.0,0.0,0.0,0.0,0.0,0.0,0.0,0.0,0.0,0.0,0.0,0.0,0.0,0.0,0.0,0.0,0.0,0.0,0.0,0.0,0.0,0.0,0.0,0.0,0.0,0.0,0.0,0.0,0.0,0.0,0.0,0.0,0.0,1.7496,1.826,1.8066,1.861,1.9205,1.9205,1.926,0.0,1.906,1.9174,1.9235,1.906,1.9174,1.9297,1.9297,1.9297,1.9297,1.9297,1.9352,1.9995,0.0,2.252,0.0,2.3652,0.0,0.0,0.0,0.0,0.0,2.4423,2.4541,2.5235,2.6674,2.6691,2.6691,2.6691,2.6691,2.6691,2.6691,2.6691,2.6691,2.6691,2.6691,0.0,0.0,0.0,0.0,0.0,2.9803,3.0531,3.119,3.119,3.119,3.119,3.119,3.119,3.119,0.0,0.0,0.0,0.0,0.0,0.0,0.0,0.0,0.0,0.0,0.0,0.0,0.0,0.0,0.0,0.0,0.0,0.0,0.0,0.0,0.0,0.0,0.0,0.0,0.0,0.0,0.0,0.0,0.0,0.0,0.0,0.0,0.0,0.0,0.0,0.0,0.0,0.0,0.0,0.0,0.0,0.0,0.0,0.0,0.0,0.0,1.2889,1.3192,0.0,0.0,0.0,0.0,0.0,0.0,0.0,0.0,1.4622,0.0,1.5007,0.0,1.7244,1.7197,1.7796,1.839,0.0,1.8849,1.9282,1.9227,1.9259,1.9282,1.9246,1.9266,1.9297,1.9297,1.9297,1.9297,1.9297,1.984,0.0,2.1666,2.252,2.3177,2.3652,0.0,0.0,0.0,0.0,2.3528,2.444,2.5033,2.5761,2.6657,2.6691,2.6691,2.6691,2.6691,2.6691,2.6691,2.6691,2.6691,2.6691,2.6691,0.0,0.0,0.0,0.0,2.9061,2.9803,3.0531,3.119,3.119,3.119,3.119,3.119,3.119,3.119,0.0,0.0,0.0,0.0,0.0,0.0,0.0,0.0,0.0,0.0,0.0,0.0,0.0,0.0,0.0,0.0,0.0,0.0,0.0,0.0,0.0,0.0,0.0,0.0,0.0,0.0,0.0,0.0,0.0,0.0,0.0,0.0,0.0,0.0,0.0,0.0,0.0,0.0,0.0,0.0,0.0,0.0,0.0,0.0,0.0,0.0,1.2722,1.2988,0.0,1.3437,1.3611,1.3788,0.0,0.0,0.0,0.0,1.4435,0.0,1.4387,1.5336,1.6346,1.6346,1.7227,1.8089,1.8089,1.872,1.9297,1.9297,1.9297,1.9297,1.9297,1.9297,1.9297,1.9297,1.9297,1.9426,1.9803,2.0574,2.1418,2.2244,2.307,2.3522,0.0,0.0,0.0,0.0,0.0,2.3714,2.4457,2.5203,2.5947,2.6674,2.6691,2.6691,2.6691,2.6691,2.6691,2.6691,2.6691,2.6691,2.6691,2.6691,2.6691,0.0,0.0,0.0,2.9077,3.0159,3.0835,3.119,3.119,3.119,3.119,3.119,3.119,3.119,0.0,0.0,0.0,0.0,0.0,0.0,0.0,0.0,0.0,0.0,0.0,0.0,0.0,0.0,0.0,0.0,0.0,0.0,0.0,0.0,0.0,0.0,0.0,0.0,0.0,0.0,0.0,0.0,0.0,0.0,0.0,0.0,0.0,0.0,0.0,0.0,0.0,0.0,0.0,0.0,0.0,0.0,0.0,0.0,0.0,0.0,0.0,0.0,0.0,1.346,1.3586,1.3653,1.3997,0.0,0.0,0.0,0.0,0.0,1.4251,1.4927,1.568,1.5551,1.6738,1.7924,1.7924,1.8629,1.9297,1.9297,1.9297,1.9297,1.9297,1.9297,1.9297,1.9297,1.9297,0.0,2.0401,2.1253,2.2106,2.2896,2.3675,0.0,0.0,0.0,0.0,0.0,0.0,2.3848,2.4457,2.5304,2.6048,2.6674,2.6691,2.6691,2.6691,2.6691,2.6691,2.6691,2.6691,2.6691,2.6691,2.6691,2.6759,0.0,0.0,0.0,2.9281,3.0632,3.119,3.119,3.119,3.119,3.119,3.119,3.119,3.119,0.0,0.0,0.0,0.0,0.0,0.0,0.0,0.0,0.0,0.0,0.0,0.0,0.0,0.0,0.0,0.0,0.0,0.0,0.0,0.0,0.0,0.0,0.0,0.0,0.0,0.0,0.0,0.0,0.0,0.0,0.0,0.0,0.0,0.0,0.0,0.0,0.0,0.0,0.0,0.0,0.0,0.0,0.0,0.0,0.0,0.0,0.0,0.0,0.0,1.3404,1.3509,1.36,1.3668,0.0,0.0,0.0,0.0,0.0,1.4201,1.4927,1.5551,1.4842,1.5881,1.7073,1.7073,1.8225,1.9297,1.9297,1.9297,1.9297,1.9297,1.9297,1.9297,1.9297,0.0,1.9583,0.0,0.0,2.2106,2.2896,0.0,0.0,0.0,0.0,0.0,0.0,0.0,2.4372,2.4491,2.5794,2.6573,2.6691,2.6691,2.6691,2.6691,2.6691,2.6691,2.6691,2.6691,2.6691,2.6691,2.6691,2.7046,0.0,0.0,2.9347,3.0006,3.0852,3.119,3.119,3.119,3.119,3.119,3.119,3.119,3.119,0.0,0.0,0.0,0.0,0.0,0.0,0.0,0.0,0.0,0.0,0.0,0.0,0.0,0.0,0.0,0.0,0.0,0.0,0.0,0.0,0.0,0.0,0.0,0.0,0.0,0.0,0.0,0.0,0.0,0.0,0.0,0.0,0.0,0.0,0.0,0.0,0.0,0.0,0.0,0.0,0.0,0.0,0.0,0.0,0.0,0.0,0.0,0.0,0.0,0.0,1.3493,1.3526,1.3709,0.0,0.0,0.0,0.0,0.0,1.4103,1.4523,1.5044,1.5,1.6287,1.7557,1.7557,1.8463,1.9297,1.9297,1.9297,1.9297,1.9297,1.9297,1.9297,1.9297,0.0,2.0244,2.1088,2.1914,2.2685,0.0,0.0,0.0,0.0,0.0,0.0,0.0,0.0,0.0,2.5067,2.6132,2.6691,2.6691,2.6691,2.6691,2.6691,2.6691,2.6691,2.6691,2.6691,2.6691,2.6691,2.6691,2.7114,2.7841,0.0,2.9414,3.0176,3.0903,3.119,3.119,3.119,3.119,3.119,3.119,3.119,3.119,0.0,0.0,0.0,0.0,0.0,0.0,0.0,0.0,0.0,0.0,0.0,0.0,0.0,0.0,0.0,0.0,0.0,0.0,0.0,0.0,0.0,0.0,0.0,0.0,0.0,0.0,0.0,0.0,0.0,0.0,0.0,0.0,0.0,0.0,0.0,0.0,0.0,0.0,0.0,0.0,0.0,0.0,0.0,0.0,0.0,0.0,0.0,0.0,0.0,0.0,0.0,0.0,0.0,0.0,0.0,0.0,1.4072,1.4325,1.419,1.4536,1.5095,1.577,1.6889,1.7869,1.8052,1.872,1.9297,1.9297,1.9297,1.9297,1.9297,1.9297,0.0,1.9476,2.0057,2.0834,2.1835,2.2548,2.3169,0.0,0.0,0.0,0.0,0.0,0.0,0.0,0.0,0.0,2.5321,2.6201,2.6691,2.6691,2.6691,2.6691,2.6691,2.6691,2.6691,2.6691,2.6691,2.6691,2.6691,2.6691,2.7215,2.8111,2.8721,2.9534,3.0395,3.097,3.119,3.119,3.119,3.119,3.119,3.119,3.119,3.119,0.0,0.0,0.0,0.0,0.0,0.0,0.0,0.0,0.0,0.0,0.0,0.0,0.0,0.0,0.0,0.0,0.0,0.0,0.0,0.0,0.0,0.0,0.0,0.0,0.0,0.0,0.0,0.0,0.0,0.0,0.0,0.0,0.0,0.0,0.0,0.0,0.0,0.0,0.0,0.0,0.0,0.0,0.0,0.0,0.0,0.0,0.0,0.0,0.0,0.0,0.0,0.0,0.0,0.0,0.0,0.0,1.3766,1.4094,1.474,1.5524,1.6385,1.7313,1.7253,1.7183,1.7924,1.872,1.9297,1.9297,1.9297,1.9297,1.9297,1.9297,1.9457,1.9966,2.0297,2.0958,2.2271,0.0,0.0,0.0,0.0,0.0,0.0,0.0,0.0,0.0,0.0,0.0,2.4575,0.0,0.0,2.6691,2.6691,2.6691,2.6691,2.6691,2.6691,2.6691,2.6691,2.6691,2.6691,2.6691,2.752,2.8925,2.8976,2.9822,3.1123,3.1173,3.119,3.119,3.119,3.119,3.119,3.119,3.119,3.119,0.0,0.0,0.0,0.0,0.0,0.0,0.0,0.0,0.0,0.0,0.0,0.0,0.0,0.0,0.0,0.0,0.0,0.0,0.0,0.0,0.0,0.0,0.0,0.0,0.0,0.0,0.0,0.0,0.0,0.0,0.0,0.0,0.0,0.0,0.0,0.0,0.0,0.0,0.0,0.0,0.0,0.0,0.0,0.0,0.0,0.0,0.0,0.0,0.0,0.0,1.2915,0.0,0.0,0.0,0.0,0.0,1.4061,1.4632,1.4814,1.5626,1.6608,1.7378,1.7602,1.7851,1.8665,1.9077,1.9297,1.9297,1.9297,1.9297,1.9297,1.9206,1.9372,2.0214,2.0743,2.1397,2.2365,0.0,0.0,0.0,0.0,0.0,0.0,0.0,0.0,0.0,0.0,0.0,0.0,0.0,0.0,2.6691,2.6691,2.6691,2.6691,2.6691,2.6691,2.6691,2.6691,2.6691,2.6708,2.7182,2.7977,2.9027,2.9482,3.026,3.119,3.119,3.119,3.119,3.119,3.119,3.119,3.119,3.119,3.1258,0.0,0.0,0.0,0.0,0.0,0.0,0.0,0.0,0.0,0.0,0.0,0.0,0.0,0.0,0.0,0.0,0.0,0.0,0.0,0.0,0.0,0.0,0.0,0.0,0.0,0.0,0.0,0.0,0.0,0.0,0.0,0.0,0.0,0.0,0.0,0.0,0.0,0.0,0.0,0.0,0.0,0.0,0.0,0.0,0.0,0.0,0.0,0.0,0.0,0.0,1.2992,0.0,0.0,0.0,0.0,0.0,0.0,1.5427,1.5471,1.614,1.6967,1.7559,1.8061,1.8523,1.9078,1.9251,1.9297,1.9297,1.9297,1.9274,1.9222,1.9275,0.0,0.0,2.126,2.1986,0.0,0.0,0.0,0.0,0.0,0.0,0.0,0.0,0.0,0.0,0.0,0.0,0.0,0.0,0.0,0.0,2.6691,2.6691,2.6691,2.6691,2.6691,2.6691,2.6691,2.6691,2.6725,2.7452,2.8247,2.9044,2.9786,3.0531,3.119,3.119,3.119,3.119,3.119,3.119,3.119,3.119,3.1343,3.1633,0.0,0.0,0.0,0.0,0.0,0.0,0.0,0.0,0.0,0.0,0.0,0.0,0.0,0.0,0.0,0.0,0.0,0.0,0.0,0.0,0.0,0.0,0.0,0.0,0.0,0.0,0.0,0.0,0.0,0.0,0.0,0.0,0.0,0.0,0.0,0.0,0.0,0.0,0.0,0.0,0.0,0.0,0.0,0.0,0.0,0.0,0.0,0.0,0.0,0.0,1.3001,1.3146,0.0,0.0,0.0,1.4727,1.553,1.6412,1.6866,1.7254,1.7613,1.8088,1.8622,1.901,1.901,1.915,1.9297,1.9297,1.9297,1.9246,1.9035,1.9606,0.0,2.0816,2.1795,0.0,0.0,0.0,0.0,0.0,0.0,0.0,0.0,0.0,0.0,0.0,0.0,0.0,0.0,0.0,0.0,0.0,2.6691,2.6691,2.6691,2.6691,2.6691,2.6691,2.6691,2.6691,2.6725,2.7469,2.8264,2.9044,2.9786,3.0531,3.119,3.119,3.119,3.119,3.119,3.119,3.119,3.1207,3.1684,3.2293,0.0,0.0,0.0,0.0,0.0,0.0,0.0,0.0,0.0,0.0,0.0,0.0,0.0,0.0,0.0,0.0,0.0,0.0,0.0,0.0,0.0,0.0,0.0,0.0,0.0,0.0,0.0,0.0,0.0,0.0,0.0,0.0,0.0,0.0,0.0,0.0,0.0,0.0,0.0,0.0,0.0,0.0,0.0,0.0,0.0,0.0,0.0,0.0,0.0,0.0,0.0,0.0,0.0,0.0,0.0,1.5333,1.5947,1.6652,1.6976,1.7514,1.8064,1.8407,1.8743,1.901,1.901,1.9043,1.9094,1.9094,1.9094,1.9077,1.9001,1.93,0.0,2.1058,2.1597,0.0,0.0,0.0,0.0,0.0,0.0,0.0,0.0,0.0,0.0,0.0,0.0,0.0,0.0,0.0,0.0,0.0,2.6691,2.6691,2.6691,2.6691,2.6691,2.6691,2.6691,2.6962,2.7503,2.8281,2.9059,2.982,3.0548,3.1004,3.119,3.119,3.119,3.119,3.119,3.119,3.1258,3.1785,3.2107,3.2446,0.0,0.0,0.0,0.0,0.0,0.0,0.0,0.0,0.0,0.0,0.0,0.0,0.0,0.0,0.0,0.0,0.0,0.0,0.0,0.0,0.0,0.0,0.0,0.0,0.0,0.0,0.0,0.0,0.0,0.0,0.0,0.0,0.0,0.0,0.0,0.0,0.0,0.0,0.0,0.0,0.0,0.0,0.0,0.0,0.0,0.0,0.0,0.0,0.0,0.0,0.0,0.0,1.4738,0.0,1.5701,1.5812,1.6532,1.7308,1.7353,1.7861,1.8351,1.83,1.8556,1.8807,1.8715,1.8913,1.9102,1.9027,1.901,1.9021,1.9107,1.9572,0.0,2.1309,0.0,0.0,0.0,0.0,0.0,0.0,0.0,0.0,0.0,0.0,0.0,0.0,0.0,0.0,0.0,0.0,0.0,0.0,2.6691,2.6691,2.6691,2.6691,2.6691,2.6691,2.6691,2.7249,2.8298,2.879,2.9397,3.0142,3.0886,3.119,3.119,3.119,3.119,3.119,3.119,3.119,3.1275,3.2039,3.2496,3.2899,0.0,0.0,0.0,0.0,0.0,0.0,0.0,0.0,0.0,0.0,0.0,0.0,0.0,0.0,0.0,0.0,0.0,0.0,0.0,0.0,0.0,0.0,0.0,0.0,0.0,0.0,0.0,0.0,0.0,0.0,0.0,0.0,0.0,0.0,0.0,0.0,0.0,0.0,0.0,0.0,0.0,0.0,0.0,0.0,0.0,0.0,0.0,0.0,0.0,0.0,0.0,0.0,1.4495,1.5098,1.5979,1.6233,1.7181,1.8131,1.7911,1.8166,1.842,1.7949,1.8198,1.8508,1.829,1.8753,1.918,1.8975,1.8931,1.9002,1.9254,2.0123,2.0993,0.0,0.0,0.0,0.0,0.0,0.0,0.0,0.0,0.0,0.0,0.0,0.0,0.0,0.0,0.0,0.0,0.0,0.0,2.6674,2.6691,2.6691,2.6691,2.6691,2.6691,0.0,2.6691,2.752,2.8993,2.8993,2.9431,3.0243,3.0903,3.119,3.119,3.119,3.119,3.119,3.119,3.119,3.1292,3.2107,3.2814,3.3525,0.0,0.0,0.0,0.0,0.0,0.0,0.0,0.0,0.0,0.0,0.0,0.0,0.0,0.0,0.0,0.0,0.0,0.0,0.0,0.0,0.0,0.0,0.0,0.0,0.0,0.0,0.0,0.0,0.0,0.0,0.0,0.0,0.0,0.0,0.0,0.0,0.0,0.0,0.0,0.0,0.0,0.0,0.0,0.0,0.0,0.0,0.0,0.0,0.0,0.0,0.0,0.0,1.5762,1.6371,1.6989,1.7054,1.745,1.7916,1.8061,1.8029,1.7992,1.8082,1.8198,1.833,1.8479,1.8642,1.8688,1.843,1.8371,1.8557,1.9195,1.9797,2.0504,0.0,0.0,0.0,0.0,0.0,0.0,0.0,0.0,0.0,0.0,0.0,0.0,0.0,0.0,0.0,0.0,0.0,0.0,2.6674,2.6691,2.6691,2.6691,2.6691,2.6691,0.0,2.6691,2.752,2.8993,2.8993,2.9721,3.097,3.1123,3.119,3.119,3.119,3.119,3.119,3.119,3.119,3.136,3.2679,3.3271,3.3592,0.0,0.0,0.0,0.0,0.0,0.0,0.0,0.0,0.0,0.0,0.0,0.0,0.0,0.0,0.0,0.0,0.0,0.0,0.0,0.0,0.0,0.0,0.0,0.0,0.0,0.0,0.0,0.0,0.0,0.0,0.0,0.0,0.0,0.0,0.0,0.0,0.0,0.0,0.0,0.0,0.0,0.0,0.0,0.0,0.0,0.0,0.0,0.0,0.0,0.0,0.0,0.0,0.0,0.0,1.6825,1.6825,1.7175,1.7595,1.7738,1.7777,1.7816,1.7971,1.8014,1.8057,1.8187,1.8218,1.8177,1.8046,1.8103,1.8491,1.9464,1.9971,0.0,0.0,0.0,0.0,0.0,0.0,0.0,0.0,0.0,0.0,0.0,0.0,0.0,0.0,0.0,0.0,0.0,2.4863,2.5558,2.6657,2.6691,2.6691,2.6691,2.6691,2.6691,2.6691,2.6691,2.752,2.9027,2.9738,3.0463,3.119,3.119,3.119,3.119,3.119,3.119,3.119,3.119,3.119,3.1376,3.2865,3.3406,3.3609,0.0,0.0,0.0,0.0,0.0,0.0,0.0,0.0,0.0,0.0,0.0,0.0,0.0,0.0,0.0,0.0,0.0,0.0,0.0,0.0,0.0,0.0,0.0,0.0,0.0,0.0,0.0,0.0,0.0,0.0,0.0,0.0,0.0,0.0,0.0,0.0,0.0,0.0,0.0,0.0,0.0,0.0,0.0,0.0,0.0,0.0,0.0,0.0,1.3901,1.4721,0.0,0.0,0.0,0.0,1.6174,1.6174,1.6667,1.7236,1.7284,1.7537,1.78,1.78,1.78,1.78,1.78,1.78,1.78,1.78,1.7982,1.8503,1.9764,2.0233,0.0,0.0,0.0,0.0,0.0,0.0,0.0,0.0,0.0,0.0,0.0,0.0,0.0,0.0,0.0,0.0,2.4423,2.4491,2.5185,2.664,2.6691,2.6691,2.6691,2.6691,2.6691,2.6691,2.6979,2.7774,2.9044,3.0533,3.119,3.119,3.119,3.119,3.119,3.119,3.119,3.119,3.119,3.119,3.1376,3.2865,3.3406,3.3609,0.0,0.0,0.0,0.0,0.0,0.0,0.0,0.0,0.0,0.0,0.0,0.0,0.0,0.0,0.0,0.0,0.0,0.0,0.0,0.0,0.0,0.0,0.0,0.0,0.0,0.0,0.0,0.0,0.0,0.0,0.0,0.0,0.0,0.0,0.0,0.0,0.0,0.0,0.0,0.0,0.0,0.0,0.0,0.0,0.0,0.0,0.0,0.0,0.0,1.4294,1.4358,0.0,0.0,0.0,1.5691,1.5691,1.6249,1.6926,1.7224,1.7537,1.78,1.78,1.78,1.78,1.78,1.78,1.78,0.0,1.7833,1.8285,1.9727,0.0,0.0,0.0,0.0,0.0,0.0,0.0,0.0,0.0,0.0,0.0,0.0,0.0,0.0,0.0,0.0,0.0,2.4423,2.4491,2.5185,2.664,2.6691,2.6691,2.6691,2.6691,2.6691,2.6708,2.8062,2.8807,2.9044,3.0533,3.119,3.119,3.119,3.119,3.119,3.119,3.119,3.119,3.119,3.119,3.1376,3.2865,3.3406,3.3609,0.0,0.0,0.0,0.0,0.0,0.0,0.0,0.0,0.0,0.0,0.0,0.0,0.0,0.0,0.0,0.0,0.0,0.0,0.0,0.0,0.0,0.0,0.0,0.0,0.0,0.0,0.0,0.0,0.0,0.0,0.0,1.13,1.1708,0.0,0.0,0.0,0.0,0.0,0.0,0.0,0.0,0.0,0.0,0.0,0.0,0.0,0.0,0.0,0.0,0.0,1.4052,1.3983,1.4374,0.0,0.0,0.0,1.5893,1.6633,1.7163,1.7403,1.7561,1.7755,1.78,1.78,1.78,1.78,1.78,1.78,1.78,1.8121,0.0,0.0,0.0,0.0,0.0,0.0,0.0,0.0,0.0,0.0,0.0,0.0,0.0,0.0,0.0,0.0,0.0,2.3376,2.444,2.4897,2.5592,2.6657,2.6691,2.6691,2.6691,2.6691,2.6691,2.6708,2.8265,2.8993,2.9044,3.0533,3.119,3.119,3.119,3.119,3.119,3.119,3.119,3.119,3.119,3.119,3.1376,3.2865,3.3406,3.3609,0.0,0.0,0.0,0.0,0.0,0.0,0.0,0.0,0.0,0.0,0.0,0.0,0.0,0.0,0.0,0.0,0.0,0.0,0.0,0.0,0.0,0.0,0.0,0.0,0.0,0.0,0.0,0.0,0.0,0.0,1.1207,1.1726,1.2102,0.0,1.282,0.0,0.0,0.0,0.0,0.0,0.0,0.0,0.0,0.0,0.0,0.0,0.0,0.0,0.0,0.0,0.0,0.0,0.0,0.0,0.0,0.0,0.0,1.6407,1.691,1.7171,1.7356,1.7612,1.7743,1.78,1.78,1.78,1.78,0.0,1.78,1.7969,0.0,0.0,0.0,0.0,0.0,0.0,0.0,0.0,0.0,0.0,0.0,0.0,0.0,0.0,0.0,0.0,0.0,2.3714,2.4457,2.5203,2.5947,2.6674,2.6691,2.6691,2.6691,2.6691,2.6793,2.6996,2.835,2.9094,2.9331,3.0598,3.119,3.119,3.119,3.119,3.119,3.119,3.119,3.119,3.119,3.1309,3.163,3.2933,3.3525,3.3863,0.0,0.0,0.0,0.0,0.0,0.0,0.0,0.0,0.0,0.0,0.0,0.0,0.0,0.0,0.0,0.0,0.0,0.0,0.0,0.0,0.0,0.0,0.0,0.0,0.0,0.0,0.0,0.0,0.0,0.0,1.1774,1.2246,1.2228,1.1866,1.2318,1.2544,1.2579,0.0,0.0,0.0,0.0,0.0,0.0,0.0,0.0,0.0,0.0,0.0,0.0,0.0,0.0,0.0,0.0,0.0,0.0,0.0,0.0,0.0,1.6326,1.6825,1.7292,1.732,1.7561,1.78,1.78,0.0,1.78,1.78,1.78,1.7817,0.0,0.0,0.0,0.0,0.0,0.0,0.0,0.0,0.0,0.0,0.0,0.0,0.0,0.0,0.0,0.0,0.0,2.3714,2.4457,2.5203,2.5947,2.6674,2.6691,2.6691,2.6691,2.6691,2.7046,2.7756,2.8602,2.9382,3.0074,3.0852,3.119,3.119,3.119,3.119,3.119,3.119,3.119,3.119,3.119,3.1633,3.2344,3.3119,3.3846,3.4539,0.0,0.0,0.0,0.0,0.0,0.0,0.0,0.0,0.0,0.0,0.0,0.0,0.0,0.0,0.0,0.0,0.0,0.0,0.0,0.0,0.0,0.0,0.0,0.0,0.0,0.0,0.0,0.0,0.0,1.0904,1.1282,1.1468,1.1634,1.1811,1.2282,1.2508,1.249,1.2354,0.0,0.0,0.0,0.0,0.0,0.0,0.0,0.0,0.0,0.0,0.0,0.0,0.0,0.0,0.0,0.0,0.0,0.0,1.5404,1.6025,1.6246,1.6474,1.6709,1.6926,1.7224,1.7491,1.7491,1.7647,1.78,1.78,1.78,1.78,0.0,0.0,0.0,0.0,0.0,0.0,0.0,0.0,0.0,0.0,0.0,0.0,0.0,0.0,0.0,0.0,0.0,0.0,2.4491,2.5659,2.642,2.6691,2.6691,2.6691,2.6691,2.6691,2.708,2.7807,2.8619,2.9381,3.0142,3.0869,3.119,3.119,3.119,3.119,3.119,3.119,3.119,3.119,3.119,3.1667,3.2395,3.3136,3.3863,3.4607,0.0,0.0,0.0,0.0,0.0,0.0,0.0,0.0,0.0,0.0,0.0,0.0,0.0,0.0,0.0,0.0,0.0,0.0,0.0,0.0,0.0,0.0,0.0,0.0,0.0,0.0,0.0,0.0,0.0,0.0,0.0,1.1431,1.1505,1.1553,1.1854,1.2,0.0,0.0,0.0,1.2733,0.0,0.0,1.3198,0.0,0.0,0.0,0.0,0.0,0.0,0.0,0.0,0.0,0.0,0.0,0.0,0.0,0.0,0.0,1.6024,1.6219,1.6355,1.6581,1.6977,1.7308,1.7308,1.7561,1.78,1.78,1.78,1.78,0.0,0.0,0.0,0.0,0.0,0.0,0.0,0.0,0.0,0.0,0.0,0.0,0.0,0.0,0.0,0.0,0.0,0.0,2.4863,2.6015,2.6691,2.6691,2.6691,2.6691,2.6691,2.6691,2.7199,2.8213,2.8756,2.9534,3.0497,3.097,3.119,3.119,3.119,3.119,3.119,3.119,3.119,3.1207,3.1461,3.2022,3.2767,3.3508,3.4235,3.4945,0.0,0.0,0.0,0.0,0.0,0.0,0.0,0.0,0.0,0.0,0.0,0.0,0.0,0.0,0.0,0.0,0.0,0.0,0.0,0.0,0.0,0.0,0.0,0.0,0.0,0.0,0.0,0.0,0.0,0.0,0.0,0.0,1.1909,1.0981,1.0981,1.0981,1.1008,0.0,1.1774,1.1866,0.0,1.2768,1.3198,0.0,0.0,0.0,1.3198,1.3198,0.0,1.3198,0.0,0.0,0.0,0.0,0.0,0.0,0.0,0.0,0.0,0.0,0.0,0.0,0.0,0.0,1.7268,0.0,1.7777,1.7789,1.7789,0.0,0.0,0.0,0.0,0.0,0.0,0.0,0.0,0.0,0.0,0.0,0.0,0.0,0.0,0.0,0.0,0.0,0.0,2.4829,2.5558,2.6302,2.6691,2.6691,2.6691,2.6691,2.6691,2.6708,2.7503,2.8993,2.9027,2.9788,3.119,3.119,3.119,3.119,3.119,3.119,3.119,3.119,3.119,3.1258,3.2005,3.2747,3.3491,3.4218,3.4979,3.56,0.0,0.0,0.0,0.0,0.0,0.0,0.0,0.0,0.0,0.0,0.0,0.0,0.0,0.0,0.0,0.0,0.0,0.0,0.0,0.0,0.0,0.0,0.0,0.0,0.0,0.0,0.0,0.0,0.0,0.0,0.0,0.0,0.0,0.0,1.0486,1.0486,1.0505,1.0659,0.0,0.0,1.2084,1.2473,0.0,0.0,0.0,0.0,0.0,1.3198,1.3198,0.0,1.3198,1.3198,0.0,0.0,0.0,0.0,0.0,0.0,1.5668,0.0,0.0,0.0,0.0,0.0,0.0,0.0,1.7154,1.7396,1.7444,0.0,0.0,0.0,0.0,0.0,0.0,0.0,0.0,0.0,0.0,0.0,0.0,0.0,0.0,0.0,0.0,0.0,2.4085,2.4829,2.5558,2.6302,2.6691,2.6691,2.6691,2.6691,2.6691,2.7232,2.7994,2.901,2.9533,3.0294,3.119,3.119,3.119,3.119,3.119,3.119,3.119,3.119,3.119,3.1258,3.2005,3.2747,3.3491,3.4218,3.4979,3.56,0.0,0.0,0.0,0.0,0.0,0.0,0.0,0.0,0.0,0.0,0.0,0.0,0.0,0.0,0.0,0.0,0.0,0.0,0.0,0.0,0.0,0.0,0.0,0.0,0.0,0.0,0.0,0.0,0.0,0.0,0.0,0.0,0.0,0.0,0.0,0.0,0.0,0.0,0.0,0.0,1.212,0.0,0.0,1.3198,1.3198,0.0,0.0,0.0,1.3198,1.3198,1.3198,0.0,0.0,0.0,0.0,0.0,0.0,0.0,0.0,0.0,0.0,0.0,0.0,0.0,1.6474,1.676,1.7101,0.0,1.7514,0.0,0.0,0.0,0.0,0.0,0.0,0.0,0.0,0.0,0.0,0.0,0.0,0.0,0.0,0.0,0.0,2.378,2.4254,2.4965,2.5998,2.6471,2.6691,2.6691,2.6691,2.6843,2.7165,2.7587,2.8348,2.9448,2.9888,3.0497,3.119,3.119,3.119,3.119,3.119,3.119,3.119,3.119,3.1376,3.1735,3.2479,3.3203,3.3947,3.4692,3.5228,3.56,0.0,0.0,0.0,0.0,0.0,0.0,0.0,0.0,0.0,0.0,0.0,0.0,0.0,0.0,0.0,0.0,0.0,0.0,0.0,0.0,0.0,0.0,0.0,0.0,0.0,0.0,0.0,0.0,0.0,0.0,0.0,0.0,0.0,0.0,0.0,0.0,0.0,0.0,0.0,1.1847,1.2246,1.2703,0.0,0.0,1.3198,1.3198,1.3198,1.3198,1.3198,1.3198,1.3198,0.0,0.0,0.0,0.0,0.0,1.3901,0.0,0.0,0.0,0.0,0.0,0.0,0.0,1.662,1.6914,1.7236,0.0,0.0,0.0,0.0,0.0,0.0,0.0,0.0,0.0,0.0,0.0,0.0,0.0,0.0,0.0,2.2296,2.2296,2.2919,2.4389,2.4643,2.532,2.6623,2.6691,2.6691,2.6691,2.6691,2.7063,2.779,2.7891,2.8652,3.0108,3.0173,3.0565,3.119,3.119,3.119,3.119,3.119,3.119,3.1207,3.1275,3.1718,3.2378,3.3119,3.3846,3.459,3.5329,3.56,3.56,0.0,0.0,0.0,0.0,0.0,0.0,0.0,0.0,0.0,0.0,0.0,0.0,0.0,0.0,0.0,0.0,0.0,0.0,0.0,0.0,0.0,0.0,0.0,0.0,0.0,0.0,0.0,0.0,0.0,0.0,0.0,0.0,0.0,0.0,0.0,0.0,0.0,0.0,0.0,1.1811,1.1902,0.0,1.2685,1.3047,1.3198,1.3198,1.3198,1.3198,1.3198,1.3198,1.3198,1.3198,0.0,0.0,0.0,0.0,0.0,0.0,0.0,0.0,0.0,0.0,0.0,0.0,1.5983,1.6053,1.6191,0.0,1.6578,1.6686,0.0,0.0,0.0,0.0,0.0,0.0,0.0,0.0,0.0,0.0,0.0,0.0,0.0,2.2296,2.2919,2.4389,2.5608,2.6403,2.6674,2.6691,2.6691,2.6691,2.6691,2.7063,2.779,2.8433,2.9211,3.0125,3.07,3.1055,3.119,3.119,3.119,3.119,3.119,3.119,3.1241,3.1853,3.2175,3.2378,3.3119,3.3846,3.459,3.5329,3.56,3.56,0.0,0.0,0.0,0.0,0.0,0.0,0.0,0.0,0.0,0.0,0.0,0.0,0.0,0.0,0.0,0.0,0.0,0.0,0.0,0.0,0.0,0.0,0.0,0.0,0.0,0.0,0.0,0.0,0.0,0.0,0.0,0.0,0.0,0.0,0.0,0.0,0.0,0.0,1.0802,1.1124,1.1847,0.0,1.2873,1.3112,1.3198,1.3198,1.3198,1.3198,1.3198,1.3198,1.3198,0.0,0.0,1.3198,1.325,0.0,1.3547,1.3698,0.0,0.0,0.0,1.5344,0.0,0.0,0.0,1.6053,1.6136,1.6474,1.6541,1.6594,1.6763,0.0,0.0,0.0,0.0,0.0,0.0,0.0,0.0,0.0,0.0,0.0,0.0,2.2296,2.2919,2.4389,2.554,2.6302,2.6674,2.6691,2.6691,2.6691,2.7063,2.7621,2.8383,2.9161,2.9922,3.0649,3.1021,3.119,3.119,3.119,3.119,3.119,3.119,3.1413,3.1785,3.2158,3.2733,3.3444,3.3795,3.4404,3.5098,3.5447,3.56,3.56,0.0,0.0,0.0,0.0,0.0,0.0,0.0,0.0,0.0,0.0,0.0,0.0,0.0,0.0,0.0,0.0,0.0,0.0,0.0,0.0,0.0,0.0,0.0,0.9059,0.0,0.0,0.0,0.0,0.0,0.0,0.0,0.0,0.0,0.0,0.0,0.0,0.0,0.0,0.0,1.0697,0.0,1.2627,1.2808,1.2995,1.3077,1.3077,1.3293,1.3441,1.3529,1.3529,0.0,1.3529,1.3529,1.3529,0.0,0.0,0.0,0.0,0.0,0.0,0.0,0.0,0.0,1.6247,0.0,0.0,0.0,1.6889,1.6865,0.0,0.0,0.0,0.0,0.0,0.0,0.0,0.0,0.0,0.0,0.0,0.0,0.0,0.0,2.2431,2.3054,2.4406,2.5169,2.593,2.6657,2.6691,2.6691,2.6691,2.7418,2.8197,2.8993,2.9736,3.048,3.119,3.119,3.119,3.119,3.119,3.119,3.1207,3.1343,3.1752,3.2327,3.2615,3.3444,3.4489,3.4489,3.4962,3.56,3.56,3.56,3.56,0.7,0.7,0.0,0.0,0.0,0.0,0.0,0.0,0.0,0.0,0.0,0.0,0.0,0.0,0.0,0.0,0.0,0.0,0.7,0.0,0.0,0.0,0.0,0.0,0.9498,0.0,0.0,0.0,0.0,0.0,0.0,0.0,0.0,0.0,1.0764,0.0,0.0,0.0,1.1188,0.0,1.2332,1.206,0.0,1.2246,1.2579,1.271,1.3664,1.4311,1.4708,0.0,1.4708,1.4708,0.0,1.4708,1.4708,0.0,0.0,0.0,0.0,0.0,0.0,0.0,1.7102,0.0,0.0,0.0,1.6833,1.7466,0.0,0.0,0.0,0.0,0.0,0.0,0.0,0.0,0.0,0.0,0.0,0.0,0.0,0.0,0.0,0.0,2.3613,2.444,2.5169,2.593,2.6657,2.6691,2.6691,2.6691,2.7418,2.8197,2.8993,2.9736,3.048,3.119,3.119,3.119,3.119,3.119,3.119,3.1241,3.1904,3.2226,3.2395,3.3715,3.4336,3.4489,3.4489,3.4962,3.56,3.56,3.56,3.56,0.7063,0.728,0.0,0.0,0.0,0.0,0.0,0.0,0.0,0.0,0.0,0.0,0.0,0.0,0.0,0.0,0.0,0.7,0.0,0.0,0.0,0.0,0.0,0.0,0.0,0.0,0.0,0.0,1.0303,0.0,0.0,0.0,0.0,0.0,1.0905,0.0,1.1623,0.0,1.1713,0.0,0.0,0.0,0.0,1.3381,1.3883,1.3958,1.44,1.4714,1.4896,0.0,1.4896,0.0,0.0,0.0,0.0,0.0,0.0,0.0,0.0,0.0,0.0,0.0,0.0,0.0,1.7633,0.0,1.7354,0.0,0.0,0.0,0.0,0.0,0.0,0.0,0.0,0.0,0.0,0.0,0.0,0.0,0.0,0.0,0.0,0.0,0.0,0.0,0.0,2.5456,2.664,2.6691,2.6894,2.7317,2.8095,2.8856,2.9634,3.0362,3.0886,3.119,3.119,3.119,3.119,3.119,3.1427,3.187,3.2175,3.2801,3.363,3.4235,3.4742,3.5148,3.5148,3.5329,3.56,3.56,3.56,3.56,0.7342,0.0,0.0,0.0,0.0,0.0,0.0,0.0,0.0,0.0,0.0,0.0,0.7,0.7,0.0,0.0,0.7,0.7,0.0,0.0,0.769,0.0,0.0,0.0,0.0,0.0,0.0,0.0,0.0,0.0,0.0,0.0,0.0,0.0,0.0,1.1823,1.2545,0.0,1.2428,1.294,1.3125,1.3363,1.3685,1.4401,1.4855,1.511,1.511,1.5211,1.5349,1.5349,1.5349,0.0,1.5349,0.0,0.0,0.0,0.0,0.0,1.5349,0.0,0.0,0.0,0.0,0.0,0.0,0.0,0.0,0.0,0.0,0.0,0.0,0.0,0.0,0.0,0.0,0.0,0.0,0.0,0.0,0.0,0.0,0.0,0.0,0.0,0.0,2.4389,2.4491,2.5134,2.6607,2.6691,2.7046,2.779,2.8569,2.9347,3.0089,3.0835,3.119,3.119,3.119,3.119,3.1207,3.1413,3.1802,3.2327,3.2733,3.3512,3.4506,3.4726,3.5131,3.56,3.56,3.56,3.56,3.56,3.56,3.56,0.7878,0.8296,0.0,0.0,0.0,0.0,0.0,0.0,0.0,0.0,0.0,0.0,0.0,0.0,0.0,0.0,0.0,0.7,0.7,0.0,0.8118,0.0,0.0,0.9716,0.0,0.0,0.0,0.0,0.0,0.0,0.0,0.0,0.0,0.0,0.0,1.2352,1.252,1.2981,1.3503,1.4106,1.4672,1.5496,1.6206,0.0,1.4768,1.5668,1.5668,0.0,0.0,1.645,1.645,0.0,0.0,0.0,0.0,0.0,0.0,0.0,0.0,0.0,0.0,1.8051,0.0,0.0,0.0,0.0,1.8852,0.0,0.0,0.0,0.0,0.0,0.0,0.0,0.0,0.0,0.0,0.0,0.0,0.0,0.0,0.0,0.0,0.0,0.0,2.4389,2.4491,2.5134,2.6607,2.6691,2.7046,2.779,2.8569,2.9347,3.0089,3.0835,3.119,3.119,3.119,3.119,3.1207,3.1938,3.2276,3.2378,3.3816,3.4477,3.4556,3.5261,3.5583,3.56,3.56,3.56,3.56,3.56,3.56,3.56,0.0,0.0,0.0,0.0,0.0,0.0,0.0,0.7966,0.0,0.0,0.0,0.0,0.0,0.7,0.7,0.0,0.0,0.7,0.7,0.7196,0.0,0.0,0.0,0.8857,0.0,0.0,0.0,0.0,0.0,0.0,0.0,0.0,0.0,0.0,0.0,1.2776,0.0,0.0,0.0,0.0,0.0,1.5345,1.5342,0.0,0.0,1.6233,1.6233,1.6337,0.0,1.65,1.65,1.65,1.65,1.65,1.65,1.65,1.6752,0.0,0.0,0.0,1.8204,1.8535,0.0,0.0,0.0,0.0,0.0,0.0,0.0,0.0,0.0,0.0,0.0,0.0,0.0,0.0,0.0,0.0,0.0,0.0,0.0,0.0,0.0,0.0,0.0,2.4389,2.4491,2.5134,0.0,2.6691,2.7283,2.8552,2.8857,2.9602,3.0818,3.1072,3.119,3.119,3.119,3.1464,3.1938,3.2192,3.2835,3.3778,3.4269,3.4776,3.5245,3.5498,3.56,3.56,3.56,3.56,3.56,3.56,3.56,3.56,0.9059,0.0,0.0,0.0,0.0,0.0,0.0,0.0,0.0,0.0,0.7426,0.0,0.7189,0.0,0.7221,0.0,0.7326,0.7326,0.7326,0.7241,0.0,0.8508,0.8456,0.0,0.0,0.0,0.0,0.0,0.0,1.1606,0.0,0.0,0.0,0.0,0.0,1.3065,1.3994,1.3893,1.4395,0.0,0.0,1.5365,0.0,0.0,1.638,1.6216,0.0,1.65,1.65,1.65,1.65,1.65,1.65,1.65,1.65,1.65,1.6731,1.7055,1.725,1.7686,0.0,1.8765,1.9043,0.0,1.9621,0.0,0.0,0.0,0.0,0.0,0.0,0.0,0.0,0.0,0.0,0.0,0.0,2.1751,0.0,0.0,0.0,0.0,0.0,0.0,2.2919,2.4389,2.4491,2.5134,0.0,0.0,2.7419,2.8942,2.8993,2.9721,3.119,3.119,3.119,3.119,3.1461,3.1853,3.2327,3.2835,3.3613,3.4506,3.4776,3.5165,3.56,3.56,3.56,3.56,3.56,3.56,3.56,3.56,3.56,3.56,0.0,0.0,0.0,0.0,0.8316,0.0,0.0,0.0,0.7704,0.0,0.7538,0.7787,0.7551,0.7511,0.7631,0.7879,0.7905,0.7905,0.7905,0.7649,0.0,0.0,0.9432,1.0026,1.1531,0.0,0.0,0.0,0.0,0.0,0.0,0.0,0.0,0.0,1.2695,0.0,1.3792,1.3792,1.4143,1.4744,1.5365,1.5588,1.561,1.6259,0.0,1.5676,1.6281,1.65,1.65,1.65,1.65,1.65,1.65,1.65,1.65,1.65,1.6531,1.6701,1.7188,1.7747,1.8302,1.8817,0.0,0.0,0.0,0.0,1.9708,0.0,0.0,0.0,0.0,0.0,0.0,0.0,0.0,0.0,0.0,0.0,0.0,0.0,0.0,0.0,0.0,2.2296,2.2919,2.4389,2.4491,2.5134,0.0,0.0,2.7453,2.8942,2.9044,2.9754,3.119,3.119,3.1207,3.1258,3.1972,3.2344,3.2462,3.3867,3.4506,3.459,3.5295,3.56,3.56,3.56,3.56,3.56,3.56,3.56,3.56,3.56,3.56,3.56,0.9059,0.9019,0.9139,0.0,0.9179,0.9079,0.0,0.0,0.0,0.0,0.775,0.7647,0.7776,0.7792,0.7819,0.7899,0.7905,0.0,0.0,0.0,0.0,0.9059,0.9431,1.0031,1.0993,1.1682,0.0,1.2061,0.0,0.0,1.2563,0.0,0.0,0.0,0.0,0.0,1.3792,1.3792,1.4143,1.4744,1.5365,1.532,0.0,0.0,1.6129,1.5676,1.6281,1.65,1.65,1.65,1.65,1.65,1.65,1.65,1.65,1.65,1.7055,1.7727,1.7867,1.8574,1.9332,1.946,1.9603,1.9708,0.0,0.0,0.0,0.0,0.0,0.0,0.0,0.0,0.0,0.0,0.0,0.0,0.0,0.0,0.0,2.2296,0.0,0.0,0.0,2.2296,2.2919,2.4389,2.4491,2.5134,0.0,0.0,0.0,2.8976,2.9533,3.026,3.119,3.119,3.1481,3.2022,3.2209,3.2869,3.3952,3.432,3.4793,3.5329,3.5515,3.56,3.56,3.56,3.56,3.56,3.56,3.56,3.56,3.56,3.56,3.56,0.9119,0.0,0.0,0.9478,0.0,0.0,0.901,0.0,0.0,0.8129,0.8074,0.0,0.8114,0.8123,0.8176,0.8278,0.8292,0.0,0.8718,0.0,0.0,1.0131,1.0335,1.0846,1.1705,1.2242,0.0,1.252,0.0,0.0,1.2905,0.0,0.0,0.0,0.0,1.3079,1.3396,1.3396,1.3766,1.4352,1.496,0.0,0.0,1.6151,1.6281,1.6066,1.6688,1.6713,1.65,1.65,1.6685,1.6898,1.6898,1.7061,1.7227,1.7227,1.7668,1.8249,1.8748,1.9321,1.9904,2.0429,2.0576,2.0576,2.0576,2.0576,2.0576,0.0,0.0,0.0,0.0,0.0,0.0,0.0,0.0,0.0,0.0,0.0,0.0,0.0,2.2296,0.0,0.0,2.2784,2.3257,2.4406,2.4795,2.5473,0.0,0.0,0.0,2.8976,2.9719,3.0446,3.119,3.1532,3.1904,3.231,3.2953,3.3715,3.4506,3.4827,3.5216,3.56,3.56,3.56,3.56,3.56,3.56,3.56,3.56,3.56,3.56,3.56,3.56,3.56,0.9341,0.0,0.0,0.0,0.0,0.0,0.0,0.8312,0.0,0.7997,0.0,0.8613,0.8472,0.8456,0.8556,0.8784,0.0,0.9087,0.9762,0.9577,1.0154,1.1722,1.1586,1.1906,1.2871,1.2905,1.2905,0.0,0.0,1.2905,1.2905,0.0,0.0,0.0,0.0,0.0,0.0,1.3017,1.3396,1.4063,1.4514,1.5164,1.5872,1.6315,1.6585,1.6789,1.7313,1.7124,1.6635,1.6688,1.7074,1.7511,1.7511,1.7815,1.8204,1.8204,1.8251,1.8531,1.9498,1.9879,2.0259,2.1309,2.1635,2.1695,2.1695,2.1695,2.1695,2.1695,2.1695,0.0,0.0,0.0,0.0,0.0,0.0,0.0,0.0,0.0,0.0,0.0,0.0,0.0,0.0,0.0,2.3763,2.4575,2.5236,2.593,0.0,0.0,0.0,2.8976,2.9803,0.0,3.119,0.0,3.2344,3.2462,3.385,3.4539,3.4675,3.5318,3.56,3.56,3.56,3.56,3.56,3.56,3.56,3.56,3.56,3.56,3.56,3.56,3.56,3.56,0.9097,0.0,0.0,0.0,0.0,0.8819,0.9006,0.8426,0.8051,0.8281,0.8396,0.8529,0.8697,0.8731,0.8751,0.8804,0.8804,0.0,0.0,0.0,0.0,1.1731,1.1742,1.2113,1.2881,1.2905,1.2905,0.0,1.2905,1.2905,1.2905,0.0,0.0,0.0,0.0,0.0,1.3637,1.3637,0.0,1.5253,1.4858,1.5669,1.7032,1.6598,1.7051,1.7928,1.8028,1.7702,1.73,1.7752,1.7978,1.8053,1.8053,1.8129,1.8204,1.8204,1.8508,1.8898,1.909,1.9828,2.0619,2.0821,2.1274,2.1695,2.1695,2.1695,2.1695,2.1695,2.1695,2.1695,2.1695,0.0,0.0,0.0,0.0,0.0,0.0,0.0,0.0,0.0,0.0,0.0,0.0,0.0,0.0,0.0,2.5541,0.0,0.0,0.0,0.0,0.0,0.0,0.0,0.0,0.0,0.0,3.322,3.4083,3.481,3.5397,3.5532,3.56,3.56,3.56,3.56,3.56,3.56,3.56,3.56,3.56,3.56,3.56,3.56,3.56,3.56,0.0,0.0,0.0,0.0,0.0,0.0,0.0,0.8545,0.0,0.8577,0.8597,0.8651,0.8791,0.8804,0.8936,0.929,0.9309,0.9614,1.0261,1.0312,1.0618,1.1266,1.1616,0.0,1.232,1.2691,1.2905,1.2905,1.2905,1.2905,0.0,0.0,0.0,0.0,0.0,1.3184,0.0,0.0,0.0,1.5339,1.5447,1.6195,1.7251,1.731,1.7682,1.8242,1.853,1.8455,1.8229,1.8216,1.8368,1.8607,1.8607,1.8819,1.9032,1.9032,1.9217,1.9557,2.0221,2.0795,2.1379,2.2039,2.2443,2.2682,2.2682,2.2682,2.2682,2.2682,2.2682,2.2577,2.2283,2.2539,0.0,0.0,0.0,0.0,0.0,0.0,0.0,0.0,0.0,0.0,0.0,0.0,0.0,0.0,0.0,0.0,0.0,0.0,0.0,0.0,0.0,0.0,0.0,0.0,0.0,3.3981,3.4726,3.5267,3.56,3.56,3.56,3.56,3.56,3.56,3.56,3.56,3.56,3.56,3.56,3.56,3.56,3.56,3.56,3.56,0.0,0.9023,0.0,0.0,0.8983,0.0,0.8634,0.8804,0.8971,0.8884,0.8871,0.8925,0.8985,0.8991,0.92,0.9739,0.9766,1.0068,1.0741,1.0941,1.1063,1.1124,1.1799,1.2113,1.203,1.2608,1.2905,0.0,1.2905,1.2954,0.0,0.0,0.0,0.0,0.0,0.0,0.0,0.0,1.4645,1.5551,1.6011,1.6635,1.7324,1.7776,1.8092,1.8375,1.8958,1.9171,1.9108,1.8694,1.8832,1.9171,1.9171,1.9447,1.9798,1.9798,1.9798,2.0016,2.1013,2.1482,2.1932,2.2958,2.3406,2.3595,2.3595,2.3595,2.3595,2.3595,2.3595,2.3445,2.2987,2.3244,0.0,0.0,0.0,0.0,0.0,0.0,0.0,0.0,0.0,0.0,0.0,0.0,0.0,0.0,0.0,2.6759,2.6928,2.8248,0.0,0.0,0.0,3.1718,3.2293,0.0,3.3931,0.0,3.5245,3.56,3.56,3.56,3.56,3.56,3.56,3.56,3.56,3.56,3.56,3.56,3.56,3.56,3.56,3.56,3.56,3.56,0.0,0.0,0.0,0.0,0.0,0.0,0.0,0.9412,0.9506,0.9204,0.9171,0.9277,0.9573,0.9606,0.9628,0.9714,0.9714,0.9987,1.0675,1.138,1.19,1.214,1.2917,1.3161,1.2808,1.2847,1.2905,0.0,0.0,1.3101,0.0,0.0,0.0,0.0,0.0,0.0,0.0,1.5665,1.6332,1.6863,1.6403,1.6841,1.7757,1.7281,1.7752,1.8742,1.9466,1.9736,1.9723,1.9673,1.9685,1.9736,1.9736,1.9761,1.9798,1.9798,1.9798,1.9824,1.994,2.083,2.172,2.1838,2.2741,2.3595,2.3595,2.3595,2.3595,2.3595,2.3595,2.358,2.352,2.3941,2.4447,0.0,0.0,0.0,0.0,0.0,0.0,0.0,0.0,0.0,0.0,0.0,0.0,0.0,0.0,2.6996,2.7655,2.8518,2.9314,2.9989,0.0,3.2226,3.2293,3.3677,0.0,3.4506,3.5245,3.56,3.56,3.56,3.56,3.56,3.56,3.56,3.56,3.56,3.56,3.56,3.56,3.56,3.56,3.56,3.56,3.56,0.0,0.0,0.0,0.0,0.0,0.0,0.0,0.9606,0.9706,0.973,0.9613,0.9552,0.9695,0.9715,0.9853,1.0272,1.0293,1.0401,1.0679,1.1447,1.1781,1.1458,1.2627,1.3073,1.2672,1.3051,1.3262,0.0,0.0,1.3477,1.386,0.0,0.0,0.0,0.0,1.4412,1.4958,1.5706,1.6031,1.6152,1.6784,1.7296,1.7733,1.7931,1.8589,1.9397,1.9695,1.9798,1.9798,1.9798,1.9798,1.9798,1.9798,1.9798,1.9798,1.9798,1.9798,1.9965,2.0731,2.1328,2.1885,2.2651,2.3216,2.3595,2.3595,2.3595,2.3595,2.3595,2.3595,2.3595,2.3595,2.4032,2.4572,0.0,0.0,0.0,0.0,0.0,0.0,0.0,0.0,2.686,0.0,0.0,0.0,0.0,0.0,2.7486,2.779,2.8991,2.9803,3.0091,0.0,3.2513,3.2949,3.3981,3.4726,3.5165,3.5447,3.56,3.56,3.56,3.56,3.56,3.56,3.56,3.56,3.56,3.56,3.56,3.56,3.56,3.56,3.56,3.56,3.56,0.9304,0.0,0.9439,0.0,0.9753,0.9813,0.9813,0.9916,1.0043,1.0221,1.0067,0.997,0.997,0.997,1.0171,1.0623,1.0682,1.077,1.1018,1.1765,1.1947,1.1373,1.2778,0.0,1.2635,1.3318,1.3691,1.3691,1.3691,0.0,0.0,0.0,0.0,0.0,1.4484,1.4687,1.5017,1.577,1.5927,1.5835,1.7079,1.7468,1.7385,1.8328,1.8874,1.9202,1.9631,1.9798,1.9798,1.9798,1.9798,1.9798,1.9798,1.9798,1.9798,1.9798,1.9798,2.0042,2.1148,2.1568,2.1955,2.3061,2.3613,2.3894,2.3894,2.4059,2.4193,2.4193,2.4193,2.4244,2.4427,2.4889,2.5431,0.0,0.0,0.0,0.0,0.0,0.0,0.0,2.7385,2.7571,2.8112,0.0,0.0,0.0,0.0,0.0,2.8483,2.9497,0.0,0.0,0.0,0.0,0.0,3.4455,3.5081,3.56,3.56,3.56,3.56,3.56,3.56,3.56,3.56,3.56,3.56,3.56,3.56,3.56,3.56,3.56,3.56,3.56,3.56,3.56,0.9708,0.9679,0.9708,0.9715,0.992,1.0114,1.0114,1.0392,1.0579,1.0586,1.0586,1.0579,1.0579,1.0579,1.0579,1.0611,1.0611,1.0944,1.1726,1.2535,1.2814,0.0,0.0,1.4201,1.2922,1.3683,1.4104,1.4104,0.0,0.0,1.4813,0.0,1.5391,1.5391,1.5391,1.54,1.5429,1.6169,1.6482,1.6539,1.7302,1.7174,1.668,1.8151,1.8248,1.7825,1.9281,1.9798,1.9798,1.9798,1.9798,1.9798,1.9798,1.9798,1.9798,1.9798,1.9798,1.9952,2.0622,2.1245,2.1875,2.2543,2.3656,2.459,2.459,2.5098,2.5585,2.5585,2.5585,2.5756,2.6353,2.6904,2.7448,2.8082,0.0,0.0,0.0,0.0,0.0,0.0,2.8976,2.8976,2.8976,0.0,0.0,0.0,0.0,0.0,0.0,0.0,0.0,3.2226,3.3,0.0,3.4472,3.5211,3.5583,3.56,3.56,3.56,3.56,3.56,3.56,3.56,3.56,3.56,3.56,3.56,3.56,3.56,3.56,3.56,3.56,3.56,3.56,3.56,0.9167,0.9571,1.004,1.0278,1.0392,1.0452,1.0452,1.0533,1.0593,1.0593,1.0593,1.0593,1.0593,1.0593,1.0593,0.0,1.0593,1.0713,0.0,1.1748,1.2127,1.1989,1.3543,1.4075,1.339,1.4183,1.458,1.458,0.0,0.0,0.0,1.5352,1.541,1.541,1.541,1.541,1.5439,1.6179,1.6492,1.6521,1.6765,1.7302,1.8015,1.7961,1.8421,1.9176,1.9631,1.9798,1.9798,1.9798,1.9798,1.9874,2.0289,2.0125,1.9798,1.9798,2.0075,2.0547,2.1172,2.2152,2.3145,2.3783,2.4617,2.5277,2.5277,2.5442,2.5615,2.5615,2.5615,2.5646,2.5863,2.6317,2.6871,2.7481,0.0,0.0,0.0,0.0,0.0,0.0,2.8993,2.9213,0.0,2.9753,0.0,0.0,0.0,0.0,0.0,0.0,0.0,0.0,3.3491,0.0,3.4489,3.5228,3.56,3.56,3.56,3.56,3.56,3.56,3.56,3.56,3.56,3.56,3.56,3.56,3.56,3.56,3.56,3.56,3.56,3.56,3.56,3.5667,0.9544,0.9897,1.0341,1.0559,1.0593,1.0491,1.0174,1.0396,1.0466,1.0142,1.0396,1.0593,1.0593,1.0593,0.0,1.0593,1.0593,1.0713,1.1045,1.1531,1.1919,1.2235,1.3507,1.4096,1.3823,0.0,0.0,1.5019,1.5019,1.5156,1.541,1.541,1.541,1.541,1.541,1.541,1.5439,1.5892,1.6093,1.6151,1.6698,1.7302,1.7945,1.8534,1.9159,1.9795,2.0271,2.0439,2.0439,2.0439,2.0439,2.0489,2.088,2.0727,2.0439,2.0439,2.0717,2.1129,2.1733,2.2719,2.3742,2.4358,2.5248,2.6033,2.6288,2.6348,2.6348,2.6348,2.6348,2.642,2.6643,2.6965,2.7384,2.7987,0.0,2.9059,2.9446,0.0,0.0,0.0,0.0,0.0,0.0,3.092,0.0,0.0,0.0,0.0,0.0,0.0,0.0,3.3123,3.4015,0.0,3.4912,3.5363,3.56,3.56,3.56,3.56,3.56,3.56,3.56,3.56,3.56,3.56,3.56,3.56,3.56,3.56,3.56,3.56,3.5633,3.5943,3.6062,3.6163,1.0358,1.0428,0.0,0.0,1.0498,0.0,0.9498,1.0079,1.0301,0.9498,1.011,1.0593,1.0593,1.0593,1.0593,1.0593,0.0,0.0,0.0,1.1772,1.2143,1.2887,1.3726,0.0,1.4213,1.4991,1.541,1.541,1.541,1.541,1.541,1.541,1.541,1.541,1.541,1.543,1.5459,1.5459,1.5527,1.578,1.7093,1.7328,1.7129,1.9694,2.0296,1.9877,2.107,2.1493,2.1493,2.1493,2.1493,2.1493,2.1531,2.1543,2.1543,2.1493,2.1546,2.1683,2.2293,2.307,2.3868,2.4487,2.5658,2.6811,2.7465,2.76,2.76,2.76,2.76,2.776,2.8319,2.8439,2.8654,2.9293,2.987,3.0272,3.0351,0.0,0.0,0.0,0.0,0.0,0.0,3.2378,3.2666,0.0,0.0,0.0,0.0,0.0,3.3846,3.4472,3.4539,3.4912,3.5583,3.56,3.56,3.56,3.56,3.56,3.56,3.56,3.56,3.56,3.56,3.56,3.56,3.56,3.5633,3.5667,3.5667,3.5701,3.5853,3.6586,3.688,3.6998,0.0,0.0,0.9594,0.9594,0.9594,0.9754,1.0206,1.0466,1.053,1.0333,1.0466,1.0593,1.0593,1.0593,1.0593,1.0593,1.0593,1.0681,1.0863,1.1469,1.1888,1.2081,1.3446,1.4213,1.4213,1.4991,1.541,1.541,1.541,1.541,1.541,1.541,1.541,1.541,1.541,1.5596,1.5938,1.5938,1.6827,1.8205,1.8008,1.8881,2.033,2.0423,2.0709,2.1082,2.1387,2.1493,2.1493,2.1493,2.1493,2.1556,2.1983,2.2121,2.2033,2.1606,2.1782,2.2252,2.2962,2.4068,2.5133,2.584,2.6696,2.7405,2.7555,2.76,2.76,2.76,2.76,2.7635,2.7785,2.781,2.8149,2.9225,2.9518,2.9935,3.0858,3.1604,0.0,0.0,3.2527,3.2949,3.3119,3.3136,3.322,0.0,0.0,0.0,0.0,0.0,3.4912,3.4506,3.5064,3.5414,3.56,3.56,3.56,3.56,3.56,3.56,3.56,3.56,3.56,3.56,3.56,3.56,3.56,3.56,3.596,3.6502,3.6502,3.6857,3.7381,3.7567,3.7635,3.7753,0.7565,0.8514,0.9512,0.9558,0.9952,1.029,1.0356,1.0725,1.0824,1.0422,1.0719,1.0955,1.0955,1.0955,1.0955,1.0955,1.0747,1.0593,1.0593,1.1114,1.1592,1.1957,1.3365,1.4342,1.4683,1.5541,1.5985,1.5985,1.5985,1.5985,1.5985,1.5985,1.5985,1.5985,1.5985,1.6143,1.6398,1.6809,1.7602,1.8643,1.8974,1.986,2.1014,2.1203,2.1502,2.1895,2.2146,2.2234,2.2234,2.2234,2.2234,2.2297,2.2556,2.2656,2.2606,2.2334,2.2447,2.2745,2.3145,2.43,2.5673,2.6733,2.7306,2.76,2.76,2.76,2.76,2.76,2.76,2.76,2.76,2.7835,2.8354,2.9328,2.9961,3.0669,3.165,3.2382,0.0,3.2797,3.3152,3.3541,3.388,3.3897,3.4049,3.4366,0.0,0.0,3.5013,3.538,3.5414,3.503,3.538,3.56,3.56,3.56,3.56,3.56,3.56,3.56,3.56,3.56,3.56,3.5616,3.5994,3.6146,3.618,3.6495,3.6907,3.7297,3.7297,3.755,3.7939,3.8278,3.8396,3.8514,0.8073,0.8995,0.9813,0.9915,1.0654,1.1005,1.0378,1.0902,1.1149,1.0378,1.0936,1.1389,1.1389,1.1389,1.1389,1.1389,1.0975,1.072,1.072,1.1053,1.157,1.2235,1.3558,1.4607,1.5289,1.6233,1.6697,1.6697,1.6697,1.6697,1.6697,1.6697,1.6697,1.6697,1.6697,1.6799,1.7038,1.7792,1.8287,1.872,2.0064,2.0691,2.0926,2.2014,2.2406,2.2468,2.2945,2.3108,2.3108,2.3108,2.3108,2.3108,2.3108,2.3108,2.3108,2.3108,2.3198,2.3305,2.3424,2.4568,2.6027,2.7306,2.7675,2.775,2.775,2.7824,2.7899,2.7899,2.7899,2.7899,2.7899,2.8337,2.8934,2.9746,3.0753,3.1704,3.2525,0.0,3.3575,3.3575,3.366,3.3981,3.4607,3.4675,3.4928,3.5549,3.56,0.0,0.0,3.56,3.56,3.56,3.56,3.56,3.56,3.56,3.56,3.56,3.56,3.56,3.56,3.5718,3.5769,3.5842,3.662,3.6981,3.7015,3.7652,3.7973,3.8075,3.8075,3.8142,3.8311,3.8937,3.9157,3.9242,0.7583,0.8847,1.0053,1.006,1.0205,1.0488,1.1114,1.132,1.1354,1.1217,1.132,1.1389,1.1389,1.1389,1.1389,1.1389,1.1309,1.1289,1.1289,1.2006,1.2505,1.2632,1.4213,1.5159,1.5289,1.6233,1.6697,1.6697,1.6697,1.6697,1.6697,1.6697,1.6697,1.6697,1.6697,1.7296,1.8311,1.8438,1.9599,2.1319,2.1578,2.2068,2.2708,2.2915,2.2982,2.2995,2.307,2.3108,2.3108,2.3108,2.3108,2.3108,2.3108,2.3108,2.3108,2.3108,2.3573,2.425,2.4866,2.612,2.7316,2.7534,2.8034,2.8442,2.8442,2.8861,2.9292,2.9292,2.9292,2.9292,2.9292,2.9372,2.9831,3.102,3.1358,3.1899,0.0,0.0,3.432,3.432,3.4895,3.5295,3.5414,3.543,3.5481,3.5583,3.56,3.56,3.56,3.56,3.56,3.56,3.56,3.56,3.56,3.56,3.56,3.56,3.56,3.56,3.5616,3.6299,3.6626,3.666,3.7398,3.7736,3.7736,3.7855,3.8278,3.8819,3.8819,3.9191,3.9774,3.9893,3.9943,3.996,0.8203,0.9414,1.0391,1.0449,1.0911,1.1426,1.1826,1.1897,1.1897,1.1897,1.1897,1.1897,1.1897,1.1897,1.1897,1.1897,1.1897,1.1897,1.1897,1.2137,1.2491,1.3008,1.4458,1.5723,1.6722,1.7172,1.7389,1.7389,1.7389,1.7389,1.7389,1.7389,1.7389,1.7389,1.7389,1.8004,1.8984,1.8984,2.0123,2.1908,2.1908,2.2384,2.3108,2.3108,2.3108,2.3108,2.3108,2.3108,2.3108,2.3108,2.3108,2.3108,2.3108,2.3108,2.3158,2.3471,2.3936,2.4647,2.6134,2.7027,2.773,2.8483,2.8918,2.9131,2.9131,2.9397,2.9606,2.9606,2.9606,2.9606,2.9606,3.0143,3.0939,3.1933,3.2669,0.0,0.0,3.4895,3.5098,3.5098,3.538,3.56,3.56,3.56,3.56,3.56,3.56,3.56,3.56,3.56,3.56,3.56,3.56,3.56,3.56,3.56,3.56,3.56,3.6045,3.6248,3.6265,3.7043,3.7381,3.7432,3.8176,3.8481,3.8514,3.892,3.9276,3.9605,3.9605,3.9808,4.0096,4.0096,4.0096,4.0096,0.9327,1.0319,1.1046,1.1131,1.1774,1.2305,1.2305,1.2305,1.2305,1.2305,1.2305,1.2305,1.2305,1.2305,1.2305,1.2305,1.2305,1.2305,1.2305,1.2091,1.2322,1.3026,1.445,1.6088,1.7974,1.8008,1.8008,1.8008,1.8008,1.8008,1.8008,1.8008,1.8008,1.8008,1.8008,1.8496,1.9299,1.9529,2.0494,2.1908,2.2094,2.2537,2.3108,2.3108,2.3108,2.3108,2.3108,2.3108,2.3108,2.3108,2.3108,2.3133,2.3258,2.3308,2.3409,2.4017,2.4546,2.538,2.7214,2.7842,2.8247,2.9337,2.9711,2.9804,2.9804,2.9924,3.0043,3.0043,3.0043,3.0043,3.0043,3.0823,3.1735,3.2476,0.0,0.0,0.0,3.5492,3.56,3.56,3.56,3.56,3.56,3.56,3.56,3.56,3.56,3.56,3.56,3.56,3.56,3.56,3.56,3.56,3.56,3.56,3.5684,3.5893,3.6485,3.6897,3.7083,3.7821,3.8159,3.821,3.8937,3.9242,3.9317,3.9876,4.0096,4.0096,4.0096,4.0096,4.0096,4.0096,4.0096,4.0096,1.0679,1.1477,1.2168,1.2187,1.2261,1.2305,1.2305,1.2305,1.2305,1.2305,1.2305,1.2305,1.2305,1.2305,1.2305,1.2305,1.2305,1.2305,1.2305,1.2278,1.2308,1.2382,1.4183,1.6088,1.7974,1.8008,1.8008,1.8008,1.8008,1.8008,1.8008,1.8008,1.8008,1.8008,1.8008,1.8496,1.9365,2.0171,2.1037,2.197,2.2689,2.3047,2.3108,2.3108,2.3108,2.3108,2.3108,2.3108,2.3108,2.3108,2.3108,2.3195,2.3766,2.3941,2.4042,2.4562,2.5805,2.7187,2.8097,2.8884,2.9465,2.9564,3.0013,3.0432,3.0432,3.0898,3.1361,3.1361,3.1361,3.1361,3.1361,3.1432,3.1745,3.2482,0.0,0.0,3.4576,3.5207,3.56,3.56,3.56,3.56,3.56,3.56,3.56,3.56,3.56,3.56,3.56,3.56,3.56,3.56,3.56,3.56,3.56,3.56,3.5977,3.6711,3.6778,3.7144,3.7838,3.8582,3.892,3.8954,3.9706,4.0028,4.0028,4.0079,4.0096,4.0096,4.0096,4.0096,4.0096,4.0096,4.0096,4.0096,1.162,1.2033,1.2305,1.2305,1.2305,1.2305,1.2305,1.2305,1.2305,1.2305,1.2305,1.2305,1.2305,1.2305,1.2305,1.2305,1.2305,1.2305,1.2305,1.3448,1.4091,1.4091,1.5904,1.726,1.7974,1.8008,1.8008,1.8008,1.8008,1.8008,1.8008,1.8008,1.8008,1.8008,1.8008,1.8787,2.0074,1.9879,2.091,2.2628,2.2445,2.2659,2.3108,2.3108,2.3108,2.3145,2.3509,2.3665,2.3715,2.4036,2.4148,2.4186,2.4412,2.4506,2.4817,2.644,2.7961,2.9297,3.0089,3.0251,3.0253,3.0687,3.0943,3.1122,3.1122,3.1316,3.1511,3.1511,3.1511,3.1511,3.1511,3.1881,3.2272,3.2559,0.0,3.4309,3.4552,3.5184,3.56,3.56,3.56,3.56,3.56,3.56,3.56,3.56,3.56,3.56,3.56,3.56,3.5842,3.6315,3.6332,3.6332,3.6332,3.6332,3.6721,3.7483,3.7939,3.8294,3.8616,3.9368,3.969,3.9706,3.9977,4.0096,4.0096,4.0096,4.0096,4.0096,4.0096,4.0096,4.0096,4.0096,4.0096,4.0096,1.215,1.2305,1.2305,1.2305,1.2305,1.2305,1.2305,1.2305,1.2305,1.2305,1.2305,1.2305,1.2305,1.2305,1.2305,1.2305,1.2305,1.2409,1.2732,1.455,1.5763,1.6053,1.7044,1.7681,1.7974,1.8008,1.8008,1.8008,1.8008,1.8076,1.8178,1.8178,1.8281,1.8408,1.8745,1.9377,2.0222,2.0489,2.1441,2.2776,2.2788,2.3157,2.3634,2.3634,2.3634,2.3684,2.4117,2.4255,2.4318,2.4695,2.4788,2.4813,2.5008,2.5335,2.6078,2.7916,2.9334,3.0494,3.1278,3.1152,3.0913,3.1391,3.1511,3.1511,3.1511,3.1511,3.1511,3.1511,3.1511,3.1511,3.1511,3.191,3.2244,3.2244,3.3235,3.4062,3.426,3.4871,3.5362,3.5577,3.56,3.56,3.56,3.56,3.56,3.56,3.56,3.5701,3.596,3.5994,3.6332,3.711,3.7168,3.7269,3.7506,3.7269,3.7516,3.8261,3.8751,3.9106,3.9343,3.9876,4.0096,4.0096,4.0096,4.0096,4.0096,4.0096,4.0096,4.0096,4.0096,4.0096,4.0096,4.0096,4.0096,4.0096,1.2305,1.2305,1.2305,1.2305,1.2305,1.2305,1.2305,1.2305,1.2305,1.2305,1.2305,1.2305,1.2305,1.2305,1.2305,1.2305,1.2305,1.2703,1.3673,1.5552,1.7044,1.7983,1.7104,1.7035,1.7983,1.8018,1.8018,1.8018,1.8018,1.8198,1.8607,1.8607,1.8831,1.936,2.0339,2.0232,1.9495,2.2298,2.2909,2.2173,2.4054,2.4788,2.4788,2.4788,2.4788,2.4788,2.48,2.48,2.48,2.48,2.48,2.4888,2.5435,2.6565,2.7887,2.8748,2.9628,3.0494,3.1278,3.1511,3.1511,3.1511,3.1511,3.1511,3.1511,3.1511,3.1511,3.1511,3.1511,3.1511,3.1511,3.1511,3.1511,3.1511,3.2148,3.2841,3.3505,3.4186,3.4854,3.5515,3.56,3.56,3.56,3.56,3.56,3.56,3.56,3.596,3.6778,3.6812,3.7168,3.7889,3.7922,3.8261,3.8988,3.8278,3.8278,3.9005,3.9005,3.9402,4.0096,4.0096,4.0096,4.0096,4.0096,4.0096,4.0096,4.0096,4.0096,4.0096,4.0096,4.0096,4.0096,4.0096,4.0096,4.0096,1.2305,1.2305,1.2305,1.2305,1.2305,1.2305,1.2305,1.2305,1.2305,1.2305,1.2305,1.2305,1.2305,1.2305,1.2305,1.2305,1.2915,1.409,1.6041,1.7008,1.7933,1.887,1.8312,1.8293,1.8906,1.8906,1.8906,1.8906,1.8906,1.8975,1.9092,1.9092,1.916,1.9323,1.9604,2.0293,2.125,2.2081,2.3043,2.4022,2.4581,2.4788,2.4788,2.4788,2.4788,2.4838,2.5234,2.536,2.5423,2.5871,2.5996,2.6034,2.6185,2.734,2.8652,2.8907,3.0011,3.119,3.1438,3.1511,3.1511,3.1511,3.1511,3.1511,3.1511,3.1511,3.1511,3.1511,3.1511,3.1511,3.1511,3.1511,3.1668,3.2203,3.2853,3.3547,3.4211,3.4871,3.5385,3.5577,3.56,3.56,3.56,3.56,3.56,3.56,3.6129,3.6772,3.7533,3.7567,3.7905,3.865,3.8667,3.9022,3.9774,3.9039,3.9039,3.9774,3.9774,3.9893,4.0096,4.0096,4.0096,4.0096,4.0096,4.0096,4.0096,4.0096,4.0096,4.0096,4.0096,4.0096,4.0096,4.0096,4.0096,4.0096,1.2305,1.2305,1.2338,1.2458,1.2516,1.2518,1.2645,1.2665,1.2665,1.2665,1.2665,1.2665,1.2665,1.2665,1.2841,1.3243,1.4156,1.527,1.672,1.7455,1.8341,1.9485,1.9287,1.9189,1.9287,1.9287,1.9287,1.9287,1.9287,1.9375,1.9541,1.9541,1.9629,1.987,2.0618,2.1354,2.2087,2.3259,2.4224,2.4915,2.5294,2.5473,2.5473,2.5473,2.5473,2.5511,2.5858,2.5971,2.6021,2.6373,2.6499,2.6499,2.6499,2.7637,2.9002,2.9002,3.0208,3.1511,3.1511,3.1511,3.1511,3.1511,3.1511,3.1511,3.1511,3.1511,3.1511,3.1511,3.1511,3.1511,3.1511,3.1511,3.1739,3.2492,3.2949,3.3531,3.4455,3.4941,3.5316,3.5577,3.56,3.56,3.56,3.5893,3.6197,3.6479,3.6958,3.755,3.8294,3.8345,3.8667,3.9419,3.9453,3.9656,4.0096,3.9673,3.9673,4.0096,4.0096,4.0096,4.0096,4.0096,4.0096,4.0096,4.0096,4.0096,4.0096,4.0096,4.0096,4.0096,4.0096,4.0096,4.0096,4.0096,4.0096,4.0096,1.2385,1.2385,1.2465,1.2777,1.2831,1.2918,1.3166,1.3213,1.3213,1.3213,1.3213,1.3246,1.3325,1.3325,1.3738,1.4717,1.5688,1.6345,1.6535,1.7435,1.8545,1.9913,1.9971,1.9795,1.9404,1.9404,1.9404,1.9404,1.9404,1.96,1.9971,1.9971,2.0262,2.0789,2.2601,2.2962,2.244,2.5205,2.5873,2.5229,2.6129,2.6499,2.6499,2.6499,2.6499,2.6499,2.6499,2.6499,2.6499,2.6499,2.6499,2.6499,2.6589,2.7703,2.9034,2.9097,3.0238,3.1511,3.1511,3.1511,3.1511,3.1511,3.1511,3.1511,3.1511,3.1511,3.1511,3.1511,3.1511,3.1511,3.1511,3.1511,3.1739,3.2492,3.2641,3.3145,3.4431,3.4664,3.4918,3.5515,3.56,3.5616,3.5701,3.6417,3.7218,3.7939,3.8007,3.8328,3.9056,3.9089,3.9419,4.0079,4.0096,4.0096,4.0096,4.0096,4.0096,4.0096,4.0096,4.0096,4.0096,4.0096,4.0096,4.0096,4.0096,4.0096,4.0096,4.0096,4.0096,4.0096,4.0096,4.0096,4.0096,4.0096,4.0096,4.0096,1.3013,1.3013,1.3033,1.31,1.3113,1.3133,1.32,1.3213,1.3213,1.3213,1.3213,1.3516,1.4343,1.4452,1.4538,1.4794,1.5989,1.7432,1.8986,1.9659,2.0091,2.042,2.0458,2.0419,2.0331,2.0321,2.0321,2.0321,2.0321,2.037,2.0458,2.0458,2.0873,2.1697,2.214,2.3073,2.4373,2.504,2.5664,2.6198,2.6418,2.6499,2.6499,2.6499,2.6499,2.6499,2.6499,2.6499,2.6499,2.6499,2.6499,2.6624,2.7229,2.8149,2.9129,2.9827,3.0718,3.1511,3.1511,3.1511,3.1511,3.1511,3.1511,3.1511,3.1511,3.1511,3.1511,3.1511,3.1511,3.1511,3.1511,3.1511,3.1739,3.2492,3.3039,3.3659,3.4479,3.5052,3.5447,3.5577,3.56,3.5859,3.6468,3.7212,3.7973,3.87,3.8751,3.9073,3.9825,3.9859,3.9943,4.0096,4.0096,4.0096,4.0096,4.0096,4.0096,4.0096,4.0096,4.0096,4.0096,4.0096,4.0096,4.0096,4.0096,4.0096,4.0096,4.0096,4.0096,4.0096,4.0096,4.0096,4.0096,4.0096,4.0096,4.0096,1.3213,1.3213,1.3253,1.3353,1.3373,1.3427,1.3607,1.3627,1.3627,1.3627,1.3627,1.3825,1.4413,1.4493,1.4681,1.5188,1.689,1.8358,1.9398,1.9683,2.0079,2.0566,2.0605,2.0605,2.0605,2.0605,2.0605,2.0605,2.0605,2.0605,2.0605,2.1039,2.1517,2.2027,2.2999,2.4011,2.5052,2.5511,2.6025,2.6499,2.6499,2.6499,2.6499,2.6499,2.6499,2.6499,2.6499,2.6499,2.6499,2.6499,2.6499,2.6555,2.7007,2.7986,2.9097,2.9535,3.0554,3.1511,3.1511,3.1511,3.1511,3.1511,3.1511,3.1511,3.1511,3.1511,3.1511,3.1511,3.1511,3.1511,3.1511,3.1511,3.1739,3.2492,3.3172,3.3836,3.4503,3.5184,3.56,3.56,3.5943,3.6603,3.7743,3.8193,3.8717,3.9462,3.9512,3.9706,4.0079,4.0096,4.0096,4.0096,4.0096,4.0096,4.0096,4.0096,4.0096,4.0096,4.0096,4.0096,4.0096,4.0096,4.0096,4.0096,4.0096,4.0096,4.0096,4.0096,4.0096,4.0096,4.0096,4.0096,4.0096,4.0096,4.0096,4.0096,1.336,1.336,1.3434,1.364,1.368,1.376,1.4048,1.4088,1.4088,1.4088,1.4088,1.4173,1.437,1.4538,1.5144,1.6429,1.806,1.9076,1.9283,1.9274,1.9678,2.0566,2.0605,2.0605,2.0605,2.0605,2.0605,2.0605,2.0605,2.0605,2.0605,2.1555,2.2103,2.2328,2.4192,2.5087,2.53,2.6129,2.6499,2.6499,2.6499,2.6499,2.6499,2.6499,2.6499,2.6499,2.6499,2.6499,2.6499,2.6499,2.6499,2.6521,2.6658,2.7769,2.9034,2.9192,3.0299,3.1511,3.1511,3.1511,3.1511,3.1511,3.1511,3.1511,3.1511,3.1511,3.1511,3.1511,3.1511,3.1511,3.1511,3.1511,3.1739,3.2492,3.3172,3.3836,3.4503,3.5184,3.565,3.5785,3.662,3.7675,3.887,3.9106,3.9453,4.0045,4.0096,4.0096,4.0096,4.0096,4.0096,4.0096,4.0096,4.0096,4.0096,4.0096,4.0096,4.0096,4.0096,4.0096,4.0096,4.0096,4.0096,4.0096,4.0096,4.0096,4.0096,4.0096,4.0096,4.0096,4.0096,4.0096,4.0096,4.0096,4.0096,4.0096,1.3968,1.3968,1.3981,1.4021,1.4028,1.4041,1.4082,1.4088,1.4088,1.4088,1.4088,1.4447,1.5379,1.6322,1.7698,1.9756,1.9353,1.9402,2.0323,2.0362,2.045,2.0605,2.0605,2.0605,2.0605,2.0605,2.0605,2.0605,2.0605,2.0605,2.0605,2.1555,2.2478,2.3331,2.4492,2.5476,2.6314,2.6452,2.6499,2.6499,2.6499,2.6499,2.6499,2.6499,2.6499,2.6499,2.6499,2.6499,2.6499,2.6499,2.6499,2.6624,2.7317,2.8214,2.916,2.9889,3.0777,3.1511,3.1511,3.1511,3.1511,3.1511,3.1511,3.1511,3.1511,3.1511,3.1511,3.1511,3.1511,3.1511,3.1511,3.1511,3.1739,3.2492,3.3172,3.3836,3.4503,3.5184,3.5853,3.6535,3.7879,3.8768,3.8971,3.9588,3.9994,4.0096,4.0096,4.0096,4.0096,4.0096,4.0096,4.0096,4.0096,4.0096,4.0096,4.0096,4.0096,4.0096,4.0096,4.0096,4.0096,4.0096,4.0096,4.0096,4.0096,4.0096,4.0096,4.0096,4.0096,4.0096,4.0096,4.0096,4.0096,4.0096,4.0096,4.0096,1.4088,1.4088,1.4088,1.4088,1.4088,1.4088,1.4088,1.4088,1.4088,1.4088,1.4615,1.5179,1.5662,1.7245,1.863,1.9599,1.9805,2.0079,2.0566,2.0605,2.0605,2.0605,2.0605,2.0605,2.0605,2.0605,2.0605,2.0605,2.0605,2.0605,2.0605,2.1555,2.2553,2.3551,2.4564,2.5558,2.6499,2.6499,2.6499,2.6499,2.6499,2.6499,2.6499,2.6499,2.6499,2.6499,2.6499,2.6499,2.6499,2.6499,2.6816,2.7229,2.7571,2.862,2.9797,3.0208,3.0866,3.1511,3.1511,3.1511,3.1511,3.1511,3.1511,3.1511,3.1511,3.1511,3.1511,3.1511,3.1511,3.1511,3.1511,3.1853,3.2216,3.2547,3.3495,3.426,3.4552,3.5576,3.6705,3.7872,3.8599,3.9157,3.9571,3.991,4.0096,4.0096,4.0096,4.0096,4.0096,4.0096,4.0096,4.0096,4.0096,4.0096,4.0096,4.0096,4.0096,4.0096,4.0096,4.0096,4.0096,4.0096,4.0096,4.0096,4.0096,4.0096,4.0096,4.0096,4.0096,4.0096,4.0096,4.0096,4.0096,4.0096,4.0096,4.0096]},{"header":{"parameterUnit":"m.s-1","parameterCategory":1,"la1":30.6,"la2":28.766,"lo1":-90.7593,"lo2":-88.6598,"dx":0.0162,"dy":0.0183,"nx":116,"ny":114,"refTime":"2023-02-02T06:00:00:Z","depth":0,"parameterNumber":3,"parameterNumberName":"V-component_of_WINDS"},"data":[0.0,0.0,0.0,0.0,0.0,0.0,0.0,0.0,0.0,0.0,0.0,0.0,0.0,0.0,0.0,0.0,0.0,0.0,0.0,0.0,0.0,0.0,0.0,0.0,0.0,0.0,0.0,0.0,0.0,0.0,0.0,0.0,0.0,0.0,0.0,0.0,0.0,0.0,0.0,0.0,0.0,0.0,0.0,0.0,0.0,0.0,0.0,0.0,0.0,0.0,0.0,0.0,0.0,0.0,0.0,0.0,0.0,0.0,0.0,0.0,0.0,0.0,0.0,0.0,0.0,0.0,0.0,0.0,0.0,0.0,0.0,0.0,0.0,0.0,0.0,0.0,0.0,0.0,0.0,0.0,0.0,0.0,0.0,0.0,0.0,0.0,0.0,0.0,0.0,0.0,0.0,0.0,0.0,0.0,0.0,0.0,0.0,0.0,0.0,0.0,0.0,0.0,0.0,0.0,0.0,0.0,0.0,0.0,0.0,0.0,0.0,0.0,0.0,0.0,0.0,0.0,0.0,0.0,0.0,0.0,0.0,0.0,0.0,0.0,0.0,0.0,0.0,0.0,0.0,0.0,0.0,0.0,0.0,0.0,0.0,0.0,0.0,0.0,0.0,0.0,0.0,0.0,0.0,0.0,0.0,0.0,0.0,0.0,0.0,0.0,0.0,0.0,0.0,0.0,0.0,0.0,0.0,0.0,0.0,0.0,0.0,0.0,0.0,0.0,0.0,0.0,0.0,0.0,0.0,0.0,0.0,0.0,0.0,0.0,0.0,0.0,0.0,0.0,0.0,0.0,0.0,0.0,0.0,0.0,0.0,0.0,0.0,0.0,0.0,0.0,0.0,0.0,0.0,0.0,0.0,0.0,0.0,0.0,0.0,0.0,0.0,0.0,0.0,0.0,0.0,0.0,0.0,0.0,0.0,0.0,0.0,0.0,0.0,0.0,0.0,0.0,0.0,0.0,0.0,0.0,0.0,0.0,0.0,0.0,0.0,0.0,0.0,0.0,0.0,0.0,0.0,0.0,0.0,0.0,0.0,0.0,0.0,0.0,0.0,0.0,0.0,0.0,0.0,0.0,0.0,0.0,0.0,0.0,0.0,0.0,0.0,0.0,0.0,0.0,0.0,0.0,0.0,0.0,0.0,0.0,0.0,0.0,0.0,0.0,0.0,0.0,0.0,0.0,0.0,0.0,0.0,0.0,0.0,0.0,0.0,0.0,0.0,0.0,0.0,0.0,0.0,0.0,0.0,0.0,0.0,0.0,0.0,0.0,0.0,0.0,0.0,0.0,0.0,0.0,0.0,0.0,0.0,0.0,0.0,0.0,0.0,0.0,0.0,0.0,0.0,0.0,0.0,0.0,0.0,0.0,0.0,0.0,0.0,0.0,0.0,0.0,0.0,0.0,0.0,0.0,0.0,0.0,0.0,0.0,0.0,0.0,0.0,0.0,0.0,0.0,0.0,0.0,0.0,0.0,0.0,0.0,0.0,0.0,0.0,0.0,0.0,0.0,0.0,0.0,0.0,0.0,0.0,0.0,0.0,0.0,0.0,0.0,0.0,0.0,0.0,0.0,0.0,0.0,0.0,0.0,0.0,0.0,0.0,0.0,0.0,0.0,0.0,0.0,0.0,0.0,0.0,0.0,0.0,0.0,0.0,0.0,0.0,0.0,0.0,0.0,0.0,0.0,0.0,0.0,0.0,0.0,0.0,0.0,0.0,0.0,0.0,0.0,0.0,0.0,0.0,0.0,0.0,0.0,0.0,0.0,0.0,0.0,0.0,0.0,0.0,0.0,0.0,0.0,0.0,0.0,0.0,0.0,0.0,0.0,0.0,0.0,0.0,0.0,0.0,0.0,0.0,0.0,0.0,0.0,0.0,0.0,0.0,0.0,0.0,0.0,0.0,0.0,0.0,0.0,0.0,0.0,0.0,0.0,0.0,0.0,0.0,0.0,0.0,0.0,0.0,0.0,0.0,0.0,0.0,0.0,0.0,0.0,0.0,0.0,0.0,0.0,0.0,0.0,0.0,0.0,0.0,0.0,0.0,0.0,0.0,0.0,0.0,0.0,0.0,0.0,0.0,0.0,0.0,0.0,0.0,0.0,0.0,0.0,0.0,0.0,0.0,0.0,0.0,0.0,0.0,0.0,0.0,0.0,0.0,0.0,0.0,0.0,0.0,0.0,0.0,0.0,0.0,0.0,0.0,0.0,0.0,0.0,0.0,0.0,0.0,0.0,0.0,0.0,0.0,0.0,0.0,0.0,0.0,0.0,0.0,0.0,0.0,0.0,0.0,0.0,0.0,0.0,0.0,0.0,0.0,0.0,0.0,0.0,0.0,0.0,0.0,0.0,0.0,0.0,0.0,0.0,0.0,0.0,0.0,0.0,0.0,0.0,0.0,0.0,0.0,0.0,0.0,0.0,0.0,0.0,0.0,0.0,0.0,0.0,0.0,0.0,0.0,0.0,0.0,0.0,0.0,0.0,0.0,0.0,0.0,0.0,0.0,0.0,0.0,0.0,0.0,0.0,0.0,0.0,0.0,0.0,0.0,0.0,0.0,0.0,0.0,0.0,0.0,0.0,0.0,0.0,0.0,0.0,0.0,0.0,0.0,0.0,0.0,0.0,0.0,0.0,0.0,0.0,0.0,0.0,0.0,0.0,0.0,0.0,0.0,0.0,0.0,0.0,0.0,0.0,0.0,0.0,0.0,0.0,0.0,0.0,0.0,0.0,0.0,0.0,0.0,0.0,0.0,0.0,0.0,0.0,0.0,0.0,0.0,0.0,0.0,0.0,0.0,0.0,0.0,0.0,0.0,0.0,0.0,0.0,0.0,0.0,0.0,0.0,0.0,0.0,0.0,0.0,0.0,0.0,0.0,0.0,0.0,0.0,0.0,0.0,0.0,0.0,0.0,0.0,0.0,0.0,0.0,0.0,0.0,0.0,0.0,0.0,0.0,0.0,0.0,0.0,0.0,0.0,0.0,0.0,0.0,0.0,0.0,0.0,0.0,0.0,0.0,0.0,0.0,0.0,0.0,0.0,0.0,0.0,0.0,0.0,0.0,0.0,0.0,0.0,0.0,0.0,0.0,0.0,0.0,0.0,0.0,0.0,0.0,0.0,0.0,0.0,0.0,0.0,0.0,0.0,0.0,0.0,0.0,0.0,0.0,0.0,0.0,0.0,0.0,0.0,0.0,0.0,0.0,0.0,0.0,0.0,0.0,0.0,0.0,0.0,0.0,0.0,0.0,0.0,0.0,0.0,0.0,0.0,0.0,0.0,0.0,0.0,0.0,0.0,0.0,0.0,0.0,0.0,0.0,0.0,0.0,0.0,0.0,0.0,0.0,0.0,0.0,0.0,0.0,0.0,0.0,0.0,0.0,0.0,0.0,0.0,0.0,0.0,0.0,0.0,0.0,0.0,0.0,0.0,0.0,0.0,0.0,0.0,0.0,0.0,0.0,0.0,0.0,0.0,0.0,0.0,0.0,0.0,0.0,0.0,0.0,0.0,0.0,0.0,0.0,0.0,0.0,0.0,0.0,0.0,0.0,0.0,0.0,0.0,0.0,0.0,0.0,0.0,0.0,0.0,0.0,0.0,0.0,0.0,0.0,0.0,0.0,0.0,0.0,0.0,0.0,0.0,0.0,0.0,0.0,0.0,0.0,0.0,0.0,0.0,0.0,0.0,0.0,0.0,0.0,0.0,0.0,0.0,0.0,0.0,0.0,0.0,0.0,0.0,0.0,0.0,0.0,0.0,0.0,0.0,0.0,0.0,0.0,0.0,0.0,0.0,0.0,0.0,0.0,0.0,0.0,0.0,0.0,0.0,0.0,0.0,0.0,0.0,0.0,0.0,0.0,0.0,0.0,0.0,0.0,0.0,0.0,0.0,0.0,0.0,0.0,0.0,0.0,0.0,0.0,0.0,0.0,0.0,0.0,0.0,0.0,0.0,0.0,0.0,0.0,0.0,0.0,0.0,0.0,0.0,0.0,0.0,0.0,0.0,0.0,0.0,0.0,0.0,0.0,0.0,0.0,0.0,0.0,0.0,0.0,0.0,0.0,0.0,0.0,0.0,0.0,0.0,0.0,0.0,0.0,0.0,0.0,0.0,0.0,0.0,0.0,0.0,0.0,0.0,0.0,0.0,0.0,0.0,0.0,0.0,0.0,0.0,0.0,0.0,0.0,0.0,0.0,0.0,0.0,0.0,0.0,0.0,0.0,0.0,0.0,0.0,0.0,0.0,0.0,0.0,0.0,0.0,0.0,0.0,0.0,0.0,0.0,0.0,0.0,0.0,0.0,0.0,0.0,0.0,0.0,0.0,0.0,0.0,0.0,0.0,0.0,0.0,0.0,0.0,0.0,0.0,0.0,0.0,0.0,0.0,0.0,0.0,0.0,0.0,0.0,0.0,0.0,0.0,0.0,0.0,0.0,0.0,0.0,0.0,0.0,0.0,0.0,0.0,0.0,0.0,0.0,0.0,0.0,0.0,0.0,0.0,0.0,0.0,0.0,0.0,0.0,0.0,0.0,0.0,0.0,0.0,0.0,0.0,0.0,0.0,0.0,0.0,0.0,0.0,0.0,0.0,0.0,0.0,0.0,0.0,0.0,0.0,0.0,0.0,0.0,0.0,0.0,0.0,0.0,0.0,0.0,0.0,0.0,0.0,0.0,0.0,0.0,0.0,0.0,0.0,0.0,0.0,0.0,0.0,0.0,0.0,0.0,0.0,0.0,0.0,0.0,0.0,0.0,0.0,0.0,0.0,0.0,0.0,0.0,0.0,0.0,0.0,0.0,0.0,0.0,0.0,0.0,0.0,0.0,0.0,0.0,0.0,0.0,0.0,0.0,0.0,0.0,0.0,0.0,0.0,0.0,0.0,0.0,0.0,0.0,0.0,0.0,0.0,0.0,0.0,0.0,0.0,0.0,0.0,0.0,0.0,0.0,0.0,0.0,0.0,0.0,0.0,0.0,0.0,0.0,0.0,0.0,0.0,0.0,0.0,0.0,0.0,0.0,0.0,0.0,0.0,0.0,0.0,0.0,0.0,0.0,0.0,0.0,0.0,0.0,0.0,0.0,0.0,0.0,0.0,0.0,0.0,0.0,0.0,0.0,0.0,0.0,0.0,0.0,0.0,0.0,0.0,0.0,0.0,0.0,0.0,0.0,0.0,0.0,0.0,0.0,0.0,0.0,0.0,0.0,0.0,0.0,0.0,0.0,0.0,0.0,0.0,0.0,0.0,0.0,0.0,0.0,0.0,0.0,0.0,0.0,0.0,0.0,0.0,0.0,0.0,0.0,0.0,0.0,0.0,0.0,0.0,0.0,0.0,0.0,0.0,0.0,0.0,0.0,0.0,0.0,0.0,0.0,0.0,0.0,0.0,0.0,0.0,0.0,0.0,0.0,0.0,0.0,0.0,0.0,0.0,0.0,0.0,0.0,0.0,0.0,0.0,0.0,0.0,0.0,0.0,0.0,0.0,0.0,0.0,0.0,0.0,0.0,0.0,0.0,0.0,0.0,0.0,0.0,0.0,0.0,0.0,0.0,0.0,0.0,0.0,0.0,0.0,0.0,0.0,0.0,0.0,0.0,0.0,0.0,0.0,0.0,0.0,0.0,0.0,0.0,0.0,0.0,0.0,0.0,0.0,0.0,0.0,0.0,0.0,0.0,0.0,0.0,0.0,0.0,0.0,0.0,0.0,0.0,0.0,0.0,0.0,0.0,0.0,0.0,0.0,0.0,0.0,0.0,0.0,0.0,0.0,0.0,0.0,0.0,0.0,0.0,0.0,0.0,0.0,0.0,0.0,0.0,0.0,0.0,0.0,0.0,0.0,0.0,0.0,0.0,0.0,0.0,0.0,0.0,0.0,0.0,0.0,0.0,0.0,0.0,0.0,0.0,0.0,0.0,0.0,0.0,0.0,0.0,0.0,0.0,0.0,0.0,0.0,0.0,0.0,0.0,0.0,0.0,0.0,0.0,0.0,0.0,0.0,0.0,0.0,0.0,0.0,0.0,0.0,0.0,0.0,0.0,0.0,0.0,0.0,0.0,0.0,0.0,0.0,0.0,0.0,0.0,0.0,0.0,0.0,0.0,0.0,0.9772,0.0,0.0,0.0,0.0,0.0,0.0,0.0,0.0,0.0,0.0,0.0,0.0,0.0,0.0,0.0,0.0,0.0,0.0,0.0,0.0,0.0,0.0,0.0,0.0,0.0,0.0,0.0,0.0,0.0,0.0,0.0,0.0,0.0,0.0,0.0,0.0,0.0,0.0,0.0,0.0,0.0,0.0,0.0,0.0,0.0,0.0,0.0,0.0,0.0,0.0,0.0,0.0,0.0,0.0,0.0,0.0,0.0,0.0,0.0,0.0,0.0,0.0,0.0,0.0,0.0,0.0,0.0,0.0,0.0,0.0,0.0,0.0,0.0,0.0,0.0,0.0,0.0,0.0,0.0,0.0,0.0,0.0,0.0,0.0,0.0,0.0,0.0,0.0,0.0,0.0,0.0,0.0,0.0,0.0,0.0,0.0,0.0,0.0,0.0,0.0,0.0,0.0,0.0,0.0,0.0,0.0,0.0,0.0,0.0,0.0,0.0,0.0,0.0,0.0,0.0,0.0,1.0303,0.0,0.0,0.0,0.0,0.0,0.0,0.0,0.0,0.0,0.0,0.0,0.0,0.0,0.0,0.0,0.0,0.0,0.0,0.0,0.0,0.0,0.0,0.0,0.0,0.0,0.0,0.0,0.0,0.0,0.0,0.0,0.0,0.0,0.0,0.0,0.0,0.0,0.0,0.0,0.0,0.0,0.0,0.0,0.0,0.0,0.0,0.0,0.0,0.0,0.0,0.0,0.0,0.0,0.0,0.0,0.0,0.0,0.0,0.0,0.0,0.0,0.0,0.0,0.0,0.0,0.0,0.0,0.0,0.0,0.0,0.0,0.0,0.0,0.0,0.0,0.0,0.0,0.0,0.0,0.0,0.0,0.0,0.0,0.0,0.0,0.0,0.0,0.0,0.0,0.0,0.0,0.0,0.0,0.0,0.0,0.0,0.0,0.0,0.0,0.0,0.0,0.0,0.0,0.0,0.0,0.0,0.0,0.0,1.0303,1.0303,1.0303,1.0303,1.0303,1.0303,1.0303,1.0303,1.0303,0.0,0.0,0.0,0.0,0.0,0.0,0.0,0.0,0.0,0.0,0.0,0.0,0.0,0.0,0.0,0.0,0.0,0.0,0.0,0.0,0.0,0.0,0.0,0.0,0.0,0.0,0.0,0.0,0.0,0.0,0.0,0.0,0.0,0.0,0.0,0.0,0.0,0.0,0.0,1.7556,1.7551,1.755,1.7476,1.5769,0.0,0.0,0.0,0.0,0.0,0.0,0.0,0.0,0.0,0.0,0.0,0.0,0.0,0.0,0.0,0.0,0.0,0.0,0.0,0.0,0.0,0.0,0.0,0.0,0.0,0.0,0.0,0.0,0.0,0.0,0.0,0.0,0.0,0.0,0.0,0.0,0.0,0.0,0.0,0.0,0.0,0.0,0.0,0.8307,0.8307,0.0,0.0,0.0,0.0,0.0,0.0,0.0,0.0,0.0,0.0,0.0,0.0,0.0,1.0303,1.0303,1.0303,1.0303,1.0303,1.0303,1.0303,1.0303,1.0303,1.0303,1.0303,1.0303,0.0,1.0303,1.0303,0.0,0.0,0.0,0.0,0.0,0.0,0.0,0.0,0.0,0.0,0.0,0.0,0.0,0.0,0.0,0.0,0.0,0.0,0.0,0.0,0.0,0.0,0.0,0.0,0.0,0.0,0.0,0.0,0.0,0.0,0.0,0.0,0.0,0.0,0.0,0.0,1.6893,1.7535,1.7909,1.7904,1.7898,1.787,1.6972,1.6253,1.5727,1.5559,0.0,0.0,0.0,0.0,0.0,0.0,0.0,0.0,0.0,0.0,0.0,0.0,0.0,0.0,0.0,0.0,0.0,0.0,0.0,0.0,0.0,0.0,0.0,0.0,0.0,0.0,0.0,0.0,0.0,0.0,0.0,0.0,0.0,0.0,0.0,0.0,0.0,0.0,0.0,0.8457,0.873,0.873,0.9084,0.9338,0.0,0.0,0.0,0.0,0.0,0.0,0.0,0.0,0.0,1.0303,1.0303,1.0303,1.0303,1.0303,1.0303,1.0303,1.0303,1.0303,1.0303,1.0303,1.0303,1.0303,1.0303,1.0303,1.0303,1.0303,1.0303,1.0303,0.0,0.0,0.0,0.0,1.0303,1.0303,0.0,0.0,0.0,0.0,0.0,0.0,0.0,0.0,0.0,0.0,0.0,0.0,0.0,0.0,0.0,1.5799,0.0,0.0,0.0,0.0,0.0,0.0,0.0,0.0,0.0,0.0,0.0,1.7244,1.7885,1.833,1.8545,1.8552,1.8556,1.8548,1.8505,1.781,1.6673,1.6548,1.5927,0.0,0.0,0.0,0.0,0.0,0.0,0.0,0.0,0.0,0.0,0.0,0.0,0.0,0.0,0.0,0.0,0.0,0.0,0.0,0.0,0.0,0.0,0.0,0.0,0.0,0.0,0.0,0.0,0.0,0.0,0.0,0.0,0.0,0.0,0.0,0.0,0.0,0.0,0.8906,0.9143,0.9143,0.9523,0.9776,0.0,0.0,0.0,0.0,0.0,0.0,1.0303,1.0303,1.0303,1.0303,1.0303,1.0303,1.0303,1.0303,1.0303,1.0303,1.041,1.0439,1.0469,1.0577,1.0625,1.0625,1.0625,1.0625,1.0616,1.0391,1.0303,1.0303,1.0303,1.0303,1.0312,1.042,1.0439,1.0479,0.0,0.0,0.0,0.0,0.0,0.0,0.0,0.0,0.0,0.0,0.0,0.0,0.0,0.0,1.6438,1.7134,1.7199,1.6876,0.0,0.0,0.0,0.0,0.0,0.0,0.0,0.0,0.0,1.8979,1.9021,1.9455,2.028,2.0342,2.0346,2.0273,2.034,1.9379,1.7718,1.7588,1.6943,1.6026,0.0,0.0,0.0,0.0,0.0,0.0,0.0,0.0,0.0,0.0,0.0,0.0,0.0,0.0,0.0,0.0,0.0,0.0,0.0,0.0,0.0,0.0,0.0,0.0,0.0,0.0,0.0,0.0,0.0,0.0,0.0,0.0,0.0,0.0,0.0,0.0,0.0,0.0,0.0,0.9563,0.999,0.0,0.0,0.0,0.0,1.0303,1.0303,1.0303,1.0303,1.0303,1.0303,1.0303,1.0303,1.0303,1.0303,1.0303,1.0303,1.0303,1.0684,1.0879,1.0868,1.133,1.1538,1.1538,1.1538,1.1538,1.1479,1.0635,1.0303,1.0303,1.0303,1.0303,1.0352,1.0732,1.0879,1.0937,0.0,0.0,0.0,0.0,0.0,0.0,0.0,0.0,0.0,0.0,0.0,0.0,0.0,1.6667,1.7112,1.7281,1.7308,1.7178,1.6895,0.0,0.0,0.0,0.0,0.0,0.0,0.0,1.8393,1.8712,1.9402,1.9909,2.0208,2.0359,2.0423,2.0399,2.0429,2.0072,1.9433,1.8725,1.7829,1.6847,1.6634,1.5786,0.0,0.0,0.0,0.0,0.0,0.0,0.0,0.0,0.0,0.0,0.0,0.0,0.0,0.0,0.0,0.0,0.0,0.0,0.0,0.0,0.0,0.0,0.0,0.0,0.0,0.0,0.0,0.0,0.0,0.0,0.0,0.0,0.0,0.0,0.0,0.0,0.0,1.0049,0.9886,0.0,1.0264,0.9981,0.9922,1.0283,1.0303,1.0303,1.0303,1.0303,1.0303,1.0303,1.0303,1.0303,1.0303,1.0547,1.0684,1.0693,1.1144,1.1349,1.1359,1.1506,1.1606,1.1606,1.1606,1.1606,1.1577,1.1252,1.1145,1.1145,1.1145,1.1145,1.1144,1.1291,1.1349,1.1369,0.0,0.0,0.0,0.0,0.0,0.0,0.0,0.0,0.0,0.0,0.0,1.6342,1.6814,1.7417,1.7834,1.795,1.7975,1.782,1.7461,0.0,0.0,0.0,0.0,0.0,0.0,1.8484,1.8938,1.8938,1.9659,1.9991,1.9996,2.0199,2.0291,2.0298,2.039,2.0429,2.0351,1.9694,1.881,1.7818,1.7577,1.6766,1.5685,0.0,0.0,0.0,0.0,0.0,0.0,0.0,0.0,0.0,0.0,0.0,0.0,0.0,0.0,0.0,0.0,0.0,0.0,0.0,0.0,0.0,0.0,0.0,0.0,0.0,0.0,0.0,0.0,0.0,0.0,0.0,0.0,0.0,0.0,0.0,1.0235,1.0059,0.9716,0.9637,1.0,0.9705,0.9716,1.0264,1.0303,1.0303,1.0303,1.0303,1.0303,1.0303,1.044,1.0488,1.0488,1.0918,1.1154,1.1133,1.1594,1.1809,1.1809,1.1966,1.2034,1.2034,1.2034,1.2034,1.2034,1.2034,1.2034,1.2018,1.1714,1.1606,1.1626,1.1751,1.1809,1.1829,0.0,0.0,0.0,0.0,0.0,0.0,0.0,0.0,0.0,0.0,1.6006,1.6567,1.8217,1.8354,1.8603,1.9239,1.9297,1.8857,1.7802,1.8107,0.0,0.0,0.0,0.0,1.8221,1.9238,1.9767,1.9792,1.9773,1.9797,1.979,1.9991,2.01,2.0115,2.0375,2.0458,2.0391,2.0393,1.9833,1.8936,1.8726,1.794,1.6882,0.0,0.0,0.0,0.0,0.0,0.0,0.0,0.0,0.0,0.0,0.0,0.0,0.0,0.0,0.0,0.0,0.0,0.0,0.0,0.0,0.0,0.0,0.0,0.0,0.0,0.0,0.0,0.0,0.0,0.0,0.0,0.0,0.0,1.0303,1.0303,1.0098,0.9558,0.9498,0.9498,0.9498,0.9498,0.9716,1.0264,1.0303,1.0303,1.0303,1.0303,1.0312,1.0322,1.0703,1.0918,1.0928,1.1389,1.1626,1.1636,1.2031,1.2223,1.2242,1.2686,1.2905,1.2905,1.2905,1.2905,1.2905,1.2905,1.2905,1.2817,1.1966,1.1645,1.1704,1.2067,1.2233,1.2311,0.0,0.0,0.0,0.0,0.0,0.0,0.0,0.0,0.0,0.0,1.6401,1.7182,1.8084,1.8827,1.9254,1.9294,1.9297,1.9112,1.8676,0.0,0.0,0.0,0.0,0.0,1.8492,1.8785,1.9038,1.9227,1.9324,1.9467,1.965,1.9805,1.993,2.003,2.0159,2.0286,2.0393,2.0391,2.0242,1.9961,1.9616,1.8796,1.7734,0.0,0.0,0.0,0.0,0.0,0.0,0.0,0.0,0.0,0.0,0.0,0.0,0.0,0.0,0.0,0.0,0.0,0.0,0.0,0.0,0.0,0.0,0.0,0.0,0.0,0.0,0.0,0.0,0.0,0.0,0.0,0.0,1.0303,1.0303,1.0303,1.0098,0.9558,0.9498,0.9498,0.9498,0.9498,0.9716,1.0264,1.0303,1.0303,1.0303,1.0303,1.042,1.0732,1.085,1.1064,1.1398,1.1826,1.2051,1.2051,1.249,1.2705,1.2705,1.2856,1.2905,1.2905,1.2905,1.2905,1.2905,1.2905,1.2905,1.2886,1.2641,1.2543,1.2553,1.2656,1.29,1.3174,0.0,0.0,0.0,0.0,0.0,0.0,0.0,0.0,0.0,0.0,1.6429,1.7239,1.7975,1.8922,1.935,1.9031,1.9107,1.9024,1.8697,0.0,0.0,0.0,0.0,1.8547,1.843,1.8537,1.8688,1.8825,1.9023,1.9193,1.9353,1.9592,1.9762,1.9841,2.0014,2.0186,2.0322,2.0381,2.0398,2.0374,2.0052,1.9484,1.8769,1.8367,1.7391,1.6169,1.5704,1.475,1.3693,1.3486,0.0,0.0,0.0,0.0,0.0,0.0,0.0,0.0,0.0,0.0,0.0,0.0,0.0,0.0,0.0,0.0,0.0,0.0,0.0,0.0,0.0,0.0,0.0,0.0,1.0117,1.0303,1.0303,1.0108,0.9765,0.9219,0.8958,0.8918,0.9139,0.9159,0.9478,1.0244,1.0303,1.0303,1.0303,1.0469,1.0654,1.0878,1.1248,1.1582,1.1836,1.2275,1.25,1.251,1.2764,1.2905,1.2905,1.2905,1.2905,0.0,1.2905,1.3041,1.3282,1.319,1.3298,0.0,0.0,0.0,0.0,0.0,1.3555,1.3743,0.0,0.0,0.0,0.0,0.0,0.0,0.0,0.0,0.0,0.0,0.0,1.6813,1.783,1.8631,1.8965,1.8632,1.8816,1.8743,0.0,0.0,0.0,1.8146,1.8361,1.8333,1.8097,1.8323,1.8462,1.8491,1.878,1.8923,1.8958,1.9353,1.9541,1.9564,1.9912,2.0111,2.0194,2.035,2.0403,2.0371,2.0205,2.0,1.9784,1.9353,1.8405,1.7252,1.6928,1.5797,1.4464,1.4428,0.0,0.0,0.0,0.0,0.0,0.0,0.0,0.0,0.0,0.0,0.0,0.0,0.0,0.0,0.0,0.0,0.0,0.0,0.0,0.0,0.0,0.0,0.0,0.0,1.0303,1.0283,1.0225,0.9745,0.9239,0.8756,0.8337,0.8234,0.8655,0.8797,0.9279,1.0225,1.0303,1.0322,1.0371,0.0,0.0,0.0,0.0,1.2233,1.2281,1.2686,1.2905,1.2905,1.2905,1.2905,1.2905,1.2905,1.2905,1.2905,1.3052,1.3357,1.3751,1.3706,1.3982,1.4382,1.3804,1.3574,1.3623,1.3968,1.4133,0.0,0.0,0.0,0.0,0.0,0.0,0.0,0.0,0.0,0.0,1.5096,1.5324,1.5951,1.7439,1.7751,1.8057,1.8551,1.8659,1.8537,0.0,0.0,1.7889,1.7889,1.767,1.7527,1.7486,1.7527,1.7659,1.7868,1.8194,1.8469,1.867,1.8974,1.9162,1.9291,1.9669,1.996,2.0129,2.0312,2.0366,2.032,2.0346,2.0192,1.9908,1.939,1.8897,1.8396,1.7738,1.6646,1.546,1.5199,1.4222,1.2957,1.2081,0.0,0.0,0.0,0.0,0.0,0.0,0.0,0.0,0.0,0.0,0.0,0.0,0.0,0.0,0.0,0.0,0.0,0.0,0.0,0.0,1.0293,1.0303,1.0147,0.9716,0.9199,0.8817,0.8716,0.8999,0.9059,0.8736,0.9478,1.0079,1.0283,1.0303,1.043,1.0771,1.0869,1.1219,1.1931,1.2116,1.2379,1.2754,1.2842,1.2905,1.2905,0.0,0.0,1.2905,1.2905,1.2905,1.2949,1.3871,1.4,1.3626,1.4497,1.4818,1.4683,1.4167,1.3987,1.3997,1.4075,1.4328,1.4658,0.0,0.0,0.0,0.0,0.0,0.0,0.0,0.0,0.0,0.0,1.4727,1.5387,1.6159,1.7043,1.7597,1.7687,1.7848,0.0,0.0,1.7532,1.7479,1.7313,1.7142,1.7052,1.7052,1.7052,1.7195,1.7511,1.7804,1.802,1.8166,1.8409,1.8581,1.8664,1.8937,1.9337,1.9812,1.9977,2.0161,2.0346,2.0395,2.0297,2.0103,1.9681,1.9291,1.8931,1.8344,1.7543,1.668,1.6209,1.5139,1.3831,1.2864,1.1723,1.0558,0.0,0.0,0.0,0.0,0.0,0.0,0.0,0.0,0.0,0.0,0.0,0.0,0.0,0.0,0.9367,0.0,0.0,1.0303,1.0303,1.0079,0.9804,0.9538,0.8797,0.8296,0.8296,0.8259,0.8374,0.8675,0.9179,0.9716,1.0264,1.0498,1.0684,1.0898,1.1307,1.1745,1.2194,1.2418,1.2656,1.2905,1.2905,1.2905,1.2905,1.2905,1.2905,1.2915,1.3096,1.3193,1.3238,1.4023,1.4317,1.4368,1.5137,1.5321,1.5078,1.4825,1.4747,1.4747,1.4747,1.4912,1.5098,0.0,0.0,0.0,0.0,0.0,0.0,0.0,0.0,0.0,0.0,0.0,1.4793,1.5103,1.6237,1.6855,0.0,0.0,0.0,0.0,1.6799,1.6878,1.668,1.6602,1.6617,1.6699,1.6699,1.6879,1.7199,1.7482,1.7631,1.7625,1.7905,1.8014,1.8035,1.8293,1.8804,1.9503,1.9721,2.0031,2.037,2.0371,2.0355,2.0263,1.987,1.9479,1.9091,1.8599,1.8035,1.7447,1.6885,1.5911,1.4725,1.3649,1.2291,1.0876,0.965,0.9347,0.0,0.0,0.0,0.0,0.0,0.0,0.0,0.0,0.8432,0.8499,0.9009,0.9288,0.9512,0.9709,1.0049,1.0303,1.0303,0.9843,0.9459,0.9359,0.8513,0.785,0.7746,0.7482,0.7682,0.8614,0.8878,0.9359,1.0235,1.0674,1.0947,1.1035,1.1775,1.2242,1.233,1.2695,1.2905,1.2905,1.2905,1.2905,1.2905,1.2905,1.2954,1.3042,1.335,1.3555,1.3652,1.4046,1.4683,1.5399,1.5574,1.5542,1.541,1.541,1.541,1.541,1.541,1.541,1.541,0.0,0.0,0.0,0.0,0.0,0.0,0.0,0.0,0.0,0.0,0.0,0.0,0.0,0.0,0.0,0.0,0.0,0.0,1.5642,1.5684,1.5868,1.6246,1.593,1.5933,1.6355,1.6369,1.6514,1.6853,1.7183,1.7339,1.7351,1.7631,1.7731,1.7786,1.8511,1.9059,1.9451,1.9998,2.0264,2.03,2.0309,2.0312,2.0238,1.9662,1.9265,1.8914,1.8086,1.7412,1.6837,1.6474,1.6062,1.5397,1.3796,1.2962,1.2143,0.9948,0.9347,0.9249,0.8547,0.8361,0.8356,0.8327,0.8326,0.8434,0.0,0.8569,0.8473,0.9347,0.9188,0.9161,1.006,1.0263,1.0303,1.0303,0.9843,0.9339,0.8857,0.8275,0.7704,0.7175,0.7931,0.8553,0.8683,0.9558,1.0176,1.0303,1.0674,1.1084,1.1508,1.1963,1.2389,1.2803,1.2876,1.2905,1.2905,1.2905,1.2905,1.2905,1.2905,1.3101,1.3437,1.3486,1.3685,1.4065,1.4521,1.5343,1.6318,1.5687,1.5419,1.541,1.541,1.541,1.541,1.541,1.541,1.541,0.0,0.0,0.0,0.0,0.0,0.0,0.0,0.0,0.0,0.0,0.0,0.0,0.0,0.0,0.0,0.0,0.0,0.0,1.4929,1.533,1.5562,1.5564,1.5666,1.5811,1.6011,1.6011,1.6163,1.6501,1.6644,1.6722,1.6722,1.7031,1.7179,1.7203,1.7732,1.8422,1.9186,1.9481,1.9892,2.0368,2.0351,2.0361,2.031,1.9779,1.9351,1.8896,1.8007,1.7535,0.0,0.0,1.5791,1.4907,1.3465,1.2348,1.1237,0.9522,0.9037,0.8928,0.8338,0.8193,0.821,0.8269,0.8281,0.8477,0.919,0.917,0.9122,0.9478,0.962,0.9715,0.9806,1.0088,1.0303,0.0,0.9578,0.8958,0.8736,0.7938,0.728,0.7021,0.7992,0.8695,0.8695,0.9099,0.9729,1.0585,1.1066,1.1506,1.1924,1.2363,1.2695,1.2895,1.2905,1.2905,1.2905,1.2905,1.2905,1.2905,1.2905,1.3105,1.3516,1.3734,1.4211,1.4864,1.5068,1.5417,1.5835,1.5526,1.541,1.541,1.541,1.541,1.541,1.541,1.541,1.541,0.0,0.0,0.0,0.0,0.0,0.0,0.0,0.0,0.0,0.0,0.0,0.0,0.0,0.0,0.0,0.0,0.0,0.0,0.0,1.4635,1.4942,1.4937,1.5255,1.5551,1.5784,1.5799,1.5955,1.6301,1.6301,1.6301,1.6315,1.6541,1.6712,1.6828,1.7283,1.8046,1.9026,1.9307,1.9803,2.0398,2.0385,2.0377,2.0327,1.9726,1.917,1.8593,1.7876,1.7558,0.0,0.0,1.5165,1.419,1.2705,1.1491,1.0362,0.9179,0.8847,0.8785,0.844,0.8238,0.8161,0.8325,0.8246,0.8406,0.9356,0.9469,0.9384,0.9484,0.9696,0.9784,0.9538,0.9824,1.0079,1.0079,0.9299,0.8643,0.85,0.7627,0.7,0.7,0.7724,0.8349,0.8675,0.8958,0.9641,1.0807,1.133,1.178,1.2184,1.2646,1.2905,1.2905,1.2905,1.2905,1.2905,1.2905,1.2905,1.2905,1.2998,1.3271,1.3675,1.4211,1.4796,1.541,1.541,1.541,1.541,1.541,1.541,1.541,1.541,1.541,1.541,1.541,1.541,1.541,0.0,0.0,0.0,0.0,0.0,0.0,0.0,0.0,0.0,0.0,0.0,0.0,0.0,0.0,0.0,0.0,0.0,0.0,0.0,1.3254,1.3648,1.4485,1.4533,1.4937,1.5784,1.5799,1.5955,1.6301,1.6301,1.6301,1.6301,1.6315,1.6488,1.6821,1.7635,1.8358,1.9055,1.9906,2.0315,2.0398,2.0326,2.0338,2.0294,1.9381,1.8562,1.7888,1.7537,0.0,0.0,0.0,1.4127,1.3486,1.1488,1.0605,1.013,0.9178,0.8947,0.8982,0.8984,0.8599,0.829,0.8692,0.8398,0.8271,0.9272,0.9102,0.8869,0.9399,0.9099,0.8898,0.9399,0.9518,0.9518,0.9518,0.9059,0.8521,0.7995,0.7384,0.7,0.7,0.7021,0.7474,0.0,0.9637,1.0429,1.0879,1.133,1.178,1.2184,1.2646,1.2905,1.2905,1.2905,1.2905,1.2905,1.2905,1.2905,1.2905,1.3291,1.3685,1.4114,1.4962,1.5362,1.541,1.541,1.541,1.541,1.541,1.541,1.541,1.541,1.541,1.541,1.541,1.541,1.541,0.0,0.0,0.0,0.0,0.0,0.0,0.0,0.0,0.0,0.0,0.0,0.0,0.0,0.0,0.0,0.0,0.0,0.0,0.0,1.348,1.3917,1.4485,1.4752,1.5043,1.5329,1.5344,1.5389,1.5492,1.5492,1.5667,1.5983,1.6421,1.6686,1.6837,1.7838,1.8537,1.9037,1.9688,2.015,2.0404,2.0387,2.0378,2.0266,1.9116,1.8229,1.7497,0.0,0.0,0.0,0.0,0.0,1.2569,1.1213,1.0259,0.9415,0.83,0.8198,0.8448,0.8359,0.8208,0.8171,0.8618,0.8593,0.8547,0.8893,0.9099,0.9079,0.8541,0.9139,0.9498,0.8602,0.9319,0.9804,0.9079,0.8817,0.8521,0.7974,0.7384,0.7,0.7,0.7363,0.0,0.0,0.0,0.0,1.1287,1.1748,1.2197,1.2637,1.2803,1.2905,1.2905,1.2905,1.2905,1.2905,1.2905,1.3018,1.3301,1.4014,1.4424,1.458,1.5156,1.541,1.541,1.541,1.541,1.541,1.541,1.541,1.541,1.541,1.541,1.541,1.541,1.541,1.541,0.0,0.0,0.0,0.0,0.0,0.0,0.0,0.0,0.0,0.0,0.0,0.0,0.0,0.0,0.0,0.0,0.0,0.0,0.0,0.0,1.3576,1.3966,1.4426,1.4737,1.4876,1.4891,1.4953,1.5104,1.5104,1.5344,1.5813,1.6353,1.6686,1.685,1.7948,1.8641,1.9037,1.9702,2.0136,2.0388,2.0315,2.013,1.9779,1.8639,1.7595,0.0,0.0,0.0,0.0,0.0,0.0,1.1176,1.0053,0.9368,0.8844,0.8174,0.8299,0.8609,0.832,0.8114,0.8032,0.8342,0.8247,0.8144,0.8378,0.8817,0.9019,0.8316,0.9159,0.9637,0.8419,0.9039,0.9439,0.8561,0.8419,0.8214,0.7655,0.7238,0.7,0.7,0.7342,0.7929,0.0,0.0,0.0,1.149,1.1973,1.2398,1.2876,1.2905,1.2905,1.2905,1.2905,1.2905,1.2905,1.3027,1.3398,1.3975,1.4521,1.4891,1.5019,1.5283,1.541,1.541,1.541,1.541,1.541,1.541,1.541,1.541,1.541,1.541,1.541,1.541,1.5508,1.5644,0.0,0.0,0.0,0.0,0.0,0.0,0.0,0.0,0.0,0.0,0.0,0.0,0.0,0.0,0.0,0.0,0.0,0.0,0.0,0.0,0.0,1.3124,1.363,1.4084,1.4485,1.4501,1.469,1.5074,1.5089,1.5344,1.5798,1.6163,1.6501,1.6888,1.8015,1.8691,1.9059,1.9939,2.034,2.0377,2.0137,1.9603,1.8874,1.7937,0.0,0.0,0.0,0.0,0.0,1.1271,1.0477,0.9387,0.8091,0.8001,0.8413,0.8656,0.9047,0.9299,0.8797,0.8275,0.7899,0.7899,0.7468,0.7196,0.7725,0.8275,0.8655,0.8655,0.9099,0.9319,0.8756,0.8695,0.8541,0.7953,0.7878,0.7683,0.7084,0.7,0.7,0.0,0.7,0.0,0.0,0.0,0.0,1.1548,0.0,1.2418,1.2886,1.2905,1.2905,1.2905,1.2905,1.2915,1.2935,1.335,1.3984,1.4813,1.4805,1.5029,1.541,1.541,1.541,1.541,1.541,1.541,1.541,1.541,1.541,1.541,1.541,1.541,1.541,1.5439,1.5703,1.6105,0.0,0.0,0.0,0.0,0.0,0.0,0.0,0.0,0.0,0.0,0.0,0.0,0.0,0.0,0.0,0.0,0.0,0.0,0.0,0.0,0.0,0.0,0.0,0.0,0.0,0.0,0.0,0.0,0.0,1.53,1.5664,1.6349,1.685,1.7219,1.826,1.8851,1.9136,1.9891,2.0232,2.0193,0.0,1.8985,1.8364,0.0,0.0,0.0,0.0,0.0,1.0216,0.9904,0.9095,0.8132,0.7698,0.7658,0.7776,0.7649,0.7933,0.8275,0.8139,0.7995,0.7899,0.7899,0.7787,0.7593,0.7301,0.7676,0.8098,0.8098,0.8837,0.9219,0.8275,0.8756,0.8849,0.7461,0.76,0.0,0.7084,0.7,0.7,0.7,0.7,0.7595,0.9149,0.9689,0.0,0.0,1.2471,1.2764,1.2895,1.2905,1.2905,1.2905,1.2905,1.3027,1.334,1.4092,1.457,1.4785,1.5107,1.5312,1.541,1.541,1.541,1.541,1.541,1.541,1.541,1.541,1.541,1.541,1.541,1.541,1.5449,1.5781,1.5997,1.6183,0.0,0.0,0.0,0.0,0.0,0.0,0.0,0.0,0.0,0.0,0.0,0.0,0.0,0.0,0.0,0.0,0.0,0.0,0.0,0.0,0.0,0.0,0.0,0.0,0.0,0.0,0.0,0.0,0.0,0.0,0.0,1.657,1.7183,1.7505,1.8399,1.8984,1.9325,1.9942,0.0,0.0,0.0,0.0,0.0,0.0,0.0,0.0,0.0,0.0,0.8557,0.8192,0.7555,0.6982,0.7405,0.7455,0.7368,0.7484,0.7701,0.785,0.7579,0.751,0.751,0.751,0.751,0.7426,0.7084,0.7468,0.7899,0.7899,0.8756,0.9179,0.8098,0.8582,0.8687,0.7224,0.728,0.7384,0.7042,0.7,0.7,0.7,0.7134,0.7845,0.9402,0.9902,1.0772,0.0,1.2744,1.2905,1.2905,1.2905,1.2905,1.2905,1.2905,1.3174,1.3753,1.4443,1.4873,1.5068,1.5293,1.541,1.541,1.541,1.541,1.541,0.0,1.541,1.541,1.541,1.541,1.541,1.541,1.5527,1.5723,1.6007,1.6339,1.6741,0.0,0.0,0.0,0.0,0.0,0.0,0.0,0.0,0.0,0.0,0.0,0.0,0.0,0.0,0.0,0.0,0.0,0.0,0.0,0.0,0.0,0.0,0.0,0.0,0.0,0.0,0.0,0.0,0.0,0.0,0.0,0.0,0.0,0.0,0.0,0.0,0.0,0.0,0.0,0.0,0.0,0.0,0.0,0.0,0.0,0.0,0.0,0.8756,0.7035,0.6631,0.626,0.6125,0.7102,0.7206,0.7048,0.7623,0.7787,0.7663,0.7147,0.7,0.7,0.7,0.7,0.7,0.7,0.7405,0.7829,0.7974,0.8736,0.9099,0.818,0.8378,0.8321,0.7189,0.7,0.7,0.7,0.7,0.7,0.7,0.7303,0.8133,0.9744,1.0211,1.1096,1.2769,1.2905,1.2905,1.2905,1.2905,1.2925,1.2983,1.3042,1.3418,1.4182,1.4648,1.5049,1.541,1.541,1.541,1.541,1.541,1.541,1.541,0.0,0.0,1.541,1.541,1.541,1.542,1.5478,1.5732,1.6105,1.6222,1.675,1.7425,0.0,0.0,0.0,0.0,0.0,0.0,0.0,0.0,0.0,0.0,0.0,0.0,0.0,0.0,0.0,0.0,0.0,0.0,0.0,0.0,0.0,0.0,0.0,0.0,0.0,0.0,0.0,0.0,0.0,0.0,0.0,0.0,0.0,0.0,0.0,0.0,0.0,0.0,0.0,0.0,0.0,0.0,0.0,0.0,0.0,0.0,0.9552,0.8161,0.7035,0.6631,0.6372,0.6253,0.6399,0.6546,0.6731,0.7066,0.7147,0.7133,0.7021,0.7,0.7,0.7,0.7,0.7,0.7,0.7084,0.7419,0.837,0.8704,0.8777,0.8594,0.8635,0.8321,0.7189,0.7,0.7,0.7,0.7,0.7,0.7,0.7303,0.8155,0.9829,1.0243,0.0,0.0,0.0,1.2905,1.2905,1.2905,1.3037,1.3389,1.3714,1.416,1.4668,1.5088,1.5342,1.541,1.541,1.541,1.541,1.541,1.541,1.541,1.541,0.0,1.541,1.541,1.541,1.5449,1.584,1.6026,1.6183,1.6917,1.7288,1.7432,0.0,0.0,0.0,0.0,0.0,0.0,0.0,0.0,0.0,0.0,0.0,0.0,0.0,0.0,0.0,0.0,0.0,0.0,0.0,0.0,0.0,0.0,0.0,0.0,0.0,0.0,0.0,0.0,0.0,0.0,0.0,0.0,0.0,0.0,0.0,0.0,0.0,0.0,0.0,0.0,0.0,0.0,0.0,0.0,0.0,0.0,0.0,0.7724,0.7035,0.6631,0.6411,0.6292,0.6222,0.6391,0.6647,0.6913,0.7,0.7,0.7,0.7,0.7,0.7,0.7,0.7,0.7,0.7,0.7147,0.7703,0.8288,0.8513,0.7931,0.83,0.8321,0.7189,0.7,0.7,0.7,0.7,0.7,0.7,0.7428,0.8304,0.9792,1.0027,1.0872,1.2764,1.2535,1.251,1.2881,1.3111,1.3301,1.3496,1.4141,1.457,1.4813,1.5205,1.541,1.541,1.541,1.541,1.541,1.541,1.541,1.541,1.541,0.0,1.541,1.541,1.5547,1.5801,1.6007,1.6378,1.6838,1.7259,1.7519,1.7734,0.0,0.0,0.0,0.0,0.0,0.0,0.0,0.0,0.0,0.0,0.0,0.0,0.0,0.0,0.0,0.0,0.0,0.0,0.0,0.0,0.0,0.0,0.0,0.0,0.0,0.0,0.0,0.0,0.0,0.0,0.0,0.0,0.0,0.0,0.0,0.0,0.0,0.0,0.0,0.0,0.0,0.0,0.0,0.0,0.0,0.0,0.0,0.7442,0.7035,0.6631,0.6411,0.6292,0.6222,0.6391,0.6647,0.6913,0.6915,0.6852,0.6979,0.6915,0.6852,0.6979,0.7,0.7,0.7,0.7,0.7042,0.7168,0.8,0.839,0.7377,0.8021,0.8321,0.7189,0.7,0.7,0.7,0.7,0.7,0.7,0.7539,0.8428,0.9763,0.9838,0.0,1.2749,0.0,0.0,1.2983,1.333,1.3594,1.3769,1.4434,1.4834,1.4922,1.5244,1.541,1.541,1.541,1.541,1.541,1.541,1.541,1.541,1.541,0.0,0.0,1.5508,1.5782,1.6114,1.63,1.6799,1.7393,1.749,1.7725,1.8008,0.0,0.0,0.0,0.0,0.0,0.0,0.0,0.0,0.0,0.0,0.0,0.0,0.0,0.0,0.0,0.0,0.0,0.0,0.0,0.0,0.0,0.0,0.0,0.0,0.0,0.0,0.0,0.0,0.0,0.0,0.0,0.0,0.0,0.0,0.0,0.0,0.0,0.0,0.0,0.0,0.0,0.0,0.0,0.0,0.0,0.0,0.0,0.7442,0.7035,0.6631,0.6411,0.6292,0.6222,0.6391,0.6647,0.6913,0.6668,0.6371,0.6873,0.6641,0.6392,0.6873,0.7,0.7,0.7,0.7,0.7147,0.7704,0.8296,0.8521,0.7933,0.8296,0.8321,0.7189,0.7,0.7,0.7,0.7,0.7,0.7,0.7539,0.8428,0.9763,0.9838,1.0652,1.2749,0.0,0.0,1.3428,1.3486,1.3857,1.4648,1.4774,1.4971,1.5352,1.5391,1.541,1.541,1.541,1.541,1.541,1.541,1.541,1.541,1.541,0.0,0.0,1.587,1.6056,1.6173,1.6975,1.7314,1.7432,1.7812,1.7978,1.8008,0.0,0.0,0.0,0.0,0.0,0.0,0.0,0.0,0.0,0.0,0.0,0.0,0.0,0.0,0.0,0.0,0.0,0.0,0.0,0.0,0.0,0.0,0.0,0.0,0.0,0.0,0.0,0.0,0.0,0.0,0.0,0.0,0.0,0.0,0.0,0.0,0.0,0.0,0.0,0.0,0.0,0.0,0.0,0.0,0.0,0.0,0.0,0.0,0.7035,0.6631,0.6308,0.6039,0.593,0.611,0.6439,0.6867,0.6619,0.6307,0.6852,0.6605,0.6328,0.6873,0.7,0.7,0.7,0.7,0.7063,0.7301,0.7821,0.8049,0.7468,0.7842,0.7946,0.7126,0.7,0.7,0.7,0.7,0.7,0.7,0.7539,0.8271,0.0,0.0,0.9873,1.1509,0.0,0.0,1.3821,1.386,1.416,1.4766,1.5029,1.5244,1.541,1.541,1.541,1.541,1.541,1.541,1.541,1.541,1.541,1.541,1.541,0.0,0.0,1.5919,1.6251,1.6523,1.7148,1.7539,1.7783,1.7949,1.8008,1.8008,0.0,0.0,0.0,0.0,0.0,0.0,0.0,0.0,0.0,0.0,0.0,0.0,0.0,0.0,0.0,0.0,0.0,0.0,0.0,0.0,0.0,0.0,0.0,0.0,0.0,0.0,0.0,0.0,0.0,0.0,0.0,0.0,0.0,0.0,0.0,0.0,0.0,0.0,0.0,0.0,0.0,0.0,0.0,0.0,0.0,0.0,0.0,0.0,0.0,0.0,0.0,0.5729,0.5702,0.5858,0.6157,0.672,0.643,0.6087,0.681,0.6471,0.6109,0.6831,0.7,0.7,0.7,0.7,0.7042,0.7231,0.76,0.7767,0.7342,0.7621,0.7704,0.7105,0.7,0.7,0.7,0.7,0.7,0.7,0.7539,0.816,0.8835,0.9383,0.9987,0.0,0.0,0.0,1.4065,1.4104,1.4367,1.4951,1.5254,1.541,1.541,1.541,1.541,1.541,1.541,1.541,1.541,1.541,1.541,1.541,0.0,0.0,0.0,1.6074,1.6523,1.6941,1.7402,1.7744,1.8008,1.8008,1.8008,1.8008,0.0,0.0,0.0,0.0,0.0,0.0,0.0,0.0,0.0,0.0,0.0,0.0,0.0,0.0,0.0,0.0,0.0,0.0,0.0,0.0,0.0,0.0,0.0,0.0,0.0,0.0,0.0,0.0,0.0,0.0,0.0,0.0,0.0,0.0,0.0,0.0,0.0,0.0,0.0,0.0,0.0,0.0,0.0,0.0,0.0,0.0,0.0,0.0,0.0,0.0,0.0,0.0,0.0,0.5701,0.5814,0.642,0.5988,0.5561,0.6698,0.6182,0.5583,0.6719,0.7,0.7,0.7,0.7,0.7168,0.7767,0.7891,0.7891,0.7891,0.7891,0.7704,0.7105,0.7,0.7,0.7,0.7,0.7,0.7,0.7539,0.816,0.8835,1.0635,1.1491,0.0,0.0,0.0,1.4065,1.4104,1.4494,1.5381,1.541,1.541,1.541,1.541,1.541,1.541,1.541,1.541,1.541,1.541,1.541,0.0,0.0,0.0,0.0,1.6543,1.6982,1.7422,1.7842,1.8008,1.8008,1.8008,1.8008,1.8008,0.0,0.0,0.0,0.0,0.0,0.0,0.0,0.0,0.0,0.0,0.0,0.0,0.0,0.0,0.0,0.0,0.0,0.0,0.0,0.0,0.0,0.0,0.0,0.0,0.0,0.0,0.0,0.0,0.0,0.0,0.0,0.0,0.0,0.0,0.0,0.0,0.0,0.0,0.0,0.0,0.0,0.0,0.0,0.0,0.0,0.0,0.0,0.0,0.0,0.0,0.0,0.0,0.0,0.0,0.0,0.5939,0.5798,0.5745,0.6525,0.6329,0.6087,0.681,0.7,0.7,0.7,0.7,0.7063,0.7259,0.728,0.728,0.728,0.728,0.7217,0.7021,0.7,0.7,0.7,0.7,0.7,0.7,0.7539,0.8131,0.0,0.0,0.0,0.0,0.0,0.0,1.4065,1.4104,1.4504,1.5381,1.541,1.541,1.541,1.541,1.541,1.541,1.541,1.541,1.541,1.541,0.0,0.0,0.0,0.0,0.0,1.6512,1.6992,1.7422,1.7842,1.8008,1.8008,1.8008,1.8008,1.8008,0.0,0.0,0.0,0.0,0.0,0.0,0.0,0.0,0.0,0.0,0.0,0.0,0.0,0.0,0.0,0.0,0.0,0.0,0.0,0.0,0.0,0.0,0.0,0.0,0.0,0.0,0.0,0.0,0.0,0.0,0.0,0.0,0.0,0.0,0.0,0.0,0.0,0.0,0.0,0.0,0.0,0.0,1.0908,0.0,0.0,0.0,0.0,0.0,0.0,0.0,0.0,0.0,0.0,0.0,0.0,0.0,0.562,0.5807,0.6316,0.624,0.6136,0.6716,0.692,0.7,0.7,0.7,0.7063,0.7301,0.7154,0.7063,0.7301,0.7147,0.7,0.7,0.7,0.7,0.7,0.7,0.7086,0.7313,0.7772,0.0,0.0,1.0167,0.0,0.0,0.0,0.0,1.4065,1.4104,1.4504,1.5381,1.541,1.541,1.541,1.541,1.541,1.541,1.541,1.541,1.541,1.541,0.0,0.0,0.0,0.0,0.0,1.6797,1.7236,1.7646,1.791,1.8008,1.8008,1.8008,1.8008,1.8008,0.0,0.0,0.0,0.0,0.0,0.0,0.0,0.0,0.0,0.0,0.0,0.0,0.0,0.0,0.0,0.0,0.0,0.0,0.0,0.0,0.0,0.0,0.0,0.0,0.0,0.0,0.0,0.0,0.0,0.0,0.0,0.0,0.0,0.0,0.0,0.0,0.0,0.0,0.0,0.0,0.0,0.0,0.0,0.0,0.0,0.0,0.0,0.0,0.0,0.0,0.0,0.0,0.0,0.0,0.0,0.0,0.0,0.0,0.0,0.5939,0.5867,0.6442,0.6774,0.6966,0.6966,0.6986,0.0,0.7725,0.7384,0.7168,0.7725,0.7384,0.7,0.7,0.7,0.7,0.7,0.702,0.7253,0.0,0.8196,0.0,0.9706,0.0,0.0,0.0,0.0,0.0,1.4065,1.4133,1.4533,1.5362,1.541,1.541,1.541,1.541,1.541,1.541,1.541,1.541,1.541,1.541,0.0,0.0,0.0,0.0,0.0,1.7207,1.7627,1.8008,1.8008,1.8008,1.8008,1.8008,1.8008,1.8008,0.0,0.0,0.0,0.0,0.0,0.0,0.0,0.0,0.0,0.0,0.0,0.0,0.0,0.0,0.0,0.0,0.0,0.0,0.0,0.0,0.0,0.0,0.0,0.0,0.0,0.0,0.0,0.0,0.0,0.0,0.0,0.0,0.0,0.0,0.0,0.0,0.0,0.0,0.0,0.0,0.0,0.0,0.0,0.0,0.0,0.0,0.841,0.7966,0.0,0.0,0.0,0.0,0.0,0.0,0.0,0.0,0.534,0.0,0.5481,0.0,0.6128,0.6259,0.6499,0.6693,0.0,0.686,0.7042,0.7189,0.7105,0.7042,0.7196,0.7084,0.7,0.7,0.7,0.7,0.7,0.7221,0.0,0.7859,0.8196,0.8781,0.9706,0.0,0.0,0.0,0.0,1.3584,1.4075,1.4453,1.4873,1.5391,1.541,1.541,1.541,1.541,1.541,1.541,1.541,1.541,1.541,1.541,0.0,0.0,0.0,0.0,1.6736,1.7207,1.7627,1.8008,1.8008,1.8008,1.8008,1.8008,1.8008,1.8008,0.0,0.0,0.0,0.0,0.0,0.0,0.0,0.0,0.0,0.0,0.0,0.0,0.0,0.0,0.0,0.0,0.0,0.0,0.0,0.0,0.0,0.0,0.0,0.0,0.0,0.0,0.0,0.0,0.0,0.0,0.0,0.0,0.0,0.0,0.0,0.0,0.0,0.0,0.0,0.0,0.0,0.0,0.0,0.0,0.0,0.0,0.8662,0.8294,0.0,0.7544,0.7142,0.6706,0.0,0.0,0.0,0.0,0.5451,0.0,0.5522,0.5772,0.597,0.597,0.6291,0.6606,0.6606,0.6814,0.7,0.7,0.7,0.7,0.7,0.7,0.7,0.7,0.7,0.7046,0.7208,0.7488,0.7796,0.8096,0.8397,0.9029,0.0,0.0,0.0,0.0,0.0,1.3691,1.4085,1.4551,1.498,1.54,1.541,1.541,1.541,1.541,1.541,1.541,1.541,1.541,1.541,1.541,1.541,0.0,0.0,0.0,1.6746,1.7412,1.7803,1.8008,1.8008,1.8008,1.8008,1.8008,1.8008,1.8008,0.0,0.0,0.0,0.0,0.0,0.0,0.0,0.0,0.0,0.0,0.0,0.0,0.0,0.0,0.0,0.0,0.0,0.0,0.0,0.0,0.0,0.0,0.0,0.0,0.0,0.0,0.0,0.0,0.0,0.0,0.0,0.0,0.0,0.0,0.0,0.0,0.0,0.0,0.0,0.0,0.0,0.0,0.0,0.0,0.0,0.0,0.0,0.0,0.0,0.7423,0.7148,0.6975,0.6305,0.0,0.0,0.0,0.0,0.0,0.5812,0.5805,0.5688,0.5641,0.6092,0.6546,0.6546,0.678,0.7,0.7,0.7,0.7,0.7,0.7,0.7,0.7,0.7,0.0,0.745,0.7736,0.8019,0.8362,0.8734,0.0,0.0,0.0,0.0,0.0,0.0,1.3734,1.4085,1.4609,1.5039,1.54,1.541,1.541,1.541,1.541,1.541,1.541,1.541,1.541,1.541,1.541,1.5449,0.0,0.0,0.0,1.6863,1.7686,1.8008,1.8008,1.8008,1.8008,1.8008,1.8008,1.8008,1.8008,0.0,0.0,0.0,0.0,0.0,0.0,0.0,0.0,0.0,0.0,0.0,0.0,0.0,0.0,0.0,0.0,0.0,0.0,0.0,0.0,0.0,0.0,0.0,0.0,0.0,0.0,0.0,0.0,0.0,0.0,0.0,0.0,0.0,0.0,0.0,0.0,0.0,0.0,0.0,0.0,0.0,0.0,0.0,0.0,0.0,0.0,0.0,0.0,0.0,0.7642,0.7373,0.708,0.6946,0.0,0.0,0.0,0.0,0.0,0.5882,0.5805,0.5641,0.542,0.582,0.6256,0.6256,0.6633,0.7,0.7,0.7,0.7,0.7,0.7,0.7,0.7,0.0,0.7128,0.0,0.0,0.8019,0.8362,0.0,0.0,0.0,0.0,0.0,0.0,0.0,1.4036,1.4104,1.4855,1.5342,1.541,1.541,1.541,1.541,1.541,1.541,1.541,1.541,1.541,1.541,1.541,1.5615,0.0,0.0,1.6943,1.7324,1.7812,1.8008,1.8008,1.8008,1.8008,1.8008,1.8008,1.8008,1.8008,0.0,0.0,0.0,0.0,0.0,0.0,0.0,0.0,0.0,0.0,0.0,0.0,0.0,0.0,0.0,0.0,0.0,0.0,0.0,0.0,0.0,0.0,0.0,0.0,0.0,0.0,0.0,0.0,0.0,0.0,0.0,0.0,0.0,0.0,0.0,0.0,0.0,0.0,0.0,0.0,0.0,0.0,0.0,0.0,0.0,0.0,0.0,0.0,0.0,0.0,0.7403,0.7344,0.691,0.0,0.0,0.0,0.0,0.0,0.6114,0.5868,0.555,0.5777,0.613,0.6412,0.6412,0.672,0.7,0.7,0.7,0.7,0.7,0.7,0.7,0.7,0.0,0.7368,0.7675,0.7976,0.8425,0.0,0.0,0.0,0.0,0.0,0.0,0.0,0.0,0.0,1.4473,1.505,1.541,1.541,1.541,1.541,1.541,1.541,1.541,1.541,1.541,1.541,1.541,1.541,1.5654,1.6114,0.0,1.6982,1.7422,1.7842,1.8008,1.8008,1.8008,1.8008,1.8008,1.8008,1.8008,1.8008,0.0,0.0,0.0,0.0,0.0,0.0,0.0,0.0,0.0,0.0,0.0,0.0,0.0,0.0,0.0,0.0,0.0,0.0,0.0,0.0,0.0,0.0,0.0,0.0,0.0,0.0,0.0,0.0,0.0,0.0,0.0,0.0,0.0,0.0,0.0,0.0,0.0,0.0,0.0,0.0,0.0,0.0,0.0,0.0,0.0,0.0,0.0,0.0,0.0,0.0,0.0,0.0,0.0,0.0,0.0,0.0,0.6137,0.5733,0.6448,0.6245,0.5965,0.6432,0.6525,0.6526,0.6593,0.6814,0.7,0.7,0.7,0.7,0.7,0.7,0.0,0.7306,0.7424,0.7686,0.8191,0.8346,0.8749,0.0,0.0,0.0,0.0,0.0,0.0,0.0,0.0,0.0,1.4619,1.5127,1.541,1.541,1.541,1.541,1.541,1.541,1.541,1.541,1.541,1.541,1.541,1.541,1.5713,1.6271,1.6582,1.7009,1.7549,1.7881,1.8008,1.8008,1.8008,1.8008,1.8008,1.8008,1.8008,1.8008,0.0,0.0,0.0,0.0,0.0,0.0,0.0,0.0,0.0,0.0,0.0,0.0,0.0,0.0,0.0,0.0,0.0,0.0,0.0,0.0,0.0,0.0,0.0,0.0,0.0,0.0,0.0,0.0,0.0,0.0,0.0,0.0,0.0,0.0,0.0,0.0,0.0,0.0,0.0,0.0,0.0,0.0,0.0,0.0,0.0,0.0,0.0,0.0,0.0,0.0,0.0,0.0,0.0,0.0,0.0,0.0,0.6751,0.6516,0.6932,0.7239,0.7424,0.7349,0.6774,0.6297,0.6546,0.6814,0.7,0.7,0.7,0.7,0.7,0.7,0.7299,0.8245,0.7893,0.7914,0.9111,0.0,0.0,0.0,0.0,0.0,0.0,0.0,0.0,0.0,0.0,0.0,1.4153,0.0,0.0,1.541,1.541,1.541,1.541,1.541,1.541,1.541,1.541,1.541,1.541,1.541,1.5849,1.6658,1.6687,1.7174,1.7969,1.7998,1.8008,1.8008,1.8008,1.8008,1.8008,1.8008,1.8008,1.8008,0.0,0.0,0.0,0.0,0.0,0.0,0.0,0.0,0.0,0.0,0.0,0.0,0.0,0.0,0.0,0.0,0.0,0.0,0.0,0.0,0.0,0.0,0.0,0.0,0.0,0.0,0.0,0.0,0.0,0.0,0.0,0.0,0.0,0.0,0.0,0.0,0.0,0.0,0.0,0.0,0.0,0.0,0.0,0.0,0.0,0.0,0.0,0.0,0.0,0.0,0.8407,0.0,0.0,0.0,0.0,0.0,0.6991,0.6979,0.7406,0.739,0.7308,0.7692,0.7112,0.6519,0.6794,0.692,0.7,0.7,0.7,0.7,0.7,0.7301,0.7631,0.7835,0.8093,0.851,0.9292,0.0,0.0,0.0,0.0,0.0,0.0,0.0,0.0,0.0,0.0,0.0,0.0,0.0,0.0,1.541,1.541,1.541,1.541,1.541,1.541,1.541,1.541,1.541,1.542,1.5693,1.6152,1.6716,1.7021,1.7471,1.8008,1.8008,1.8008,1.8008,1.8008,1.8008,1.8008,1.8008,1.8008,1.8047,0.0,0.0,0.0,0.0,0.0,0.0,0.0,0.0,0.0,0.0,0.0,0.0,0.0,0.0,0.0,0.0,0.0,0.0,0.0,0.0,0.0,0.0,0.0,0.0,0.0,0.0,0.0,0.0,0.0,0.0,0.0,0.0,0.0,0.0,0.0,0.0,0.0,0.0,0.0,0.0,0.0,0.0,0.0,0.0,0.0,0.0,0.0,0.0,0.0,0.0,0.8992,0.0,0.0,0.0,0.0,0.0,0.0,0.7399,0.8011,0.7763,0.751,0.8281,0.7736,0.7064,0.7252,0.7126,0.7,0.7,0.7,0.7063,0.7259,0.7714,0.0,0.0,0.859,0.9135,0.0,0.0,0.0,0.0,0.0,0.0,0.0,0.0,0.0,0.0,0.0,0.0,0.0,0.0,0.0,0.0,1.541,1.541,1.541,1.541,1.541,1.541,1.541,1.541,1.543,1.5889,1.6309,1.6726,1.7197,1.7627,1.8008,1.8008,1.8008,1.8008,1.8008,1.8008,1.8008,1.8008,1.8096,1.8217,0.0,0.0,0.0,0.0,0.0,0.0,0.0,0.0,0.0,0.0,0.0,0.0,0.0,0.0,0.0,0.0,0.0,0.0,0.0,0.0,0.0,0.0,0.0,0.0,0.0,0.0,0.0,0.0,0.0,0.0,0.0,0.0,0.0,0.0,0.0,0.0,0.0,0.0,0.0,0.0,0.0,0.0,0.0,0.0,0.0,0.0,0.0,0.0,0.0,0.0,1.0481,1.0042,0.0,0.0,0.0,0.7913,0.7722,0.7828,0.8757,0.8509,0.826,0.9241,0.8683,0.7899,0.7899,0.7447,0.7,0.7,0.7,0.7196,0.7787,0.8247,0.0,0.9569,0.9533,0.0,0.0,0.0,0.0,0.0,0.0,0.0,0.0,0.0,0.0,0.0,0.0,0.0,0.0,0.0,0.0,0.0,1.541,1.541,1.541,1.541,1.541,1.541,1.541,1.541,1.543,1.5899,1.6318,1.6726,1.7197,1.7627,1.8008,1.8008,1.8008,1.8008,1.8008,1.8008,1.8008,1.8018,1.8247,1.8598,0.0,0.0,0.0,0.0,0.0,0.0,0.0,0.0,0.0,0.0,0.0,0.0,0.0,0.0,0.0,0.0,0.0,0.0,0.0,0.0,0.0,0.0,0.0,0.0,0.0,0.0,0.0,0.0,0.0,0.0,0.0,0.0,0.0,0.0,0.0,0.0,0.0,0.0,0.0,0.0,0.0,0.0,0.0,0.0,0.0,0.0,0.0,0.0,0.0,0.0,0.0,0.0,0.0,0.0,0.0,0.8675,0.8817,0.8994,0.8884,0.8948,0.9031,0.8953,0.8419,0.7899,0.7899,0.7767,0.7642,0.7642,0.7642,0.7683,0.787,0.8846,0.0,0.9074,0.9928,0.0,0.0,0.0,0.0,0.0,0.0,0.0,0.0,0.0,0.0,0.0,0.0,0.0,0.0,0.0,0.0,0.0,1.541,1.541,1.541,1.541,1.541,1.541,1.541,1.5566,1.5919,1.6328,1.6777,1.7217,1.7637,1.79,1.8008,1.8008,1.8008,1.8008,1.8008,1.8008,1.8047,1.8305,1.849,1.8685,0.0,0.0,0.0,0.0,0.0,0.0,0.0,0.0,0.0,0.0,0.0,0.0,0.0,0.0,0.0,0.0,0.0,0.0,0.0,0.0,0.0,0.0,0.0,0.0,0.0,0.0,0.0,0.0,0.0,0.0,0.0,0.0,0.0,0.0,0.0,0.0,0.0,0.0,0.0,0.0,0.0,0.0,0.0,0.0,0.0,0.0,0.0,0.0,0.0,0.0,0.0,0.0,1.0416,0.0,0.974,0.9595,0.9569,0.9545,0.9422,0.9298,0.9199,0.9299,0.8777,0.8275,0.848,0.8028,0.7621,0.7857,0.7899,0.8074,0.8657,0.9414,0.0,0.9711,0.0,0.0,0.0,0.0,0.0,0.0,0.0,0.0,0.0,0.0,0.0,0.0,0.0,0.0,0.0,0.0,0.0,0.0,1.541,1.541,1.541,1.541,1.541,1.541,1.541,1.5732,1.6338,1.658,1.6973,1.7402,1.7832,1.8008,1.8008,1.8008,1.8008,1.8008,1.8008,1.8008,1.8057,1.8451,1.8715,1.8994,0.0,0.0,0.0,0.0,0.0,0.0,0.0,0.0,0.0,0.0,0.0,0.0,0.0,0.0,0.0,0.0,0.0,0.0,0.0,0.0,0.0,0.0,0.0,0.0,0.0,0.0,0.0,0.0,0.0,0.0,0.0,0.0,0.0,0.0,0.0,0.0,0.0,0.0,0.0,0.0,0.0,0.0,0.0,0.0,0.0,0.0,0.0,0.0,0.0,0.0,0.0,0.0,1.1427,1.1019,1.0854,1.0542,1.0045,0.9666,1.0108,0.9558,0.9059,1.0,0.9498,0.8878,0.9319,0.8252,0.7314,0.7933,0.8036,0.846,0.9837,0.9978,1.0154,0.0,0.0,0.0,0.0,0.0,0.0,0.0,0.0,0.0,0.0,0.0,0.0,0.0,0.0,0.0,0.0,0.0,0.0,1.54,1.541,1.541,1.541,1.541,1.541,0.0,1.541,1.5849,1.6697,1.6697,1.6992,1.7461,1.7842,1.8008,1.8008,1.8008,1.8008,1.8008,1.8008,1.8008,1.8066,1.849,1.8945,1.9355,0.0,0.0,0.0,0.0,0.0,0.0,0.0,0.0,0.0,0.0,0.0,0.0,0.0,0.0,0.0,0.0,0.0,0.0,0.0,0.0,0.0,0.0,0.0,0.0,0.0,0.0,0.0,0.0,0.0,0.0,0.0,0.0,0.0,0.0,0.0,0.0,0.0,0.0,0.0,0.0,0.0,0.0,0.0,0.0,0.0,0.0,0.0,0.0,0.0,0.0,0.0,0.0,1.2342,1.1624,1.0954,1.0891,1.0511,1.0059,0.9755,0.9814,0.9922,0.9716,0.9498,0.9239,0.8938,0.8594,0.8492,0.9039,0.9159,0.9354,0.9993,1.0693,1.1191,0.0,0.0,0.0,0.0,0.0,0.0,0.0,0.0,0.0,0.0,0.0,0.0,0.0,0.0,0.0,0.0,0.0,0.0,1.54,1.541,1.541,1.541,1.541,1.541,0.0,1.541,1.5849,1.6697,1.6697,1.7116,1.7881,1.7969,1.8008,1.8008,1.8008,1.8008,1.8008,1.8008,1.8008,1.8105,1.8867,1.9209,1.9394,0.0,0.0,0.0,0.0,0.0,0.0,0.0,0.0,0.0,0.0,0.0,0.0,0.0,0.0,0.0,0.0,0.0,0.0,0.0,0.0,0.0,0.0,0.0,0.0,0.0,0.0,0.0,0.0,0.0,0.0,0.0,0.0,0.0,0.0,0.0,0.0,0.0,0.0,0.0,0.0,0.0,0.0,0.0,0.0,0.0,0.0,0.0,0.0,0.0,0.0,0.0,0.0,0.0,0.0,1.1726,1.1726,1.1207,1.0572,1.0293,1.0264,1.0235,0.9961,0.9883,0.9804,0.9518,0.9459,0.9538,0.9824,0.9677,0.978,1.0651,1.0985,0.0,0.0,0.0,0.0,0.0,0.0,0.0,0.0,0.0,0.0,0.0,0.0,0.0,0.0,0.0,0.0,0.0,1.4319,1.4756,1.5391,1.541,1.541,1.541,1.541,1.541,1.541,1.541,1.5849,1.6716,1.7126,1.7588,1.8008,1.8008,1.8008,1.8008,1.8008,1.8008,1.8008,1.8008,1.8008,1.8115,1.8975,1.9287,1.9404,0.0,0.0,0.0,0.0,0.0,0.0,0.0,0.0,0.0,0.0,0.0,0.0,0.0,0.0,0.0,0.0,0.0,0.0,0.0,0.0,0.0,0.0,0.0,0.0,0.0,0.0,0.0,0.0,0.0,0.0,0.0,0.0,0.0,0.0,0.0,0.0,0.0,0.0,0.0,0.0,0.0,0.0,0.0,0.0,0.0,0.0,0.0,0.0,1.5104,1.4278,0.0,0.0,0.0,0.0,1.2608,1.2608,1.1916,1.1113,1.1038,1.0668,1.0303,1.0303,1.0303,1.0303,1.0303,1.0303,1.0303,1.0303,0.9942,1.0046,1.1353,1.1158,0.0,0.0,0.0,0.0,0.0,0.0,0.0,0.0,0.0,0.0,0.0,0.0,0.0,0.0,0.0,0.0,1.4065,1.4104,1.4504,1.5381,1.541,1.541,1.541,1.541,1.541,1.541,1.5537,1.5995,1.6726,1.7584,1.8008,1.8008,1.8008,1.8008,1.8008,1.8008,1.8008,1.8008,1.8008,1.8008,1.8115,1.8975,1.9287,1.9404,0.0,0.0,0.0,0.0,0.0,0.0,0.0,0.0,0.0,0.0,0.0,0.0,0.0,0.0,0.0,0.0,0.0,0.0,0.0,0.0,0.0,0.0,0.0,0.0,0.0,0.0,0.0,0.0,0.0,0.0,0.0,0.0,0.0,0.0,0.0,0.0,0.0,0.0,0.0,0.0,0.0,0.0,0.0,0.0,0.0,0.0,0.0,0.0,0.0,1.4705,1.4643,0.0,0.0,0.0,1.3021,1.3021,1.2384,1.1579,1.1132,1.0668,1.0303,1.0303,1.0303,1.0303,1.0303,1.0303,1.0303,0.0,1.0244,1.0477,1.1418,0.0,0.0,0.0,0.0,0.0,0.0,0.0,0.0,0.0,0.0,0.0,0.0,0.0,0.0,0.0,0.0,0.0,1.4065,1.4104,1.4504,1.5381,1.541,1.541,1.541,1.541,1.541,1.542,1.6161,1.659,1.6726,1.7584,1.8008,1.8008,1.8008,1.8008,1.8008,1.8008,1.8008,1.8008,1.8008,1.8008,1.8115,1.8975,1.9287,1.9404,0.0,0.0,0.0,0.0,0.0,0.0,0.0,0.0,0.0,0.0,0.0,0.0,0.0,0.0,0.0,0.0,0.0,0.0,0.0,0.0,0.0,0.0,0.0,0.0,0.0,0.0,0.0,0.0,0.0,0.0,0.0,1.7113,1.6837,0.0,0.0,0.0,0.0,0.0,0.0,0.0,0.0,0.0,0.0,0.0,0.0,0.0,0.0,0.0,0.0,0.0,1.4937,1.5028,1.4627,0.0,0.0,0.0,1.2899,1.2029,1.1226,1.0848,1.063,1.038,1.0303,1.0303,1.0303,1.0303,1.0303,1.0303,1.0303,1.0488,0.0,0.0,0.0,0.0,0.0,0.0,0.0,0.0,0.0,0.0,0.0,0.0,0.0,0.0,0.0,0.0,0.0,1.3496,1.4075,1.4338,1.4775,1.5391,1.541,1.541,1.541,1.541,1.541,1.542,1.6278,1.6697,1.6726,1.7584,1.8008,1.8008,1.8008,1.8008,1.8008,1.8008,1.8008,1.8008,1.8008,1.8008,1.8115,1.8975,1.9287,1.9404,0.0,0.0,0.0,0.0,0.0,0.0,0.0,0.0,0.0,0.0,0.0,0.0,0.0,0.0,0.0,0.0,0.0,0.0,0.0,0.0,0.0,0.0,0.0,0.0,0.0,0.0,0.0,0.0,0.0,0.0,1.7175,1.6825,1.6581,0.0,1.6081,0.0,0.0,0.0,0.0,0.0,0.0,0.0,0.0,0.0,0.0,0.0,0.0,0.0,0.0,0.0,0.0,0.0,0.0,0.0,0.0,0.0,0.0,1.2336,1.1568,1.1177,1.0924,1.0582,1.04,1.0303,1.0303,1.0303,1.0303,0.0,1.0303,1.04,0.0,0.0,0.0,0.0,0.0,0.0,0.0,0.0,0.0,0.0,0.0,0.0,0.0,0.0,0.0,0.0,0.0,1.3691,1.4085,1.4551,1.498,1.54,1.541,1.541,1.541,1.541,1.5469,1.5586,1.6326,1.6755,1.6892,1.7666,1.8008,1.8008,1.8008,1.8008,1.8008,1.8008,1.8008,1.8008,1.8008,1.8076,1.8262,1.9014,1.9355,1.9551,0.0,0.0,0.0,0.0,0.0,0.0,0.0,0.0,0.0,0.0,0.0,0.0,0.0,0.0,0.0,0.0,0.0,0.0,0.0,0.0,0.0,0.0,0.0,0.0,0.0,0.0,0.0,0.0,0.0,0.0,1.6815,1.6474,1.6488,1.6751,1.6421,1.6274,1.6246,0.0,0.0,0.0,0.0,0.0,0.0,0.0,0.0,0.0,0.0,0.0,0.0,0.0,0.0,0.0,0.0,0.0,0.0,0.0,0.0,0.0,1.2443,1.1726,1.0989,1.0981,1.063,1.0303,1.0303,0.0,1.0303,1.0303,1.0303,1.0312,0.0,0.0,0.0,0.0,0.0,0.0,0.0,0.0,0.0,0.0,0.0,0.0,0.0,0.0,0.0,0.0,0.0,1.3691,1.4085,1.4551,1.498,1.54,1.541,1.541,1.541,1.541,1.5615,1.6065,1.6514,1.6921,1.7363,1.7812,1.8008,1.8008,1.8008,1.8008,1.8008,1.8008,1.8008,1.8008,1.8008,1.8217,1.8627,1.9121,1.9541,1.9941,0.0,0.0,0.0,0.0,0.0,0.0,0.0,0.0,0.0,0.0,0.0,0.0,0.0,0.0,0.0,0.0,0.0,0.0,0.0,0.0,0.0,0.0,0.0,0.0,0.0,0.0,0.0,0.0,0.0,1.7323,1.7126,1.7002,1.6888,1.6789,1.6448,1.6301,1.6315,1.6394,0.0,0.0,0.0,0.0,0.0,0.0,0.0,0.0,0.0,0.0,0.0,0.0,0.0,0.0,0.0,0.0,0.0,0.0,1.3568,1.289,1.2579,1.2246,1.1891,1.1579,1.1132,1.0745,1.0745,1.0525,1.0303,1.0303,1.0303,1.0303,0.0,0.0,0.0,0.0,0.0,0.0,0.0,0.0,0.0,0.0,0.0,0.0,0.0,0.0,0.0,0.0,0.0,0.0,1.4104,1.4777,1.5254,1.541,1.541,1.541,1.541,1.541,1.5635,1.6095,1.6523,1.6963,1.7402,1.7822,1.8008,1.8008,1.8008,1.8008,1.8008,1.8008,1.8008,1.8008,1.8008,1.8237,1.8656,1.9131,1.9551,1.998,0.0,0.0,0.0,0.0,0.0,0.0,0.0,0.0,0.0,0.0,0.0,0.0,0.0,0.0,0.0,0.0,0.0,0.0,0.0,0.0,0.0,0.0,0.0,0.0,0.0,0.0,0.0,0.0,0.0,0.0,0.0,1.7027,1.6977,1.6968,1.6735,1.663,0.0,0.0,0.0,1.6151,0.0,0.0,1.5799,0.0,0.0,0.0,0.0,0.0,0.0,0.0,0.0,0.0,0.0,0.0,0.0,0.0,0.0,0.0,1.2861,1.2615,1.2437,1.2102,1.1505,1.1,1.1,1.063,1.0303,1.0303,1.0303,1.0303,0.0,0.0,0.0,0.0,0.0,0.0,0.0,0.0,0.0,0.0,0.0,0.0,0.0,0.0,0.0,0.0,0.0,0.0,1.4319,1.5019,1.541,1.541,1.541,1.541,1.541,1.541,1.5703,1.6289,1.656,1.7009,1.7607,1.7881,1.8008,1.8008,1.8008,1.8008,1.8008,1.8008,1.8008,1.8018,1.8164,1.8442,1.887,1.9346,1.9766,2.0176,0.0,0.0,0.0,0.0,0.0,0.0,0.0,0.0,0.0,0.0,0.0,0.0,0.0,0.0,0.0,0.0,0.0,0.0,0.0,0.0,0.0,0.0,0.0,0.0,0.0,0.0,0.0,0.0,0.0,0.0,0.0,0.0,1.6696,1.732,1.732,1.732,1.728,0.0,1.6815,1.6751,0.0,1.6123,1.5799,0.0,0.0,0.0,1.5799,1.5799,0.0,1.5799,0.0,0.0,0.0,0.0,0.0,0.0,0.0,0.0,0.0,0.0,0.0,0.0,0.0,0.0,1.1027,0.0,1.0341,1.0322,1.0322,0.0,0.0,0.0,0.0,0.0,0.0,0.0,0.0,0.0,0.0,0.0,0.0,0.0,0.0,0.0,0.0,0.0,0.0,1.4299,1.4756,1.5186,1.541,1.541,1.541,1.541,1.541,1.542,1.5839,1.6697,1.6716,1.7155,1.8008,1.8008,1.8008,1.8008,1.8008,1.8008,1.8008,1.8008,1.8008,1.8047,1.8432,1.8906,1.9336,1.9756,2.0195,2.0605,0.0,0.0,0.0,0.0,0.0,0.0,0.0,0.0,0.0,0.0,0.0,0.0,0.0,0.0,0.0,0.0,0.0,0.0,0.0,0.0,0.0,0.0,0.0,0.0,0.0,0.0,0.0,0.0,0.0,0.0,0.0,0.0,0.0,0.0,1.767,1.767,1.7658,1.7566,0.0,0.0,1.6594,1.6328,0.0,0.0,0.0,0.0,0.0,1.5799,1.5799,0.0,1.5799,1.5799,0.0,0.0,0.0,0.0,0.0,0.0,1.3323,0.0,0.0,0.0,0.0,0.0,0.0,0.0,1.1274,1.0897,1.0821,0.0,0.0,0.0,0.0,0.0,0.0,0.0,0.0,0.0,0.0,0.0,0.0,0.0,0.0,0.0,0.0,0.0,1.387,1.4299,1.4756,1.5186,1.541,1.541,1.541,1.541,1.541,1.5723,1.6162,1.6707,1.7051,1.749,1.8008,1.8008,1.8008,1.8008,1.8008,1.8008,1.8008,1.8008,1.8008,1.8047,1.8432,1.8906,1.9336,1.9756,2.0195,2.0605,0.0,0.0,0.0,0.0,0.0,0.0,0.0,0.0,0.0,0.0,0.0,0.0,0.0,0.0,0.0,0.0,0.0,0.0,0.0,0.0,0.0,0.0,0.0,0.0,0.0,0.0,0.0,0.0,0.0,0.0,0.0,0.0,0.0,0.0,0.0,0.0,0.0,0.0,0.0,0.0,1.6567,0.0,0.0,1.5799,1.5799,0.0,0.0,0.0,1.5799,1.5799,1.5799,0.0,0.0,0.0,0.0,0.0,0.0,0.0,0.0,0.0,0.0,0.0,0.0,0.0,1.2246,1.1818,1.1319,0.0,1.0706,0.0,0.0,0.0,0.0,0.0,0.0,0.0,0.0,0.0,0.0,0.0,0.0,0.0,0.0,0.0,0.0,1.3695,1.3968,1.4377,1.501,1.5283,1.541,1.541,1.541,1.5498,1.5684,1.5968,1.6408,1.7002,1.7256,1.7607,1.8008,1.8008,1.8008,1.8008,1.8008,1.8008,1.8008,1.8008,1.8115,1.8276,1.8705,1.917,1.96,2.0029,2.039,2.0605,0.0,0.0,0.0,0.0,0.0,0.0,0.0,0.0,0.0,0.0,0.0,0.0,0.0,0.0,0.0,0.0,0.0,0.0,0.0,0.0,0.0,0.0,0.0,0.0,0.0,0.0,0.0,0.0,0.0,0.0,0.0,0.0,0.0,0.0,0.0,0.0,0.0,0.0,0.0,1.6763,1.6474,1.615,0.0,0.0,1.5799,1.5799,1.5799,1.5799,1.5799,1.5799,1.5799,0.0,0.0,0.0,0.0,0.0,1.5104,0.0,0.0,0.0,0.0,0.0,0.0,0.0,1.2048,1.1597,1.1113,0.0,0.0,0.0,0.0,0.0,0.0,0.0,0.0,0.0,0.0,0.0,0.0,0.0,0.0,0.0,1.2905,1.2905,1.3232,1.4046,1.4192,1.4582,1.5371,1.541,1.541,1.541,1.541,1.5625,1.6085,1.6144,1.6584,1.7383,1.7465,1.7646,1.8008,1.8008,1.8008,1.8008,1.8008,1.8008,1.8018,1.8057,1.8266,1.8646,1.9121,1.9541,1.9971,2.0449,2.0605,2.0605,0.0,0.0,0.0,0.0,0.0,0.0,0.0,0.0,0.0,0.0,0.0,0.0,0.0,0.0,0.0,0.0,0.0,0.0,0.0,0.0,0.0,0.0,0.0,0.0,0.0,0.0,0.0,0.0,0.0,0.0,0.0,0.0,0.0,0.0,0.0,0.0,0.0,0.0,0.0,1.6789,1.6725,0.0,1.6163,1.5898,1.5799,1.5799,1.5799,1.5799,1.5799,1.5799,1.5799,1.5799,0.0,0.0,0.0,0.0,0.0,0.0,0.0,0.0,0.0,0.0,0.0,0.0,1.2943,1.2855,1.265,0.0,1.2072,1.1957,0.0,0.0,0.0,0.0,0.0,0.0,0.0,0.0,0.0,0.0,0.0,0.0,0.0,1.2905,1.3232,1.4046,1.4747,1.5206,1.54,1.541,1.541,1.541,1.541,1.5625,1.6085,1.6416,1.6865,1.7393,1.7725,1.793,1.8008,1.8008,1.8008,1.8008,1.8008,1.8008,1.8037,1.8344,1.8529,1.8646,1.9121,1.9541,1.9971,2.0449,2.0605,2.0605,0.0,0.0,0.0,0.0,0.0,0.0,0.0,0.0,0.0,0.0,0.0,0.0,0.0,0.0,0.0,0.0,0.0,0.0,0.0,0.0,0.0,0.0,0.0,0.0,0.0,0.0,0.0,0.0,0.0,0.0,0.0,0.0,0.0,0.0,0.0,0.0,0.0,0.0,1.7455,1.7252,1.6763,0.0,1.6039,1.587,1.5799,1.5799,1.5799,1.5799,1.5799,1.5799,1.5799,0.0,0.0,1.5799,1.5755,0.0,1.5448,1.5314,0.0,0.0,0.0,1.3665,0.0,0.0,0.0,1.2855,1.272,1.2246,1.2156,1.2084,1.1847,0.0,0.0,0.0,0.0,0.0,0.0,0.0,0.0,0.0,0.0,0.0,0.0,1.2905,1.3232,1.4046,1.4708,1.5186,1.54,1.541,1.541,1.541,1.5625,1.5947,1.6387,1.6836,1.7275,1.7695,1.791,1.8008,1.8008,1.8008,1.8008,1.8008,1.8008,1.8091,1.8305,1.852,1.8851,1.926,1.9512,1.9863,2.0264,2.0517,2.0605,2.0605,0.0,0.0,0.0,0.0,0.0,0.0,0.0,0.0,0.0,0.0,0.0,0.0,0.0,0.0,0.0,0.0,0.0,0.0,0.0,0.0,0.0,0.0,0.0,1.842,0.0,0.0,0.0,0.0,0.0,0.0,0.0,0.0,0.0,0.0,0.0,0.0,0.0,0.0,0.0,1.7542,0.0,1.6382,1.6066,1.5941,1.5899,1.5899,1.5948,1.6054,1.6159,1.6159,0.0,1.6159,1.6159,1.6159,0.0,0.0,0.0,0.0,0.0,0.0,0.0,0.0,0.0,1.3423,0.0,0.0,0.0,1.244,1.2309,0.0,0.0,0.0,0.0,0.0,0.0,0.0,0.0,0.0,0.0,0.0,0.0,0.0,0.0,1.2983,1.3311,1.4055,1.4531,1.4971,1.5391,1.541,1.541,1.541,1.587,1.6279,1.6697,1.7168,1.7598,1.8008,1.8008,1.8008,1.8008,1.8008,1.8008,1.8018,1.8096,1.8286,1.8617,1.8783,1.926,1.9912,1.9912,2.0185,2.0605,2.0605,2.0605,2.0605,1.9297,1.9297,0.0,0.0,0.0,0.0,0.0,0.0,0.0,0.0,0.0,0.0,0.0,0.0,0.0,0.0,0.0,0.0,1.9297,0.0,0.0,0.0,0.0,0.0,1.8198,0.0,0.0,0.0,0.0,0.0,0.0,0.0,0.0,0.0,1.7479,0.0,0.0,0.0,1.7187,0.0,1.7449,1.7425,0.0,1.6474,1.6246,1.6268,1.6503,1.698,1.7489,0.0,1.7489,1.7489,0.0,1.7489,1.7489,0.0,0.0,0.0,0.0,0.0,0.0,0.0,1.5097,0.0,0.0,0.0,1.4031,1.4462,0.0,0.0,0.0,0.0,0.0,0.0,0.0,0.0,0.0,0.0,0.0,0.0,0.0,0.0,0.0,0.0,1.3633,1.4075,1.4531,1.4971,1.5391,1.541,1.541,1.541,1.587,1.6279,1.6697,1.7168,1.7598,1.8008,1.8008,1.8008,1.8008,1.8008,1.8008,1.8037,1.8373,1.8559,1.8656,1.9416,1.9824,1.9912,1.9912,2.0185,2.0605,2.0605,2.0605,2.0605,1.9274,1.9214,0.0,0.0,0.0,0.0,0.0,0.0,0.0,0.0,0.0,0.0,0.0,0.0,0.0,0.0,0.0,1.9297,0.0,0.0,0.0,0.0,0.0,0.0,0.0,0.0,0.0,0.0,1.78,0.0,0.0,0.0,0.0,0.0,1.7368,0.0,1.7813,0.0,1.808,0.0,0.0,0.0,0.0,1.7478,1.7106,1.7121,1.7237,1.7458,1.7713,0.0,1.7713,0.0,0.0,0.0,0.0,0.0,0.0,0.0,0.0,0.0,0.0,0.0,0.0,0.0,1.4961,0.0,1.4626,0.0,0.0,0.0,0.0,0.0,0.0,0.0,0.0,0.0,0.0,0.0,0.0,0.0,0.0,0.0,0.0,0.0,0.0,0.0,0.0,1.4697,1.5342,1.541,1.5527,1.5811,1.6221,1.666,1.7109,1.7529,1.7832,1.8008,1.8008,1.8008,1.8008,1.8008,1.8144,1.8354,1.8529,1.889,1.9368,1.9766,2.0059,2.0293,2.0293,2.0449,2.0605,2.0605,2.0605,2.0605,1.919,0.0,0.0,0.0,0.0,0.0,0.0,0.0,0.0,0.0,0.0,0.0,1.9297,1.9297,0.0,0.0,1.9297,1.9297,0.0,0.0,1.9033,0.0,0.0,0.0,0.0,0.0,0.0,0.0,0.0,0.0,0.0,0.0,0.0,0.0,0.0,1.8032,1.8253,0.0,1.8733,1.9095,1.9276,1.9397,1.9363,1.8268,1.7901,1.7968,1.7968,1.8087,1.8252,1.8252,1.8252,0.0,1.8252,0.0,0.0,0.0,0.0,0.0,1.8252,0.0,0.0,0.0,0.0,0.0,0.0,0.0,0.0,0.0,0.0,0.0,0.0,0.0,0.0,0.0,0.0,0.0,0.0,0.0,0.0,0.0,0.0,0.0,0.0,0.0,0.0,1.4046,1.4104,1.4475,1.5361,1.541,1.5615,1.6085,1.6494,1.6943,1.7416,1.7803,1.8008,1.8008,1.8008,1.8008,1.8018,1.8091,1.8315,1.8617,1.8851,1.9299,1.9922,2.0049,2.0283,2.0605,2.0605,2.0605,2.0605,2.0605,2.0605,2.0605,1.9019,1.8798,0.0,0.0,0.0,0.0,0.0,0.0,0.0,0.0,0.0,0.0,0.0,0.0,0.0,0.0,0.0,1.9297,1.9297,0.0,1.8896,0.0,0.0,1.8082,0.0,0.0,0.0,0.0,0.0,0.0,0.0,0.0,0.0,0.0,0.0,1.9388,1.9326,1.902,1.8628,1.83,1.8949,1.9394,1.9572,0.0,1.84,1.8672,1.8672,0.0,0.0,1.9648,1.9648,0.0,0.0,0.0,0.0,0.0,0.0,0.0,0.0,0.0,0.0,1.8051,0.0,0.0,0.0,0.0,1.5819,0.0,0.0,0.0,0.0,0.0,0.0,0.0,0.0,0.0,0.0,0.0,0.0,0.0,0.0,0.0,0.0,0.0,0.0,1.4046,1.4104,1.4475,1.5361,1.541,1.5615,1.6085,1.6494,1.6943,1.7416,1.7803,1.8008,1.8008,1.8008,1.8008,1.8018,1.8393,1.8588,1.8646,1.9475,1.9855,1.9951,2.041,2.0595,2.0605,2.0605,2.0605,2.0605,2.0605,2.0605,2.0605,0.0,0.0,0.0,0.0,0.0,0.0,0.0,1.894,0.0,0.0,0.0,0.0,0.0,1.9297,1.9297,0.0,0.0,1.9297,1.9297,1.9246,0.0,0.0,0.0,1.8518,0.0,0.0,0.0,0.0,0.0,0.0,0.0,0.0,0.0,0.0,0.0,1.9579,0.0,0.0,0.0,0.0,0.0,2.018,2.0452,0.0,0.0,1.9346,1.9346,1.9513,0.0,1.9708,1.9708,1.9708,1.9708,1.9708,1.9708,1.9708,1.9442,0.0,0.0,0.0,1.8007,1.7666,0.0,0.0,0.0,0.0,0.0,0.0,0.0,0.0,0.0,0.0,0.0,0.0,0.0,0.0,0.0,0.0,0.0,0.0,0.0,0.0,0.0,0.0,0.0,1.4046,1.4104,1.4475,0.0,1.541,1.5752,1.6484,1.6619,1.7048,1.7793,1.7939,1.8008,1.8008,1.8008,1.812,1.8393,1.8539,1.8909,1.9502,1.9785,2.0078,2.04,2.0546,2.0605,2.0605,2.0605,2.0605,2.0605,2.0605,2.0605,2.0605,1.842,0.0,0.0,0.0,0.0,0.0,0.0,0.0,0.0,0.0,1.9158,0.0,1.9685,0.0,1.984,0.0,2.0197,2.0197,2.0197,1.9895,0.0,1.9685,1.9389,0.0,0.0,0.0,0.0,0.0,0.0,2.0002,0.0,0.0,0.0,0.0,0.0,2.0508,2.0504,2.0549,2.0559,0.0,0.0,2.0483,0.0,0.0,1.9782,1.9892,0.0,1.9708,1.9708,1.9708,1.9708,1.9708,1.9708,1.9708,1.9708,1.9708,1.946,1.9151,1.8949,1.8516,0.0,1.7422,1.7146,0.0,1.6573,0.0,0.0,0.0,0.0,0.0,0.0,0.0,0.0,0.0,0.0,0.0,0.0,1.3658,0.0,0.0,0.0,0.0,0.0,0.0,1.3232,1.4046,1.4104,1.4475,0.0,0.0,1.579,1.6668,1.6697,1.7116,1.8008,1.8008,1.8008,1.8008,1.8164,1.8344,1.8617,1.8909,1.9358,1.9922,2.0078,2.0303,2.0605,2.0605,2.0605,2.0605,2.0605,2.0605,2.0605,2.0605,2.0605,2.0605,0.0,0.0,0.0,0.0,1.8789,0.0,0.0,0.0,1.9069,0.0,1.9198,1.9457,2.0468,2.0566,2.0896,2.1721,2.1794,2.1794,2.1794,2.1015,0.0,0.0,2.0169,1.9837,2.0022,0.0,0.0,0.0,0.0,0.0,0.0,0.0,0.0,0.0,2.1989,0.0,2.1597,2.1597,2.1368,2.0959,2.0483,2.0314,2.0297,1.9856,0.0,2.0246,1.9839,1.9708,1.9708,1.9708,1.9708,1.9708,1.9708,1.9708,1.9708,1.9708,1.9657,1.9512,1.9006,1.8458,1.7907,1.7394,0.0,0.0,0.0,0.0,1.65,0.0,0.0,0.0,0.0,0.0,0.0,0.0,0.0,0.0,0.0,0.0,0.0,0.0,0.0,0.0,0.0,1.2905,1.3232,1.4046,1.4104,1.4475,0.0,0.0,1.581,1.6668,1.6726,1.7135,1.8008,1.8008,1.8018,1.8047,1.8412,1.8627,1.8695,1.9504,1.9922,1.9971,2.0429,2.0605,2.0605,2.0605,2.0605,2.0605,2.0605,2.0605,2.0605,2.0605,2.0605,2.0605,1.842,1.844,1.8381,0.0,1.8361,1.841,0.0,0.0,0.0,0.0,2.0059,2.0453,2.1363,2.1482,2.1555,2.1776,2.1794,0.0,0.0,0.0,0.0,2.1213,2.0815,2.051,2.03,2.0701,0.0,2.0889,0.0,0.0,2.1705,0.0,0.0,0.0,0.0,0.0,2.1597,2.1597,2.1368,2.0959,2.0483,2.0516,0.0,0.0,1.9962,2.0246,1.9839,1.9708,1.9708,1.9708,1.9708,1.9708,1.9708,1.9708,1.9708,1.9708,1.9151,1.8477,1.8341,1.7626,1.6879,1.6731,1.6595,1.65,0.0,0.0,0.0,0.0,0.0,0.0,0.0,0.0,0.0,0.0,0.0,0.0,0.0,0.0,0.0,1.2905,0.0,0.0,0.0,1.2905,1.3232,1.4046,1.4104,1.4475,0.0,0.0,0.0,1.6687,1.7051,1.7471,1.8008,1.8008,1.813,1.8442,1.8549,1.8929,1.9553,1.9814,2.0088,2.0449,2.0556,2.0605,2.0605,2.0605,2.0605,2.0605,2.0605,2.0605,2.0605,2.0605,2.0605,2.0605,1.8391,0.0,0.0,1.8208,0.0,0.0,1.9051,0.0,0.0,2.077,2.0897,0.0,2.2217,2.2318,2.2464,2.2822,2.2859,0.0,2.2637,0.0,0.0,2.1912,2.1427,2.1173,2.1225,2.1528,0.0,2.1684,0.0,0.0,2.2296,0.0,0.0,0.0,0.0,2.2149,2.1913,2.1913,2.166,2.1228,2.0781,0.0,0.0,1.9945,1.9839,2.0063,2.011,1.9962,1.9708,1.9708,1.9884,2.0139,2.0139,2.0333,2.0576,2.0576,2.0147,1.9569,1.9037,1.8455,1.7883,1.7371,1.7227,1.7227,1.7227,1.7227,1.7227,0.0,0.0,0.0,0.0,0.0,0.0,0.0,0.0,0.0,0.0,0.0,0.0,0.0,1.2905,0.0,0.0,1.3154,1.3428,1.4055,1.428,1.4707,0.0,0.0,0.0,1.6687,1.7158,1.7578,1.8008,1.8159,1.8373,1.8607,1.8978,1.9416,1.9922,2.0107,2.0332,2.0605,2.0605,2.0605,2.0605,2.0605,2.0605,2.0605,2.0605,2.0605,2.0605,2.0605,2.0605,2.0605,1.8432,0.0,0.0,0.0,0.0,0.0,0.0,2.0445,0.0,2.1823,0.0,2.2007,2.3043,2.3153,2.3428,2.4135,0.0,2.4064,2.3714,2.305,2.2674,2.2699,2.2021,2.1872,2.2293,2.2296,2.2296,0.0,0.0,2.2296,2.2296,0.0,0.0,0.0,0.0,0.0,0.0,2.2209,2.1913,2.1398,2.1118,2.0729,2.0316,2.0013,1.9942,2.0052,2.0632,2.0408,1.9824,1.9932,2.0348,2.0823,2.0823,2.1231,2.1695,2.1695,2.1655,2.1364,2.0323,1.9923,1.9564,1.8565,1.8275,1.8204,1.8204,1.8204,1.8204,1.8204,1.8204,0.0,0.0,0.0,0.0,0.0,0.0,0.0,0.0,0.0,0.0,0.0,0.0,0.0,0.0,0.0,1.3685,1.4153,1.457,1.4971,0.0,0.0,0.0,1.6687,1.7207,0.0,1.8008,0.0,1.8627,1.8695,1.9494,1.9941,2.0019,2.0391,2.0605,2.0605,2.0605,2.0605,2.0605,2.0605,2.0605,2.0605,2.0605,2.0605,2.0605,2.0605,2.0605,2.0605,1.9399,0.0,0.0,0.0,0.0,2.1356,2.2082,2.1808,2.1824,2.2676,2.2758,2.3042,2.3896,2.3988,2.4043,2.419,2.419,0.0,0.0,0.0,0.0,2.2716,2.2556,2.2426,2.231,2.2296,2.2296,0.0,2.2296,2.2296,2.2296,0.0,0.0,0.0,0.0,0.0,2.1718,2.1718,0.0,2.0566,2.0878,2.0841,2.0662,2.0913,2.1151,2.1365,2.1485,2.1096,2.0617,2.1156,2.1425,2.1515,2.1515,2.1605,2.1695,2.1695,2.1385,2.0988,2.0787,2.0002,1.9185,1.8995,1.8575,1.8204,1.8204,1.8204,1.8204,1.8204,1.8204,1.8204,1.8204,0.0,0.0,0.0,0.0,0.0,0.0,0.0,0.0,0.0,0.0,0.0,0.0,0.0,0.0,0.0,1.4746,0.0,0.0,0.0,0.0,0.0,0.0,0.0,0.0,0.0,0.0,1.918,1.9678,2.0098,2.0488,2.0566,2.0605,2.0605,2.0605,2.0605,2.0605,2.0605,2.0605,2.0605,2.0605,2.0605,2.0605,2.0605,2.0605,2.0605,0.0,0.0,0.0,0.0,0.0,0.0,0.0,2.2932,0.0,2.3566,2.3621,2.3768,2.4153,2.419,2.4141,2.3966,2.3937,2.3795,2.3459,2.3437,2.33,2.2972,2.2797,0.0,2.2514,2.2374,2.2296,2.2296,2.2296,2.2296,0.0,0.0,0.0,0.0,0.0,2.2382,0.0,0.0,0.0,2.2163,2.2112,2.1886,2.1591,2.1519,2.1594,2.1739,2.2084,2.1994,2.1724,2.171,2.1939,2.2224,2.2224,2.2428,2.2682,2.2682,2.25,2.2154,2.1495,2.0886,2.0288,1.9627,1.9253,1.9032,1.9032,1.9032,1.9032,1.9032,1.9032,1.8945,1.8657,1.813,0.0,0.0,0.0,0.0,0.0,0.0,0.0,0.0,0.0,0.0,0.0,0.0,0.0,0.0,0.0,0.0,0.0,0.0,0.0,0.0,0.0,0.0,0.0,0.0,0.0,1.9619,2.0049,2.0361,2.0605,2.0605,2.0605,2.0605,2.0605,2.0605,2.0605,2.0605,2.0605,2.0605,2.0605,2.0605,2.0605,2.0605,2.0605,2.0605,0.0,2.1716,0.0,0.0,2.2659,0.0,2.3482,2.419,2.4649,2.4493,2.4456,2.452,2.4685,2.4704,2.4606,2.4334,2.4324,2.4158,2.3845,2.3732,2.3589,2.3388,2.3033,2.2781,2.2625,2.2398,2.2296,0.0,2.2296,2.2381,0.0,0.0,0.0,0.0,0.0,0.0,0.0,0.0,2.3437,2.3551,2.3242,2.2896,2.2576,2.2297,2.2243,2.234,2.2744,2.2897,2.2823,2.2278,2.2443,2.2897,2.2897,2.3227,2.3595,2.3595,2.3595,2.3384,2.2386,2.1908,2.1459,2.0446,1.9991,1.9798,1.9798,1.9798,1.9798,1.9798,1.9798,1.9673,1.9246,1.8655,0.0,0.0,0.0,0.0,0.0,0.0,0.0,0.0,0.0,0.0,0.0,0.0,0.0,0.0,0.0,1.5449,1.5547,1.6268,0.0,0.0,0.0,1.8266,1.8598,0.0,1.959,0.0,2.04,2.0605,2.0605,2.0605,2.0605,2.0605,2.0605,2.0605,2.0605,2.0605,2.0605,2.0605,2.0605,2.0605,2.0605,2.0605,2.0605,2.0605,0.0,0.0,0.0,0.0,0.0,0.0,0.0,2.586,2.6117,2.5374,2.5283,2.5576,2.63,2.6392,2.6363,2.6332,2.6332,2.6188,2.5851,2.5485,2.4879,2.3955,2.3545,2.3028,2.2352,2.2307,2.2296,0.0,0.0,2.2634,0.0,0.0,0.0,0.0,0.0,0.0,0.0,2.3335,2.2897,2.2582,2.2943,2.318,2.3351,2.373,2.399,2.4097,2.3667,2.352,2.3505,2.3445,2.346,2.352,2.352,2.355,2.3595,2.3595,2.3595,2.3573,2.345,2.2583,2.1673,2.1554,2.0657,1.9798,1.9798,1.9798,1.9798,1.9798,1.9798,1.9786,1.9736,1.9129,1.838,0.0,0.0,0.0,0.0,0.0,0.0,0.0,0.0,0.0,0.0,0.0,0.0,0.0,0.0,1.5586,1.6007,1.6465,1.6882,1.7314,0.0,1.8559,1.8598,1.9443,0.0,1.9922,2.04,2.0605,2.0605,2.0605,2.0605,2.0605,2.0605,2.0605,2.0605,2.0605,2.0605,2.0605,2.0605,2.0605,2.0605,2.0605,2.0605,2.0605,0.0,0.0,0.0,0.0,0.0,0.0,0.0,2.6392,2.6667,2.6825,2.641,2.6245,2.6547,2.6602,2.653,2.6329,2.6299,2.6236,2.6103,2.5711,2.5409,2.5214,2.4649,2.4016,2.3278,2.3068,2.297,0.0,0.0,2.3342,2.4068,0.0,0.0,0.0,0.0,2.4651,2.4895,2.436,2.4452,2.4932,2.4535,2.4417,2.4464,2.4343,2.4116,2.39,2.3681,2.3595,2.3595,2.3595,2.3595,2.3595,2.3595,2.3595,2.3595,2.3595,2.3595,2.3428,2.2674,2.2086,2.1506,2.0756,2.0181,1.9798,1.9798,1.9798,1.9798,1.9798,1.9798,1.9798,1.9798,1.9202,1.8474,0.0,0.0,0.0,0.0,0.0,0.0,0.0,0.0,1.5508,0.0,0.0,0.0,0.0,0.0,1.5909,1.6085,1.6738,1.7207,1.7373,0.0,1.8724,1.9023,1.9619,2.0049,2.0303,2.0517,2.0605,2.0605,2.0605,2.0605,2.0605,2.0605,2.0605,2.0605,2.0605,2.0605,2.0605,2.0605,2.0605,2.0605,2.0605,2.0605,2.0605,2.565,0.0,2.5933,0.0,2.6796,2.6961,2.6961,2.7152,2.7501,2.8081,2.7658,2.7299,2.7299,2.7299,2.7204,2.6968,2.6944,2.6909,2.6766,2.6425,2.6215,2.6235,2.5558,0.0,2.4271,2.3903,2.3714,2.3714,2.3714,0.0,0.0,0.0,0.0,0.0,2.5151,2.5439,2.588,2.536,2.5676,2.6419,2.5561,2.5297,2.5354,2.4657,2.4266,2.4032,2.3709,2.3595,2.3595,2.3595,2.3595,2.3595,2.3595,2.3595,2.3595,2.3595,2.3595,2.3363,2.2285,2.1852,2.1435,2.0358,2.0079,2.0049,2.0049,2.0188,2.03,2.03,2.03,2.0209,1.9957,1.9314,1.8562,0.0,0.0,0.0,0.0,0.0,0.0,0.0,1.5771,1.5918,1.623,0.0,0.0,0.0,0.0,0.0,1.6486,1.7073,0.0,0.0,0.0,0.0,0.0,1.9893,2.0254,2.0605,2.0605,2.0605,2.0605,2.0605,2.0605,2.0605,2.0605,2.0605,2.0605,2.0605,2.0605,2.0605,2.0605,2.0605,2.0605,2.0605,2.0605,2.0605,2.6583,2.6594,2.6583,2.6602,2.7255,2.7787,2.7787,2.8455,2.8968,2.8987,2.8987,2.8968,2.8968,2.8968,2.8968,2.8957,2.8957,2.8791,2.8397,2.8071,2.7557,0.0,0.0,2.5423,2.509,2.4684,2.4491,2.4491,0.0,0.0,2.5592,0.0,2.6657,2.6657,2.6657,2.6674,2.6657,2.6192,2.5997,2.5961,2.5411,2.5521,2.587,2.4812,2.4716,2.5047,2.397,2.3595,2.3595,2.3595,2.3595,2.3595,2.3595,2.3595,2.3595,2.3595,2.3595,2.3465,2.2852,2.2193,2.1544,2.093,2.0746,2.0679,2.0679,2.1106,2.1468,2.1468,2.1468,2.1232,2.0359,1.9592,1.8821,1.7934,0.0,0.0,0.0,0.0,0.0,0.0,1.6687,1.6687,1.6687,0.0,0.0,0.0,0.0,0.0,0.0,0.0,0.0,1.8559,1.9053,0.0,1.9902,2.038,2.0595,2.0605,2.0605,2.0605,2.0605,2.0605,2.0605,2.0605,2.0605,2.0605,2.0605,2.0605,2.0605,2.0605,2.0605,2.0605,2.0605,2.0605,2.0605,2.0605,2.7497,2.7503,2.7585,2.8143,2.8455,2.862,2.862,2.884,2.9005,2.9005,2.9005,2.9005,2.9005,2.9005,2.9005,0.0,2.9005,2.894,0.0,2.8451,2.8143,2.7905,2.7163,2.6471,2.586,2.5456,2.5253,2.5253,0.0,0.0,0.0,2.659,2.6691,2.6691,2.6691,2.6691,2.6674,2.6209,2.6013,2.5995,2.5815,2.5411,2.491,2.495,2.4612,2.4053,2.3709,2.3595,2.3595,2.3595,2.3595,2.3684,2.4126,2.3984,2.3595,2.3595,2.3924,2.4164,2.3566,2.3191,2.2844,2.2178,2.1636,2.1257,2.1257,2.1395,2.1493,2.1493,2.1493,2.1425,2.1131,2.0469,1.9703,1.8843,0.0,0.0,0.0,0.0,0.0,0.0,1.6697,1.6824,0.0,1.7178,0.0,0.0,0.0,0.0,0.0,0.0,0.0,0.0,1.9336,0.0,1.9912,2.039,2.0605,2.0605,2.0605,2.0605,2.0605,2.0605,2.0605,2.0605,2.0605,2.0605,2.0605,2.0605,2.0605,2.0605,2.0605,2.0605,2.0605,2.0605,2.0605,2.0644,2.8318,2.8341,2.8411,2.8913,2.9005,2.9021,2.9134,2.9055,2.9051,2.9145,2.9055,2.9005,2.9005,2.9005,0.0,2.9005,2.9005,2.894,2.8773,2.854,2.8337,2.8224,2.7616,2.7078,2.6625,0.0,0.0,2.6015,2.6015,2.6251,2.6691,2.6691,2.6691,2.6691,2.6691,2.6691,2.6674,2.6384,2.6262,2.6227,2.5835,2.5411,2.4985,2.499,2.4688,2.4282,2.4319,2.4358,2.4358,2.4358,2.4358,2.4418,2.4829,2.4702,2.4358,2.4358,2.4634,2.4848,2.4243,2.3837,2.3434,2.2764,2.219,2.1845,2.2058,2.2108,2.2108,2.2108,2.2108,2.2022,2.172,2.1257,2.0682,1.9825,0.0,1.829,1.7737,0.0,0.0,0.0,0.0,0.0,0.0,1.7852,0.0,0.0,0.0,0.0,0.0,0.0,0.0,1.9075,1.9639,0.0,2.0156,2.0468,2.0605,2.0605,2.0605,2.0605,2.0605,2.0605,2.0605,2.0605,2.0605,2.0605,2.0605,2.0605,2.0605,2.0605,2.0605,2.0605,2.0625,2.0752,2.082,2.0879,2.9048,2.9044,0.0,0.0,2.904,0.0,2.9341,2.9167,2.9089,2.9341,2.9156,2.9005,2.9005,2.9005,2.9005,2.9005,0.0,0.0,0.0,2.842,2.8264,2.7954,2.753,0.0,2.7303,2.6906,2.6691,2.6691,2.6691,2.6691,2.6691,2.6691,2.6691,2.6691,2.6691,2.6725,2.6776,2.6776,2.6759,2.6656,2.5763,2.5629,2.588,2.5038,2.5007,2.5441,2.556,2.5615,2.5615,2.5615,2.5615,2.5615,2.5659,2.5674,2.5674,2.5615,2.5621,2.5557,2.4922,2.4258,2.3557,2.2884,2.2551,2.2498,2.2995,2.3108,2.3108,2.3108,2.3108,2.2884,2.2125,2.197,2.169,2.0751,1.9911,1.9332,1.9243,0.0,0.0,0.0,0.0,0.0,0.0,1.8646,1.8812,0.0,0.0,0.0,0.0,0.0,1.9541,1.9902,1.9941,2.0156,2.0595,2.0605,2.0605,2.0605,2.0605,2.0605,2.0605,2.0605,2.0605,2.0605,2.0605,2.0605,2.0605,2.0605,2.0625,2.0644,2.0644,2.0664,2.0752,2.1123,2.1239,2.1307,0.0,0.0,2.931,2.931,2.931,2.9257,2.9123,2.9051,2.9028,2.9078,2.9051,2.9005,2.9005,2.9005,2.9005,2.9005,2.9005,2.8952,2.8863,2.8565,2.835,2.829,2.7646,2.7303,2.7303,2.6906,2.6691,2.6691,2.6691,2.6691,2.6691,2.6691,2.6691,2.6691,2.6691,2.7012,2.7536,2.7536,2.7393,2.7181,2.7336,2.6716,2.5731,2.5906,2.5803,2.5575,2.5601,2.5615,2.5615,2.5615,2.5615,2.5689,2.6198,2.6363,2.6258,2.5749,2.5959,2.6227,2.5502,2.5142,2.4806,2.4096,2.3412,2.2945,2.307,2.3108,2.3108,2.3108,2.3108,2.3035,2.2854,2.2823,2.2341,2.0846,2.043,1.9814,1.8496,1.8385,0.0,0.0,1.8779,1.9023,1.9121,1.9131,1.918,0.0,0.0,0.0,0.0,0.0,2.0156,1.9922,2.0244,2.0498,2.0605,2.0605,2.0605,2.0605,2.0605,2.0605,2.0605,2.0605,2.0605,2.0605,2.0605,2.0605,2.0605,2.0605,2.0762,2.1074,2.1074,2.1279,2.1582,2.1689,2.1728,2.1797,3.0341,3.0189,3.0054,3.0429,3.0405,3.0313,3.029,3.0182,3.0147,3.0268,3.0164,3.0099,3.0099,3.0099,3.0099,3.0099,2.9427,2.9005,2.9005,2.9144,2.9147,2.8956,2.8744,2.8532,2.8357,2.7964,2.7757,2.7757,2.7757,2.7757,2.7757,2.7757,2.7757,2.7757,2.7757,2.796,2.8331,2.8044,2.783,2.764,2.7414,2.6779,2.6009,2.6359,2.6317,2.6093,2.6393,2.6497,2.6497,2.6497,2.6497,2.6572,2.6941,2.7061,2.7001,2.6617,2.6752,2.6986,2.6566,2.5944,2.5119,2.4018,2.3424,2.3108,2.3108,2.3108,2.3108,2.3108,2.3108,2.3108,2.3108,2.2793,2.2302,2.1603,2.0785,2.0012,1.93,1.9027,0.0,1.8936,1.9141,1.9365,1.9561,1.957,1.9658,1.9891,0.0,0.0,2.0215,2.0478,2.0498,2.0225,2.0478,2.0605,2.0605,2.0605,2.0605,2.0605,2.0605,2.0605,2.0605,2.0605,2.0605,2.0615,2.0781,2.0869,2.0889,2.1124,2.1309,2.1533,2.1533,2.168,2.1904,2.21,2.2168,2.2236,3.1078,3.0986,3.1004,3.1688,3.1612,3.1513,3.1704,3.1548,3.1483,3.1704,3.1537,3.1397,3.1397,3.1397,3.1397,3.1397,3.0155,2.9354,2.9354,2.996,3.0141,2.9814,3.0009,2.9948,2.9606,2.921,2.8993,2.8993,2.8993,2.8993,2.8993,2.8993,2.8993,2.8993,2.8993,2.9024,2.8998,2.8472,2.8227,2.8082,2.7114,2.6663,2.6604,2.6705,2.6761,2.6836,2.7405,2.76,2.76,2.76,2.76,2.76,2.76,2.76,2.76,2.76,2.7524,2.7408,2.7306,2.6174,2.4753,2.3424,2.317,2.3233,2.3233,2.3296,2.3358,2.3358,2.3358,2.3358,2.3358,2.2794,2.2353,2.2415,2.1185,2.0246,2.0373,0.0,1.9385,1.9385,1.9434,1.9619,1.998,2.0019,2.0166,2.0576,2.0605,0.0,0.0,2.0605,2.0605,2.0605,2.0605,2.0605,2.0605,2.0605,2.0605,2.0605,2.0605,2.0605,2.0605,2.0674,2.0703,2.0693,2.1143,2.1298,2.1317,2.1738,2.1924,2.1982,2.1982,2.2021,2.2119,2.248,2.2607,2.2656,3.2205,3.1901,3.1644,3.1786,3.176,3.1688,3.1495,3.1421,3.1409,3.1458,3.1421,3.1397,3.1397,3.1397,3.1397,3.1397,3.1176,3.1017,3.1017,3.0873,3.0758,3.0685,3.0051,2.9672,2.9606,2.921,2.8993,2.8993,2.8993,2.8993,2.8993,2.8993,2.8993,2.8993,2.8993,2.9072,2.9161,2.9081,2.8785,2.842,2.8248,2.7867,2.7425,2.743,2.745,2.7465,2.7555,2.76,2.76,2.76,2.76,2.76,2.76,2.76,2.76,2.76,2.7178,2.6522,2.5919,2.4625,2.3382,2.3155,2.3471,2.3866,2.3866,2.4217,2.4525,2.4525,2.4525,2.4525,2.4525,2.4429,2.3835,2.2332,2.1855,2.1164,0.0,0.0,1.9814,1.9814,2.0146,2.0429,2.0498,2.0507,2.0537,2.0595,2.0605,2.0605,2.0605,2.0605,2.0605,2.0605,2.0605,2.0605,2.0605,2.0605,2.0605,2.0605,2.0605,2.0605,2.0615,2.0957,2.1093,2.1112,2.1592,2.1787,2.1787,2.1855,2.21,2.2412,2.2412,2.2627,2.2906,2.2974,2.3003,2.3013,3.2899,3.2695,3.2582,3.3015,3.2968,3.2834,3.2713,3.2687,3.2687,3.2687,3.2687,3.2687,3.2687,3.2687,3.2687,3.2687,3.2687,3.2687,3.2687,3.214,3.171,3.1502,3.1273,3.0941,3.048,3.0274,3.0194,3.0194,3.0194,3.0194,3.0194,3.0194,3.0194,3.0194,3.0194,3.0037,2.9799,2.9799,2.9279,2.8487,2.8487,2.814,2.76,2.76,2.76,2.76,2.76,2.76,2.76,2.76,2.76,2.76,2.76,2.76,2.766,2.8034,2.7354,2.6315,2.5458,2.4711,2.4158,2.406,2.4211,2.4443,2.4443,2.4612,2.4788,2.4788,2.4788,2.4788,2.4788,2.3976,2.3103,2.2464,2.1521,0.0,0.0,2.0146,2.0264,2.0264,2.0478,2.0605,2.0605,2.0605,2.0605,2.0605,2.0605,2.0605,2.0605,2.0605,2.0605,2.0605,2.0605,2.0605,2.0605,2.0605,2.0605,2.0605,2.081,2.0928,2.0937,2.1387,2.1582,2.1611,2.2041,2.2217,2.2236,2.2471,2.2676,2.2808,2.2808,2.2925,2.3091,2.3091,2.3091,2.3091,3.3491,3.3362,3.3376,3.4006,3.3954,3.3807,3.3807,3.3807,3.3807,3.3807,3.3807,3.3807,3.3807,3.3807,3.3807,3.3807,3.3807,3.3807,3.3807,3.322,3.2738,3.2444,3.2456,3.2092,3.121,3.119,3.119,3.119,3.119,3.119,3.119,3.119,3.119,3.119,3.119,3.0858,3.0293,3.0145,2.9473,2.8487,2.8343,2.8018,2.76,2.76,2.76,2.76,2.76,2.76,2.76,2.76,2.76,2.763,2.7779,2.7839,2.7959,2.8622,2.7805,2.6454,2.5544,2.5179,2.4991,2.4835,2.4876,2.5008,2.5008,2.5109,2.5209,2.5209,2.5209,2.5209,2.5209,2.4028,2.311,2.3218,0.0,0.0,0.0,2.075,2.0605,2.0605,2.0605,2.0605,2.0605,2.0605,2.0605,2.0605,2.0605,2.0605,2.0605,2.0605,2.0605,2.0605,2.0605,2.0605,2.0605,2.0605,2.0654,2.0723,2.1064,2.1249,2.1356,2.1836,2.2031,2.206,2.248,2.2656,2.2643,2.2964,2.3091,2.3091,2.3091,2.3091,2.3091,2.3091,2.3091,2.3091,3.413,3.3932,3.3773,3.3829,3.3802,3.3807,3.3807,3.3807,3.3807,3.3807,3.3807,3.3807,3.3807,3.3807,3.3807,3.3807,3.3807,3.3807,3.3807,3.3733,3.3702,3.3675,3.2914,3.2092,3.121,3.119,3.119,3.119,3.119,3.119,3.119,3.119,3.119,3.119,3.119,3.0858,3.0251,2.9695,2.9088,2.8439,2.7894,2.765,2.76,2.76,2.76,2.76,2.76,2.76,2.76,2.76,2.76,2.7705,2.8323,2.8532,2.8652,2.9337,2.8409,2.6951,2.6086,2.5331,2.4834,2.4808,2.5184,2.5536,2.5536,2.5984,2.6373,2.6373,2.6373,2.6373,2.6373,2.6258,2.5879,2.498,0.0,0.0,2.2027,2.1155,2.0605,2.0605,2.0605,2.0605,2.0605,2.0605,2.0605,2.0605,2.0605,2.0605,2.0605,2.0605,2.0605,2.0605,2.0605,2.0605,2.0605,2.0605,2.0771,2.1142,2.1181,2.1445,2.1846,2.2275,2.2471,2.249,2.2867,2.3052,2.3052,2.3081,2.3091,2.3091,2.3091,2.3091,2.3091,2.3091,2.3091,2.3091,3.3986,3.3863,3.3807,3.3807,3.3807,3.3807,3.3807,3.3807,3.3807,3.3807,3.3807,3.3807,3.3807,3.3807,3.3807,3.3807,3.3807,3.3807,3.3807,3.3284,3.2996,3.2996,3.2161,3.1543,3.121,3.119,3.119,3.119,3.119,3.119,3.119,3.119,3.119,3.119,3.119,3.0658,2.9761,2.9892,2.918,2.7944,2.8091,2.7919,2.76,2.76,2.76,2.7645,2.8079,2.8203,2.8263,2.8708,2.8843,2.8888,2.9157,2.9205,2.9121,2.8728,2.8083,2.732,2.6504,2.578,2.5385,2.5749,2.6021,2.6172,2.6172,2.6336,2.6499,2.6499,2.6499,2.6499,2.6499,2.599,2.5441,2.504,0.0,2.244,2.2065,2.1193,2.0605,2.0605,2.0605,2.0605,2.0605,2.0605,2.0605,2.0605,2.0605,2.0605,2.0605,2.0605,2.0693,2.0967,2.0977,2.0977,2.0977,2.0977,2.1201,2.1641,2.1904,2.2109,2.2295,2.2672,2.2857,2.2867,2.3023,2.3091,2.3091,2.3091,2.3091,2.3091,2.3091,2.3091,2.3091,2.3091,2.3091,2.3091,3.3842,3.3807,3.3807,3.3807,3.3807,3.3807,3.3807,3.3807,3.3807,3.3807,3.3807,3.3807,3.3807,3.3807,3.3807,3.3807,3.3807,3.3748,3.3606,3.2775,3.223,3.2109,3.1638,3.1332,3.121,3.119,3.119,3.119,3.119,3.1309,3.1565,3.1565,3.1664,3.1884,3.1664,3.1236,3.0625,3.0447,2.9784,2.8826,2.8842,2.8596,2.8229,2.8229,2.8229,2.8289,2.8742,2.8906,2.8981,2.943,2.9606,2.9636,2.9804,2.9861,2.9606,2.8594,2.802,2.7517,2.6714,2.6197,2.5996,2.6399,2.6499,2.6499,2.6499,2.6499,2.6499,2.6499,2.6499,2.6499,2.6499,2.5955,2.5476,2.5476,2.4036,2.2813,2.2515,2.1631,2.0934,2.0644,2.0605,2.0605,2.0605,2.0605,2.0605,2.0605,2.0605,2.0664,2.0762,2.0781,2.0977,2.1426,2.1405,2.1463,2.16,2.1463,2.166,2.209,2.2373,2.2578,2.2715,2.2964,2.3091,2.3091,2.3091,2.3091,2.3091,2.3091,2.3091,2.3091,2.3091,2.3091,2.3091,2.3091,2.3091,2.3091,3.3807,3.3807,3.3807,3.3807,3.3807,3.3807,3.3807,3.3807,3.3807,3.3807,3.3807,3.3807,3.3807,3.3807,3.3807,3.3807,3.3807,3.3638,3.3214,3.2333,3.1638,3.1227,3.1584,3.1621,3.1227,3.1207,3.1207,3.1207,3.1207,3.1599,3.231,3.231,3.2699,3.3364,3.2707,3.2774,3.3262,3.1333,3.0889,3.1374,3.0105,2.9606,2.9606,2.9606,2.9606,2.9606,2.9621,2.9621,2.9621,2.9621,2.9621,2.9726,3.0313,3.0425,3.0103,2.9254,2.8363,2.7517,2.6714,2.6499,2.6499,2.6499,2.6499,2.6499,2.6499,2.6499,2.6499,2.6499,2.6499,2.6499,2.6499,2.6499,2.6499,2.6499,2.5629,2.4636,2.3624,2.2627,2.1621,2.0712,2.0605,2.0605,2.0605,2.0605,2.0605,2.0605,2.0605,2.0762,2.1181,2.12,2.1405,2.1875,2.1894,2.209,2.251,2.21,2.21,2.2519,2.2519,2.2691,2.3091,2.3091,2.3091,2.3091,2.3091,2.3091,2.3091,2.3091,2.3091,2.3091,2.3091,2.3091,2.3091,2.3091,2.3091,2.3091,3.3807,3.3807,3.3807,3.3807,3.3807,3.3807,3.3807,3.3807,3.3807,3.3807,3.3807,3.3807,3.3807,3.3807,3.3807,3.3807,3.3536,3.3294,3.3073,3.329,3.3201,3.2767,3.2366,3.2332,3.2747,3.2747,3.2747,3.2747,3.2747,3.2865,3.3068,3.3068,3.3186,3.3385,3.3198,3.2713,3.2029,3.1462,3.0789,3.0132,2.9753,2.9606,2.9606,2.9606,2.9606,2.9666,3.0073,3.0223,3.0298,3.0763,3.0913,3.0957,3.1137,3.0364,2.9348,2.9097,2.7986,2.6816,2.6555,2.6499,2.6499,2.6499,2.6499,2.6499,2.6499,2.6499,2.6499,2.6499,2.6499,2.6499,2.6499,2.6499,2.628,2.5558,2.4588,2.3599,2.259,2.1631,2.0895,2.0644,2.0605,2.0605,2.0605,2.0605,2.0605,2.0605,2.0859,2.123,2.167,2.1689,2.1885,2.2314,2.2324,2.2529,2.2906,2.2539,2.2539,2.2906,2.2906,2.2974,2.3091,2.3091,2.3091,2.3091,2.3091,2.3091,2.3091,2.3091,2.3091,2.3091,2.3091,2.3091,2.3091,2.3091,2.3091,2.3091,3.3807,3.3807,3.3899,3.4229,3.427,3.4394,3.4743,3.4798,3.4798,3.4798,3.4798,3.4798,3.4798,3.4798,3.4692,3.4499,3.4071,3.38,3.3719,3.3982,3.4046,3.3833,3.3406,3.3237,3.3406,3.3406,3.3406,3.3406,3.3406,3.3558,3.3846,3.3846,3.3998,3.4242,3.3728,3.3198,3.2668,3.1868,3.1215,3.0767,3.0481,3.0357,3.0357,3.0357,3.0357,3.0402,3.0748,3.0883,3.0943,3.1361,3.1511,3.1511,3.1511,3.0359,2.9002,2.9002,2.7802,2.6499,2.6499,2.6499,2.6499,2.6499,2.6499,2.6499,2.6499,2.6499,2.6499,2.6499,2.6499,2.6499,2.6499,2.6499,2.6164,2.5158,2.4492,2.3588,2.2215,2.1517,2.1011,2.0644,2.0605,2.0605,2.0605,2.0723,2.0898,2.1114,2.1338,2.168,2.2109,2.2139,2.2324,2.2701,2.2721,2.2838,2.3091,2.2847,2.2847,2.3091,2.3091,2.3091,2.3091,2.3091,2.3091,2.3091,2.3091,2.3091,2.3091,2.3091,2.3091,2.3091,2.3091,2.3091,2.3091,2.3091,2.3091,2.3091,3.4027,3.4027,3.4247,3.4986,3.5133,3.5371,3.6174,3.6303,3.6303,3.6303,3.6303,3.627,3.6241,3.6241,3.6024,3.553,3.5133,3.4854,3.4764,3.4497,3.4424,3.4578,3.459,3.4286,3.3609,3.3609,3.3609,3.3609,3.3609,3.3947,3.459,3.459,3.4918,3.547,3.4227,3.3962,3.4309,3.2407,3.1951,3.2437,3.1768,3.1511,3.1511,3.1511,3.1511,3.1511,3.1511,3.1511,3.1511,3.1511,3.1511,3.1511,3.1409,3.0299,2.8971,2.8907,2.7769,2.6499,2.6499,2.6499,2.6499,2.6499,2.6499,2.6499,2.6499,2.6499,2.6499,2.6499,2.6499,2.6499,2.6499,2.6499,2.6164,2.5158,2.4933,2.4192,2.2253,2.1924,2.1555,2.0712,2.0605,2.0615,2.0664,2.1025,2.1434,2.1904,2.1943,2.2129,2.2549,2.2568,2.2701,2.3081,2.3091,2.3091,2.3091,2.3091,2.3091,2.3091,2.3091,2.3091,2.3091,2.3091,2.3091,2.3091,2.3091,2.3091,2.3091,2.3091,2.3091,2.3091,2.3091,2.3091,2.3091,2.3091,2.3091,2.3091,3.5752,3.5752,3.5807,3.5991,3.6028,3.6083,3.6266,3.6303,3.6303,3.6303,3.6303,3.615,3.5724,3.5659,3.5645,3.5497,3.5597,3.5349,3.4607,3.5015,3.5331,3.5368,3.5346,3.5278,3.5126,3.5109,3.5109,3.5109,3.5109,3.5194,3.5346,3.5346,3.5171,3.4807,3.4503,3.3887,3.3013,3.2559,3.212,3.171,3.1553,3.1511,3.1511,3.1511,3.1511,3.1511,3.1511,3.1511,3.1511,3.1511,3.1511,3.138,3.0777,2.9858,2.8876,2.8182,2.7297,2.6499,2.6499,2.6499,2.6499,2.6499,2.6499,2.6499,2.6499,2.6499,2.6499,2.6499,2.6499,2.6499,2.6499,2.6499,2.6164,2.5158,2.4337,2.3404,2.2178,2.1375,2.0828,2.0644,2.0605,2.0703,2.1055,2.1484,2.1924,2.2344,2.2373,2.2559,2.2935,2.2955,2.3003,2.3091,2.3091,2.3091,2.3091,2.3091,2.3091,2.3091,2.3091,2.3091,2.3091,2.3091,2.3091,2.3091,2.3091,2.3091,2.3091,2.3091,2.3091,2.3091,2.3091,2.3091,2.3091,2.3091,2.3091,2.3091,3.6303,3.6303,3.6413,3.6813,3.6868,3.7015,3.7386,3.7441,3.7441,3.7441,3.7441,3.7348,3.7062,3.703,3.6914,3.6666,3.6324,3.5933,3.545,3.5784,3.5854,3.5622,3.56,3.56,3.56,3.56,3.56,3.56,3.56,3.56,3.56,3.5276,3.4941,3.4576,3.3937,3.3277,3.2574,3.2216,3.1853,3.1511,3.1511,3.1511,3.1511,3.1511,3.1511,3.1511,3.1511,3.1511,3.1511,3.1511,3.1511,3.1438,3.0999,3.0011,2.8907,2.846,2.7451,2.6499,2.6499,2.6499,2.6499,2.6499,2.6499,2.6499,2.6499,2.6499,2.6499,2.6499,2.6499,2.6499,2.6499,2.6499,2.6164,2.5158,2.4156,2.3147,2.214,2.1193,2.0605,2.0605,2.0752,2.1133,2.1736,2.2051,2.2353,2.2783,2.2812,2.2867,2.3081,2.3091,2.3091,2.3091,2.3091,2.3091,2.3091,2.3091,2.3091,2.3091,2.3091,2.3091,2.3091,2.3091,2.3091,2.3091,2.3091,2.3091,2.3091,2.3091,2.3091,2.3091,2.3091,2.3091,2.3091,2.3091,2.3091,2.3091,3.6707,3.6707,3.6909,3.7603,3.7713,3.7933,3.8597,3.8707,3.8707,3.8707,3.8707,3.8676,3.8562,3.8499,3.8201,3.756,3.6825,3.6354,3.6266,3.6249,3.6054,3.5622,3.56,3.56,3.56,3.56,3.56,3.56,3.56,3.56,3.56,3.4918,3.4528,3.4382,3.3145,3.2547,3.2382,3.1768,3.1511,3.1511,3.1511,3.1511,3.1511,3.1511,3.1511,3.1511,3.1511,3.1511,3.1511,3.1511,3.1511,3.1467,3.1351,3.0238,2.8971,2.8812,2.7703,2.6499,2.6499,2.6499,2.6499,2.6499,2.6499,2.6499,2.6499,2.6499,2.6499,2.6499,2.6499,2.6499,2.6499,2.6499,2.6164,2.5158,2.4156,2.3147,2.214,2.1193,2.0635,2.0713,2.1143,2.1697,2.2441,2.2578,2.2721,2.3062,2.3091,2.3091,2.3091,2.3091,2.3091,2.3091,2.3091,2.3091,2.3091,2.3091,2.3091,2.3091,2.3091,2.3091,2.3091,2.3091,2.3091,2.3091,2.3091,2.3091,2.3091,2.3091,2.3091,2.3091,2.3091,2.3091,2.3091,2.3091,2.3091,2.3091,3.8377,3.8377,3.8414,3.8524,3.8542,3.8579,3.8689,3.8707,3.8707,3.8707,3.8707,3.8512,3.8065,3.7649,3.7001,3.6011,3.6207,3.6203,3.5739,3.5717,3.5689,3.56,3.56,3.56,3.56,3.56,3.56,3.56,3.56,3.56,3.56,3.4918,3.4284,3.371,3.2949,3.2244,3.164,3.1524,3.1511,3.1511,3.1511,3.1511,3.1511,3.1511,3.1511,3.1511,3.1511,3.1511,3.1511,3.1511,3.1511,3.138,3.0673,2.9797,2.8844,2.8117,2.7229,2.6499,2.6499,2.6499,2.6499,2.6499,2.6499,2.6499,2.6499,2.6499,2.6499,2.6499,2.6499,2.6499,2.6499,2.6499,2.6164,2.5158,2.4156,2.3147,2.214,2.1193,2.0752,2.1094,2.1814,2.2383,2.25,2.2799,2.3033,2.3091,2.3091,2.3091,2.3091,2.3091,2.3091,2.3091,2.3091,2.3091,2.3091,2.3091,2.3091,2.3091,2.3091,2.3091,2.3091,2.3091,2.3091,2.3091,2.3091,2.3091,2.3091,2.3091,2.3091,2.3091,2.3091,2.3091,2.3091,2.3091,2.3091,2.3091,3.8707,3.8707,3.8707,3.8707,3.8707,3.8707,3.8707,3.8707,3.8707,3.8707,3.8449,3.8167,3.7929,3.7193,3.6563,3.6097,3.6006,3.5854,3.5622,3.56,3.56,3.56,3.56,3.56,3.56,3.56,3.56,3.56,3.56,3.56,3.56,3.4918,3.4235,3.3556,3.2895,3.2203,3.1511,3.1511,3.1511,3.1511,3.1511,3.1511,3.1511,3.1511,3.1511,3.1511,3.1511,3.1511,3.1511,3.1511,3.119,3.0777,3.0419,2.938,2.8214,2.7802,2.7129,2.6499,2.6499,2.6499,2.6499,2.6499,2.6499,2.6499,2.6499,2.6499,2.6499,2.6499,2.6499,2.6499,2.6499,2.6025,2.5511,2.5087,2.3672,2.2515,2.2065,2.1376,2.1191,2.1865,2.2285,2.2607,2.2789,2.2984,2.3091,2.3091,2.3091,2.3091,2.3091,2.3091,2.3091,2.3091,2.3091,2.3091,2.3091,2.3091,2.3091,2.3091,2.3091,2.3091,2.3091,2.3091,2.3091,2.3091,2.3091,2.3091,2.3091,2.3091,2.3091,2.3091,2.3091,2.3091,2.3091,2.3091,2.3091,2.3091]}]]